GFSNGP_con_3kmhel_000.txt.gz
Helicity
78 84 67 51 61 90 101 108 104 73 112 87 140 205 296 354 378 360 301 269 244 230 180 103 59 99 94 88 81 85 77 84 78 60 65 82 99 115 128 126 121 115 115 131
72 99 104 64 55 83 117 131 105 122 103 111 155 287 306 319 305 269 240 217 207 185 92 92 83 104 86 76 81 106 98 91 105 109 106 117 128 127 118 117 128 134 143 119
54 102 103 51 77 147 157 159 175 173 128 177 162 191 238 246 234 190 187 178 179 121 91 107 98 103 87 93 108 126 137 142 145 139 133 139 131 125 124 124 129 128 109 111
90 131 113 91 112 97 119 110 174 166 129 140 152 204 176 170 188 170 162 167 150 130 126 112 131 128 118 118 133 165 155 160 167 164 155 148 134 122 123 127 105 121 139 135
155 139 148 146 120 131 166 107 203 174 167 185 195 235 113 136 178 177 155 140 151 131 165 154 137 138 139 140 170 177 164 185 173 166 162 149 136 115 111 116 139 154 146 165
197 195 153 95 107 127 176 188 156 213 177 179 228 255 120 181 223 184 176 229 185 191 205 176 168 165 180 181 180 176 182 179 171 167 163 151 133 108 117 126 138 186 186 152
205 201 185 88 147 191 229 89 92 105 125 222 214 178 161 174 233 232 266 289 270 256 224 186 194 211 175 174 170 182 183 175 169 166 173 160 137 130 124 149 186 175 174 155
184 220 165 141 241 180 97 108 66 69 158 189 225 267 256 252 288 313 321 311 276 261 206 175 167 182 178 168 176 189 177 164 159 171 190 179 140 120 140 169 175 157 158 143
135 137 112 15 61 71 134 128 131 169 191 209 325 307 279 293 321 276 302 313 234 192 161 153 160 177 175 171 188 173 166 158 147 153 172 169 130 124 160 167 155 135 140 139
182 111 89 88 82 96 133 148 166 160 218 308 317 321 360 419 424 430 266 193 133 150 151 151 153 146 170 178 181 170 169 156 135 156 161 178 148 137 141 133 132 135 154 138
130 83 103 96 125 112 128 148 162 181 222 288 352 371 384 377 408 312 171 107 124 149 154 135 129 144 171 178 181 168 160 145 138 152 164 177 147 133 118 114 124 131 128 132
142 120 154 100 84 90 115 133 179 250 313 338 363 383 401 423 371 158 75 101 137 148 145 122 140 147 148 161 170 149 136 124 133 127 134 173 153 128 96 82 61 69 98 130
140 105 90 94 96 105 129 171 205 273 318 390 409 465 483 423 137 44 80 120 133 133 122 137 131 123 123 141 144 127 124 114 114 131 132 144 150 126 125 107 81 77 79 92
105 138 118 125 109 105 152 233 329 406 452 556 701 775 356 175 19 37 95 117 135 122 128 117 109 112 121 132 122 115 114 100 111 112 121 137 149 142 149 142 129 98 78 77
84 97 122 137 193 226 271 366 476 630 762 768 551 184 123 19 6 69 83 109 119 120 109 105 102 93 104 125 118 106 109 114 106 114 101 96 131 142 138 140 146 120 87 73
170 156 174 221 257 307 395 480 638 581 401 373 121 96 8 9 65 73 87 121 140 120 103 97 87 73 81 87 105 110 110 103 108 120 121 110 113 125 122 130 135 108 96 80
178 197 277 312 321 376 426 448 403 266 165 72 69 -1 19 74 87 81 102 128 117 96 90 94 87 82 90 95 110 113 128 135 132 140 135 130 114 115 119 122 110 105 96 80
316 357 341 317 343 382 306 204 182 131 89 61 38 76 97 103 81 91 107 104 109 96 89 100 104 97 103 109 115 121 135 152 135 140 152 140 114 111 113 125 128 124 103 66
275 258 270 268 205 165 88 101 79 56 53 51 72 57 64 70 102 92 104 102 100 132 117 106 94 90 83 102 103 120 131 138 133 139 140 136 96 104 109 118 118 118 125 104
252 239 227 177 101 87 63 23 19 22 37 64 61 60 62 55 78 88 113 118 117 167 145 111 106 118 120 116 116 129 114 122 135 138 133 141 130 112 120 120 118 116 122 130
96 48 41 31 26 21 23 32 37 29 40 59 62 53 68 69 90 99 120 133 137 129 145 121 119 122 137 131 126 124 118 112 138 130 128 144 143 139 139 144 156 148 121 136
58 39 24 25 30 27 23 31 36 33 41 56 58 62 78 78 106 127 130 154 157 133 154 139 124 109 133 113 117 118 113 102 112 120 127 138 154 152 156 161 160 163 167 176
15 17 18 5 -4 1 26 42 42 46 55 62 67 82 102 113 143 147 132 133 152 138 161 152 127 111 108 120 104 110 106 86 87 88 107 126 132 137 138 133 132 141 154 165
19 32 37 49 57 80 100 95 88 81 63 69 79 94 118 132 131 166 186 172 166 162 183 166 150 120 96 100 90 100 110 103 73 69 82 80 87 94 100 108 116 115 118 114
98 107 111 118 111 95 82 79 75 77 78 81 91 111 138 174 185 156 163 152 141 158 181 149 118 135 163 157 120 117 110 107 90 85 83 73 69 81 100 121 128 119 115 113
151 134 117 105 89 73 62 55 62 70 85 89 99 106 114 125 144 150 145 129 138 142 151 181 256 196 142 110 92 96 99 100 96 84 77 69 65 57 64 75 99 122 122 115
122 129 106 94 79 67 69 78 84 91 99 105 119 117 116 112 117 117 129 124 109 157 272 255 211 150 96 87 85 93 95 96 90 79 65 61 60 56 61 72 82 94 103 117

GFSNGP_con_3kmhel_003.txt.gz
Helicity
76 79 53 50 52 70 90 115 99 71 95 67 56 85 108 169 277 331 326 317 272 235 181 133 108 136 124 146 123 94 107 93 93 117 100 101 107 95 98 107 128 113 81 111
53 86 88 48 41 71 83 111 90 124 86 98 129 167 180 196 258 284 266 220 191 153 123 165 147 139 139 130 95 110 95 94 125 137 129 139 122 110 119 118 118 123 112 129
63 105 106 30 46 135 162 162 154 150 130 160 122 137 138 196 191 205 170 163 164 126 116 119 159 145 136 113 115 107 114 115 141 166 159 145 129 113 112 118 112 116 128 127
109 143 135 97 117 123 100 113 132 163 146 109 126 149 131 105 142 137 153 165 138 127 110 121 172 173 140 121 113 117 117 125 156 169 159 155 127 116 121 116 112 121 134 140
143 143 141 135 119 101 96 103 105 128 142 173 193 190 90 52 91 118 148 152 143 135 136 184 182 159 133 126 123 133 129 142 155 165 169 157 130 130 123 123 109 106 130 159
141 143 118 95 105 97 96 112 93 93 156 165 186 208 91 87 117 132 182 191 185 193 229 199 193 165 150 142 149 144 145 149 154 157 166 162 149 144 142 131 113 141 169 180
165 149 126 79 139 139 181 98 121 78 96 143 170 147 153 135 131 177 231 257 285 328 181 220 193 170 162 164 141 151 165 155 149 155 167 163 166 173 158 118 123 158 178 168
145 172 119 95 120 141 103 88 91 95 106 145 136 206 194 195 217 286 327 318 315 273 282 223 167 168 164 139 150 164 158 144 151 155 156 153 180 188 177 134 135 157 157 138
96 114 91 16 60 95 129 121 132 141 122 140 181 213 260 282 316 342 369 388 285 381 294 195 140 154 140 137 169 154 142 150 156 153 134 147 186 193 196 152 133 137 134 130
137 86 62 53 55 81 137 151 164 139 121 155 177 269 325 371 391 415 400 446 439 314 240 93 127 141 127 139 146 146 150 147 144 153 141 150 179 176 160 135 122 115 113 122
117 75 93 83 82 66 76 97 91 109 132 146 203 282 375 423 458 502 576 487 216 175 66 86 114 102 119 131 137 155 150 130 122 121 119 128 150 140 137 121 114 102 92 104
125 113 138 101 75 72 84 92 95 117 166 205 235 333 430 531 579 639 375 233 157 52 68 83 90 85 102 120 143 139 118 102 117 111 107 111 110 111 111 100 111 91 65 93
123 118 81 89 75 94 99 110 121 152 204 289 338 450 597 698 583 374 125 66 29 50 68 83 78 68 91 110 122 105 99 84 102 97 99 88 102 100 99 136 133 105 74 88
84 106 102 104 111 138 161 196 274 331 401 483 584 745 675 466 339 66 -48 -17 21 53 71 71 53 51 85 96 100 89 89 87 96 94 87 94 109 101 111 130 138 131 116 90
159 110 133 156 176 180 186 240 338 386 510 661 622 522 360 178 -3 -7 -24 2 41 63 60 42 50 85 87 89 84 79 94 97 97 102 103 105 101 90 99 121 127 125 113 95
140 187 216 217 174 186 220 281 404 431 443 344 291 251 181 39 -16 -3 34 50 72 56 45 63 87 62 72 83 89 95 102 98 99 118 118 111 127 131 106 96 94 96 95 88
139 173 194 192 215 223 231 238 250 265 236 222 174 134 79 51 32 26 45 71 66 50 68 89 73 71 82 90 96 116 119 103 88 121 133 118 137 138 121 107 95 94 96 104
208 212 183 163 169 189 179 166 155 143 116 76 47 28 26 33 31 46 56 57 55 50 53 81 98 100 104 100 86 115 129 118 112 113 121 110 102 121 133 111 97 96 102 97
91 92 100 90 89 94 98 68 39 27 13 1 -12 -8 23 34 50 56 62 55 48 58 58 127 151 146 130 110 118 132 136 139 125 114 106 98 95 88 124 126 106 105 106 101
126 90 65 54 45 24 11 12 10 16 25 34 35 40 49 58 67 68 73 66 60 107 127 126 145 150 131 118 120 146 154 149 131 119 108 94 93 89 101 121 117 115 122 140
77 47 50 65 59 45 41 40 41 50 50 54 62 66 65 58 73 83 72 92 115 129 122 131 148 155 149 132 133 145 137 139 132 114 101 93 77 79 98 120 136 144 142 153
63 64 42 40 48 47 46 40 45 50 55 60 60 64 73 72 89 98 123 119 121 133 148 148 163 150 161 142 149 140 122 118 128 110 95 106 83 64 65 82 90 101 106 103
48 47 48 55 45 35 34 56 62 52 60 67 73 76 78 81 90 100 104 112 129 145 168 181 175 160 169 179 159 120 82 88 106 99 93 86 70 54 54 58 63 67 74 83
75 80 70 69 70 98 108 101 87 71 63 61 66 70 77 87 91 117 129 121 109 124 145 151 145 142 140 159 158 119 124 115 136 185 171 132 107 84 69 64 54 58 68 73
146 143 146 138 125 96 84 68 43 30 36 52 62 60 77 105 129 128 133 137 113 127 130 100 93 120 205 248 227 179 148 129 115 104 108 99 98 88 63 56 55 54 62 79
181 150 125 124 101 74 45 21 22 38 54 62 79 94 113 119 114 119 124 115 125 109 145 169 212 296 291 240 195 152 131 123 117 112 107 106 98 79 54 54 55 46 51 65
147 135 97 80 66 47 40 37 37 48 71 89 107 113 113 107 130 139 138 133 128 143 212 278 262 201 209 162 148 132 118 112 117 104 91 90 87 77 65 56 53 53 70 93

GFSNGP_con_3kmhel_006.txt.gz
Helicity
40 56 53 54 19 41 50 31 55 30 36 47 73 76 82 116 139 176 231 260 268 299 305 245 217 231 176 162 192 149 120 95 88 87 90 103 103 105 105 94 96 110 127 133
27 61 73 58 5 23 32 31 35 24 29 28 75 96 118 124 165 162 192 220 239 204 195 209 222 206 187 196 163 138 105 79 85 97 106 113 120 122 99 94 107 105 100 98
50 90 91 75 16 64 80 91 77 69 57 120 90 80 82 106 136 124 156 170 168 183 179 195 210 198 190 201 170 123 91 87 95 109 111 119 132 118 120 109 109 102 89 84
74 86 105 117 104 124 70 42 69 52 92 103 115 128 121 92 93 85 86 119 162 182 180 176 193 210 203 179 139 110 101 101 112 108 116 120 128 123 128 115 108 111 103 99
100 91 98 80 88 81 80 94 107 60 78 124 125 120 85 60 47 39 72 117 166 183 193 212 243 225 207 137 119 109 118 118 99 115 116 124 130 128 119 128 109 113 115 110
115 84 56 125 132 119 101 86 157 108 107 86 94 105 88 129 62 65 98 141 199 235 276 301 288 352 169 160 144 131 131 117 117 115 127 130 129 125 125 138 132 139 118 121
118 100 96 106 129 99 126 181 157 88 79 82 95 78 159 146 117 97 127 165 262 313 333 310 338 218 232 228 149 129 120 106 102 113 131 131 130 129 132 140 164 160 131 127
126 135 111 112 102 111 144 105 93 101 110 100 81 147 144 151 170 165 200 255 328 409 480 411 300 170 248 173 123 108 102 103 98 124 145 142 125 120 151 145 166 151 122 113
85 127 114 36 55 106 114 103 96 106 114 114 101 103 131 155 217 252 276 368 492 509 464 332 359 184 153 101 105 101 97 89 103 113 118 126 124 125 151 149 139 122 105 92
98 75 34 35 54 59 65 61 66 69 72 82 81 93 125 179 256 307 363 423 512 610 563 575 358 63 62 79 84 81 76 84 103 115 140 112 117 124 129 143 118 106 87 73
84 47 69 65 60 61 68 62 56 75 83 95 114 123 164 218 288 407 507 615 692 643 443 344 120 76 62 58 67 64 80 87 85 103 100 93 82 96 127 94 105 90 85 82
109 103 104 77 96 72 67 82 103 102 108 143 145 202 239 313 380 484 629 706 554 326 214 72 47 36 41 61 64 75 78 76 88 91 95 85 87 87 110 83 125 112 103 105
97 91 71 66 78 140 141 156 151 167 184 216 259 268 317 445 548 668 635 406 240 87 51 28 18 26 40 60 68 66 62 70 79 83 79 84 101 101 88 137 106 111 123 125
132 102 95 184 158 159 174 192 223 271 290 297 334 388 465 485 455 399 287 58 -97 -48 6 16 21 35 52 64 65 54 49 78 81 75 89 91 103 114 120 108 113 106 118 121
173 149 143 164 189 200 174 181 219 232 285 331 336 330 356 353 255 182 69 -22 -14 -3 15 39 41 48 57 57 53 57 81 83 93 103 113 104 100 105 106 107 108 84 84 121
144 158 182 214 215 220 200 199 222 238 236 225 224 195 185 152 68 -6 -30 -14 5 12 40 65 73 51 50 60 68 87 86 107 114 112 114 107 106 104 104 122 112 85 81 59
70 132 137 150 141 140 149 134 129 127 126 140 120 81 33 9 -17 -38 -22 35 50 48 60 81 64 60 89 100 104 122 114 104 105 92 95 111 123 114 103 103 117 89 79 93
138 139 124 76 51 52 67 76 81 101 107 82 64 43 18 13 17 46 59 57 58 62 73 97 102 91 108 131 137 152 148 134 108 106 98 111 98 97 99 96 91 114 91 75
100 86 74 95 104 111 114 116 110 86 77 77 69 61 57 57 57 65 67 67 65 77 75 100 98 124 136 162 170 175 170 159 151 137 128 113 118 102 101 95 86 97 112 99
108 104 117 136 135 131 142 127 98 84 77 69 65 68 75 76 78 76 71 68 62 96 89 83 105 126 140 157 199 194 183 166 143 135 143 138 127 108 104 83 86 82 98 116
121 122 121 126 122 100 85 75 86 103 82 74 79 75 70 72 74 76 78 88 78 100 104 115 127 139 141 149 174 205 178 173 147 125 134 133 126 109 102 86 75 67 72 78
125 128 124 116 106 121 120 112 115 111 105 90 76 70 69 70 73 76 88 92 113 151 129 139 151 145 158 160 191 205 245 201 133 115 99 108 108 94 98 90 82 69 63 68
128 132 130 126 125 118 118 124 106 90 79 68 68 68 64 63 70 78 84 115 131 126 143 145 135 127 125 158 161 158 168 99 92 125 95 100 133 145 115 86 92 90 53 49
157 159 148 134 131 137 144 130 97 79 61 41 55 56 61 67 86 96 131 116 106 119 136 141 137 137 143 146 142 147 170 253 206 164 122 111 92 135 122 106 101 93 72 52
164 164 161 152 147 135 120 102 71 54 36 37 55 62 91 109 123 122 139 139 136 139 138 151 186 193 189 186 217 276 302 264 190 150 142 118 115 113 107 105 104 98 71 56
156 146 143 156 135 110 83 50 30 31 40 47 54 71 88 94 102 114 113 133 134 154 161 147 137 132 133 149 149 221 150 137 172 142 136 119 111 100 95 94 98 102 84 57
177 168 141 120 98 70 53 42 41 41 52 72 73 89 96 100 92 114 112 108 110 115 117 116 107 96 56 100 117 135 86 80 100 100 108 114 104 93 86 83 81 79 65 49

GFSNGP_con_3kmhel_009.txt.gz
Helicity
35 54 60 44 23 -1 -10 13 -25 2 21 27 53 85 88 113 69 68 156 200 235 279 263 284 311 339 369 376 291 161 131 175 188 147 100 81 107 97 111 104 93 87 131 105
45 21 22 19 -18 -31 -9 -4 0 7 11 36 106 118 78 115 96 96 135 160 184 188 213 246 272 268 310 342 241 173 174 175 158 118 82 98 104 98 92 93 118 102 127 124
37 67 56 17 -3 -13 10 14 40 32 33 132 145 89 98 99 113 89 117 142 151 159 157 177 213 249 305 283 252 228 174 154 108 82 83 93 77 81 93 131 131 111 131 107
48 37 39 54 83 82 64 31 37 53 51 85 134 140 103 96 83 92 92 101 99 122 176 206 215 301 276 279 289 220 288 203 97 92 75 71 81 81 111 125 128 145 121 123
66 39 58 40 78 77 75 71 175 156 132 156 155 86 28 74 71 94 94 72 107 151 173 197 266 276 277 267 324 353 250 94 86 76 82 76 82 95 113 125 119 136 111 147
86 64 31 129 115 88 91 78 201 169 148 135 85 97 89 162 122 96 81 88 104 127 170 216 270 297 305 475 416 313 168 87 78 73 76 69 85 98 105 120 114 131 155 167
62 72 70 142 106 87 97 210 150 112 96 103 88 98 182 137 119 109 102 113 148 167 216 240 340 358 439 366 343 202 165 73 64 74 66 74 83 99 101 107 119 197 235 162
99 93 69 113 102 121 164 95 111 101 106 124 103 86 67 83 85 91 87 138 242 267 297 327 501 561 646 678 278 125 69 79 60 71 86 89 86 78 80 95 164 179 219 132
79 103 138 78 97 110 99 100 98 113 86 80 77 62 62 84 122 113 119 257 283 453 638 721 650 695 631 537 227 122 83 51 56 78 90 88 81 72 88 117 180 165 157 137
110 90 71 86 76 92 94 87 76 74 70 72 77 78 83 107 211 177 224 338 410 522 527 697 768 576 281 200 122 60 35 39 67 76 98 72 76 72 98 109 133 166 137 115
78 44 80 88 73 131 100 93 72 97 117 115 115 99 142 224 240 321 512 476 517 538 577 611 536 453 223 84 42 27 34 51 77 89 78 69 85 76 80 99 150 120 123 106
120 162 129 99 193 166 101 173 178 153 161 230 170 208 250 384 412 445 460 439 494 519 537 329 188 119 48 21 20 32 52 74 83 90 86 102 101 91 71 77 87 100 123 141
119 130 101 92 207 170 208 205 200 209 201 211 277 352 425 401 381 381 397 445 436 304 158 70 25 -16 -20 22 46 58 64 86 88 98 84 104 136 133 127 94 134 120 124 130
168 117 116 221 240 207 203 208 230 235 209 226 224 235 258 280 261 239 205 151 89 11 -30 -39 -44 -33 13 43 57 68 67 68 85 91 106 118 125 147 145 137 131 140 130 120
166 181 197 197 195 214 243 229 218 206 186 186 169 152 137 126 122 120 97 45 -4 -44 -30 -18 -3 24 67 71 66 74 78 101 112 127 131 129 110 113 137 140 150 132 109 162
195 182 185 189 191 197 200 199 205 178 155 144 136 118 123 117 113 96 62 42 30 37 51 64 55 60 62 65 73 93 99 123 154 153 145 148 122 102 100 131 144 139 136 117
131 178 171 195 199 197 176 132 108 118 132 153 158 146 126 117 97 86 82 70 88 70 68 80 85 59 70 74 85 118 135 154 227 239 200 165 143 130 105 106 116 115 120 127
221 240 219 167 151 134 119 162 154 153 159 146 139 127 131 125 109 80 69 63 66 69 78 80 71 66 73 76 96 141 178 195 237 263 225 203 181 149 140 130 115 112 103 89
149 168 149 156 148 152 143 146 142 121 130 122 120 117 96 89 86 86 76 80 76 73 100 99 110 100 91 96 125 151 181 205 235 232 216 185 159 158 144 154 112 97 91 93
143 149 155 166 160 143 146 134 120 133 142 132 125 135 132 115 90 80 75 73 66 96 130 149 144 117 121 123 138 155 175 187 210 214 190 153 140 139 152 152 121 97 93 90
156 148 140 141 150 148 144 140 142 155 152 144 139 127 107 76 73 66 78 89 83 145 116 124 133 141 156 161 163 157 177 167 223 232 188 224 162 115 108 134 114 94 95 84
143 148 138 126 124 140 140 138 145 146 139 117 97 81 74 71 69 65 66 67 109 130 113 121 130 141 160 145 181 180 166 146 133 145 215 176 113 73 100 124 115 123 106 89
160 161 151 144 133 124 134 156 139 137 123 100 88 84 70 71 78 80 78 120 128 144 131 136 195 208 162 132 138 138 128 129 138 141 190 201 155 116 115 170 235 226 177 143
180 155 143 130 129 149 162 156 127 117 98 69 89 74 74 63 74 89 126 128 156 162 139 189 157 143 142 136 132 136 125 210 303 302 361 321 227 115 109 105 133 151 143 136
158 144 140 134 149 159 153 143 118 120 106 84 80 85 93 95 104 116 126 128 132 126 107 121 128 135 124 127 125 122 123 142 171 206 219 201 99 80 95 82 93 118 109 100
144 157 160 183 171 156 141 120 104 90 76 75 76 80 89 109 112 109 111 108 97 96 94 99 108 116 121 118 101 88 86 93 103 92 86 88 101 95 83 75 81 101 105 96
184 170 149 147 149 131 113 90 79 71 74 88 63 102 116 119 111 102 97 92 90 99 107 116 115 113 104 95 81 72 80 76 76 79 80 84 83 84 77 86 90 86 95 91

GFSNGP_con_3kmhel_012.txt.gz
Helicity
48 23 48 93 33 -4 -15 50 -7 23 2 -4 50 73 100 116 120 72 27 135 161 224 311 444 532 473 422 438 462 464 426 248 245 274 283 206 136 112 111 148 104 58 39 73
72 62 76 20 58 41 45 20 13 -1 3 21 116 141 177 167 125 161 83 38 139 211 296 413 447 447 423 428 450 458 305 299 348 354 293 319 214 131 122 95 66 110 83 88
58 88 90 26 2 3 5 21 45 47 45 49 56 99 202 164 97 126 97 96 105 160 218 282 320 383 399 428 470 475 340 359 318 413 421 165 67 72 64 76 115 139 124 150
75 77 33 1 77 79 63 56 42 30 42 104 195 244 137 69 68 83 137 127 128 136 151 190 258 332 385 410 496 465 373 356 570 411 261 53 86 88 83 123 146 166 169 167
81 51 38 50 60 70 75 93 176 225 249 267 268 170 107 132 195 208 189 144 115 119 164 195 234 264 372 455 517 429 480 543 418 106 179 97 87 70 103 116 146 167 175 213
65 60 30 78 106 81 74 79 202 210 200 139 102 114 114 208 206 164 115 102 94 110 153 187 215 307 445 523 519 599 447 259 362 250 71 80 78 89 101 125 155 160 213 317
76 56 63 119 113 75 97 187 184 123 109 108 137 172 153 151 106 83 96 117 113 146 260 306 368 455 513 537 680 866 645 738 377 66 99 64 85 118 123 123 122 138 233 260
97 71 33 108 112 118 179 116 133 137 144 139 131 120 80 70 80 136 142 88 236 469 583 653 699 641 788 866 955 908 798 411 124 76 68 85 86 90 111 101 97 152 256 254
70 77 117 86 173 136 118 123 112 115 112 129 133 119 109 99 102 231 199 319 492 531 646 744 866 871 944 981 870 455 277 160 90 57 81 82 123 90 99 101 90 191 249 220
120 71 80 72 105 101 132 144 148 125 99 139 147 146 107 136 284 414 469 540 480 486 494 531 577 652 709 574 220 129 57 27 27 43 65 91 99 99 104 106 146 188 222 222
86 49 78 127 255 301 269 192 177 195 230 260 199 164 186 314 437 445 509 551 539 438 366 362 314 254 163 97 55 23 10 -6 25 69 78 85 94 131 136 120 143 175 169 177
108 226 177 231 293 241 288 296 241 223 276 262 240 271 345 399 413 349 285 254 243 214 178 147 108 66 56 29 20 16 16 48 71 89 98 94 97 107 141 103 88 98 130 135
227 202 174 235 287 306 299 285 284 299 296 225 230 234 263 245 233 195 140 123 116 99 74 83 85 66 41 36 44 66 70 77 96 97 103 110 121 142 144 129 96 97 103 120
170 137 253 317 274 257 268 249 277 265 235 209 169 173 158 145 114 110 100 87 92 108 122 112 96 82 69 53 60 95 113 97 109 121 104 130 154 154 142 152 150 147 126 127
208 239 321 320 334 300 259 229 235 202 167 160 149 119 96 101 107 112 125 124 135 127 114 100 85 76 70 68 83 95 123 138 138 166 179 176 167 162 151 131 128 155 160 161
276 270 281 292 290 269 249 226 227 195 164 184 169 161 142 137 135 120 127 147 127 116 98 101 85 81 64 66 69 92 115 143 174 198 213 201 210 212 211 180 162 146 151 160
240 219 246 258 254 230 227 265 240 201 176 151 138 127 134 135 139 158 135 115 102 98 98 98 108 91 90 80 84 108 131 158 171 219 262 253 263 285 270 224 198 188 150 136
356 343 276 219 207 226 200 186 175 160 144 139 131 137 148 154 145 133 122 109 109 108 121 118 139 98 76 86 105 126 148 169 187 202 211 262 311 275 235 221 194 188 176 150
231 278 261 222 187 175 164 154 134 128 138 139 147 155 142 138 129 119 102 101 99 118 145 102 80 77 86 109 132 161 183 198 201 212 211 213 244 225 190 155 150 149 147 179
250 224 185 187 183 149 137 136 114 149 156 151 139 132 114 93 81 82 64 84 108 124 139 119 87 90 120 145 173 171 182 194 198 191 154 152 154 157 337 162 166 146 125 164
175 166 167 154 149 141 137 125 132 138 134 116 116 119 112 92 72 71 84 89 167 141 115 85 116 178 139 137 122 125 138 137 142 138 125 126 115 113 86 158 130 101 126 107
164 150 130 116 113 116 110 111 117 120 126 118 111 101 93 100 82 90 93 153 109 139 101 129 162 127 113 127 126 132 114 117 140 136 116 105 100 89 233 271 184 127 157 185
166 149 132 104 97 97 95 99 107 130 126 103 84 83 83 72 88 86 103 128 122 117 124 141 120 131 139 108 112 121 137 132 130 154 159 201 264 325 276 295 273 249 168 163
162 142 123 103 93 111 142 154 132 110 107 115 110 85 89 83 94 137 140 151 153 132 124 130 107 104 113 101 107 116 120 106 114 117 127 145 146 185 184 240 161 144 109 92
150 134 113 87 142 167 176 163 150 159 136 125 127 113 124 132 132 123 129 123 124 123 110 115 108 81 81 95 103 108 112 98 70 67 70 76 96 107 109 104 94 93 81 70
158 186 197 236 204 179 164 153 142 137 122 128 114 117 132 141 137 126 118 115 113 108 104 93 88 81 83 91 97 97 92 98 73 57 50 47 53 45 46 50 53 59 63 61
250 196 155 164 170 165 147 136 127 110 120 135 102 91 145 155 140 130 128 111 108 103 90 80 80 88 83 80 83 86 82 79 81 52 53 56 52 60 71 68 69 67 95 100

GFSNGP_con_3kmhel_015.txt.gz
Helicity
56 47 47 40 48 24 23 26 101 29 24 70 71 55 145 75 72 91 164 138 99 273 455 570 623 646 583 589 628 633 600 546 425 304 336 340 304 293 199 166 121 88 72 30
75 71 62 84 80 55 54 41 52 44 70 39 40 98 163 181 196 186 180 111 87 131 327 466 528 569 540 490 568 608 586 515 434 488 561 559 470 404 263 128 79 92 101 114
93 113 92 45 17 28 30 34 36 24 32 85 215 167 183 191 188 190 143 183 133 89 90 228 334 297 335 428 541 590 571 564 649 693 728 755 615 333 105 33 85 109 151 168
89 109 81 11 46 59 45 94 119 164 150 158 184 239 284 265 214 203 186 191 166 125 106 108 149 217 356 482 555 592 635 757 806 819 712 658 580 189 97 79 93 114 133 164
96 85 52 51 86 67 68 120 126 171 215 182 190 168 196 137 149 190 212 219 202 138 112 142 206 271 432 537 633 783 860 816 829 703 724 680 346 164 71 60 82 132 148 179
121 94 46 37 62 95 101 146 153 160 163 142 104 108 45 71 111 140 154 159 175 215 266 200 224 400 563 688 808 805 907 821 781 876 783 353 94 62 53 82 97 126 166 208
109 79 61 54 84 82 121 95 174 152 120 117 81 36 65 110 157 192 222 186 200 277 353 433 533 815 897 946 935 846 825 888 866 609 320 101 83 66 36 40 106 127 150 191
110 83 33 86 126 105 94 178 145 131 119 141 153 183 194 176 188 237 260 282 279 319 392 497 578 701 742 868 839 956 935 816 478 143 138 99 77 24 63 88 113 114 150 198
62 40 31 84 121 96 133 134 125 148 204 174 192 173 195 223 282 273 295 323 310 292 321 349 382 422 521 503 526 532 510 264 128 181 88 57 21 67 93 103 124 111 182 208
96 59 61 72 108 210 263 311 316 271 221 210 222 230 238 257 295 363 370 315 250 230 216 195 152 153 144 181 202 169 151 148 114 66 37 49 78 92 113 130 139 123 160 176
77 76 226 337 373 371 445 443 376 377 362 318 294 287 280 282 276 266 239 201 192 190 182 211 210 196 155 143 140 166 142 121 108 69 60 72 87 103 114 127 155 139 139 183
124 162 266 284 322 328 378 392 367 340 362 373 334 329 291 259 234 227 224 191 195 192 191 161 141 131 139 110 135 154 137 98 88 92 96 103 105 103 87 111 112 116 113 157
221 273 325 344 380 375 403 368 358 352 302 304 296 284 254 222 215 202 188 154 134 116 120 145 128 127 113 96 87 89 104 108 118 108 120 118 126 138 149 138 114 104 98 104
311 347 314 238 270 334 340 337 346 336 315 293 225 185 170 154 125 121 104 76 105 122 113 99 103 113 109 86 93 108 121 127 159 167 166 154 159 156 193 172 143 147 144 118
302 350 450 468 415 336 296 287 318 287 239 208 237 193 158 142 152 162 157 148 131 134 144 129 119 118 105 106 102 99 106 138 172 206 227 220 236 265 220 187 190 203 203 193
351 384 398 387 336 315 310 327 333 267 236 225 194 185 154 151 167 167 151 141 141 151 133 137 159 146 126 120 111 107 114 115 123 149 180 215 239 248 267 260 275 283 258 215
385 321 313 302 299 342 333 312 267 239 196 167 160 153 175 178 184 182 161 149 146 143 140 129 139 113 93 97 107 95 95 108 131 158 194 214 222 228 250 256 270 298 250 210
322 335 296 296 290 287 306 270 204 161 160 153 141 147 164 165 146 124 114 102 126 151 165 133 110 95 99 106 128 128 135 141 147 160 167 172 178 178 203 191 240 225 180 182
412 366 336 319 275 287 229 177 171 158 144 137 141 143 120 94 102 95 108 156 165 145 121 90 81 108 113 138 143 127 138 151 152 147 146 142 153 147 131 104 56 106 155 185
364 333 316 304 265 197 175 141 154 166 150 141 137 139 134 123 110 118 114 142 148 94 78 104 120 114 118 134 148 142 162 153 121 116 125 131 122 119 134 105 75 66 81 220
304 240 201 201 213 197 180 154 153 154 143 134 132 134 128 112 124 114 128 117 119 85 85 143 124 115 122 138 122 131 137 130 105 103 114 111 102 166 220 176 99 35 67 95
138 168 173 158 151 148 126 130 128 124 120 117 113 125 117 109 101 101 78 112 98 108 130 140 106 121 131 130 121 124 124 104 102 104 115 116 115 133 150 188 214 276 395 386
163 157 141 115 111 106 104 107 105 106 103 80 77 86 86 85 92 88 101 119 118 137 140 141 129 120 100 104 107 94 101 86 80 103 114 123 122 103 73 49 61 54 81 188
176 158 149 125 108 98 112 76 93 126 126 90 87 73 96 100 108 123 130 154 163 154 138 149 132 120 92 70 84 83 74 86 70 71 88 106 99 71 53 56 50 86 126 115
167 151 117 136 190 187 186 199 168 151 153 152 145 141 136 118 100 102 145 151 154 146 130 122 132 121 89 70 65 76 76 68 71 57 72 78 74 58 45 46 56 61 71 94
208 260 289 287 221 197 181 168 163 155 138 134 118 133 163 161 163 155 151 156 155 141 121 106 107 99 81 70 65 65 64 67 71 57 52 61 64 63 57 64 58 52 59 33
324 266 268 249 199 180 169 154 150 145 125 118 100 142 174 173 168 159 160 153 149 130 123 115 106 93 86 81 61 62 54 54 66 61 39 48 55 53 48 47 49 50 45 52

GFSNGP_con_3kmhel_018.txt.gz
Helicity
85 97 99 113 110 83 67 72 130 51 101 33 24 37 34 51 145 153 100 131 173 267 282 353 435 541 632 698 618 591 599 600 528 461 414 464 513 488 560 454 366 308 125 155
131 147 100 58 99 84 72 79 61 54 47 47 189 197 244 251 213 194 179 178 124 64 152 292 453 527 591 562 539 558 564 540 481 476 551 666 753 777 826 782 598 170 109 139
112 151 120 69 57 91 62 42 31 54 61 200 306 314 289 279 274 255 231 190 137 85 67 142 261 398 420 413 454 477 537 486 569 681 834 863 911 1018 1065 714 222 85 112 93
114 182 117 52 79 91 173 139 127 177 188 232 246 256 263 202 200 230 203 208 220 202 112 67 131 177 270 381 492 570 624 672 797 931 957 983 975 1012 801 175 118 117 67 59
146 127 103 66 76 100 121 139 126 147 158 133 146 204 201 116 110 115 128 161 169 152 114 86 104 208 450 529 632 755 820 911 986 1051 1076 839 1032 631 154 94 124 114 69 69
147 123 75 27 90 77 123 153 128 148 140 130 110 143 85 109 124 162 185 167 141 121 123 176 177 352 538 633 798 944 968 1032 1219 959 638 706 443 135 149 194 106 44 66 107
182 122 95 50 42 89 138 79 152 144 117 98 102 64 85 135 209 192 162 142 118 174 196 216 295 474 650 762 879 941 1004 707 892 593 709 274 205 141 173 89 63 60 89 103
168 131 57 78 134 98 67 136 134 124 96 133 95 128 182 195 196 200 204 204 204 221 229 231 309 479 540 585 522 574 578 550 414 346 193 125 133 172 96 91 89 92 98 99
64 30 52 35 52 90 97 137 137 144 124 146 171 178 201 219 214 201 193 199 210 228 242 277 274 267 325 264 260 251 221 187 164 148 144 154 160 139 122 104 110 107 115 103
90 88 117 173 206 219 223 231 238 218 204 207 217 207 245 235 220 234 230 252 245 256 290 292 274 252 236 235 207 182 154 129 128 134 138 139 144 117 113 111 127 152 142 137
146 166 279 296 341 369 408 405 424 424 359 303 325 305 301 305 286 252 252 244 206 178 166 159 146 145 122 117 115 129 131 134 138 141 140 126 114 120 125 127 151 166 168 179
104 122 186 236 292 303 380 350 321 354 404 389 350 340 333 314 258 229 219 166 140 137 142 152 159 158 146 116 120 122 127 137 144 151 152 145 143 136 117 111 112 123 123 172
147 221 323 371 352 299 357 324 325 359 345 363 333 302 300 257 228 203 161 162 172 168 161 153 163 168 144 127 109 105 112 128 145 152 172 184 183 178 157 146 141 145 145 137
340 430 366 276 270 313 342 332 366 386 376 344 305 295 263 258 251 234 228 193 181 180 189 175 160 160 150 149 147 142 130 121 125 126 129 135 151 164 187 205 197 207 219 183
325 302 344 366 364 356 341 358 421 405 358 371 364 326 274 276 244 231 223 196 181 190 189 183 180 181 151 117 113 107 107 105 108 106 124 140 155 169 184 192 199 245 259 266
406 388 371 376 340 352 373 367 385 366 349 332 332 315 253 211 203 194 187 188 177 182 173 157 152 147 123 105 98 93 99 105 117 128 137 148 170 195 207 214 218 232 221 244
412 351 336 312 320 328 340 332 317 313 298 304 272 185 186 196 194 202 181 152 170 174 160 147 125 116 113 113 106 98 106 118 140 144 145 155 167 170 171 173 170 154 138 134
255 241 242 247 266 347 369 347 341 305 292 226 163 181 207 217 201 177 163 183 174 171 167 129 121 106 107 126 129 128 146 160 151 155 157 156 157 151 147 138 136 140 123 113
308 292 270 282 281 320 301 306 298 253 165 148 166 177 165 157 139 121 130 166 160 149 130 116 119 109 129 154 153 148 162 182 178 159 150 147 132 127 134 128 155 197 160 105
353 358 366 343 295 291 272 202 171 165 159 154 152 164 169 161 138 138 146 164 145 91 101 134 131 125 136 157 159 154 159 166 166 147 132 118 111 110 112 126 135 135 143 187
298 320 302 271 249 203 175 143 155 172 159 152 157 147 141 140 144 136 155 136 132 104 115 153 131 110 120 126 149 150 155 137 132 118 103 104 102 107 107 106 92 74 77 98
234 244 250 186 208 194 170 165 166 163 158 158 152 152 156 153 119 111 96 111 93 111 115 125 122 138 145 138 144 138 138 126 91 99 108 114 107 98 92 91 90 63 21 35
159 163 178 176 169 170 162 157 145 141 139 129 121 117 114 94 87 98 103 115 115 142 141 138 151 162 159 140 128 130 118 104 83 98 104 107 97 95 84 77 77 66 44 19
190 184 180 165 165 172 174 155 151 126 128 120 98 65 88 107 115 109 108 127 149 162 163 169 175 175 165 139 126 112 100 94 91 98 87 91 82 78 71 69 68 67 60 57
178 179 188 192 217 209 176 188 191 160 145 146 148 125 117 111 102 94 143 148 170 179 176 177 189 175 151 128 116 107 87 83 84 95 71 71 69 67 63 64 62 59 59 58
272 306 322 340 303 280 251 205 184 149 139 148 136 133 160 155 159 165 163 168 173 186 183 165 161 159 142 130 118 97 84 77 78 86 63 55 56 59 54 55 55 53 52 46
363 380 359 352 336 268 223 190 166 146 124 123 120 115 151 165 166 160 161 171 166 171 168 154 137 141 140 131 119 96 85 75 71 81 59 48 55 60 53 54 52 50 44 36

GFSNGP_con_3kmhel_021.txt.gz
Helicity
86 94 109 89 80 114 98 101 122 43 125 71 56 34 17 47 87 124 110 111 119 153 154 151 215 311 381 501 588 588 542 484 417 409 416 440 431 465 469 483 454 514 633 308
129 162 166 111 97 99 127 95 93 94 80 66 99 142 169 140 206 254 250 197 127 91 91 123 187 324 413 454 485 454 382 369 435 454 459 503 588 589 608 650 696 654 513 99
127 186 193 164 125 104 93 119 113 140 93 110 173 227 270 306 295 284 241 214 191 153 113 73 56 174 260 384 452 407 371 443 514 611 641 652 752 882 931 860 778 487 158 116
157 201 89 105 143 110 108 152 167 163 173 181 240 320 329 226 177 166 153 161 147 143 131 103 80 126 172 228 293 369 457 565 634 683 812 948 1005 979 1049 921 399 372 135 151
196 188 171 115 101 110 128 136 170 182 196 206 207 268 287 219 199 163 133 137 139 142 142 164 164 160 261 320 400 491 544 626 692 839 927 952 947 734 801 398 300 174 188 132
245 194 158 80 112 164 158 157 93 107 113 125 162 169 120 130 144 175 180 173 183 191 179 192 154 201 339 400 484 542 582 650 725 849 926 877 630 613 312 211 225 204 174 113
280 194 181 100 104 149 192 83 166 132 116 125 115 93 115 149 178 168 183 204 188 191 178 159 149 216 302 367 441 460 525 592 701 742 507 407 329 183 207 214 194 170 134 109
278 262 153 128 196 165 74 176 162 160 150 168 163 161 146 171 207 229 231 211 200 208 226 215 179 211 231 280 233 263 280 303 305 214 161 156 150 162 173 172 166 163 160 134
129 106 123 59 105 101 66 96 102 141 106 157 128 134 179 199 221 233 246 244 221 239 277 281 241 244 260 211 218 213 209 171 140 96 82 103 122 125 146 152 178 173 166 156
136 85 75 106 132 151 123 128 125 130 177 183 225 235 251 262 283 299 274 264 227 270 289 278 252 258 235 234 223 209 196 164 141 136 128 127 136 148 168 179 190 186 189 173
141 122 154 167 169 181 248 273 329 358 299 296 342 319 334 339 327 305 283 267 265 267 247 247 241 241 201 175 155 166 151 143 137 139 141 151 167 181 192 192 199 194 199 199
92 96 164 165 226 275 378 369 360 396 428 394 380 391 386 371 310 289 286 271 284 260 230 211 203 214 197 159 146 133 129 132 140 140 141 134 131 126 120 123 147 171 175 203
119 241 224 364 383 362 406 377 366 390 383 433 403 387 370 344 313 318 315 307 290 239 216 207 208 219 192 155 138 145 135 126 111 106 104 107 112 123 118 76 84 112 149 170
260 436 375 362 315 367 405 396 419 436 425 404 379 373 373 367 354 362 342 274 226 221 232 204 212 226 173 144 130 116 104 109 96 98 104 112 124 139 158 173 156 113 106 109
311 245 332 439 477 456 421 419 461 438 417 411 350 335 337 350 343 322 254 205 200 213 209 198 193 178 133 111 102 99 95 95 107 108 117 134 146 158 166 176 181 179 152 133
402 378 414 470 440 424 418 390 402 358 361 356 368 377 364 324 300 236 191 171 183 197 174 152 152 132 104 96 93 83 87 97 100 99 110 125 134 155 167 172 167 159 143 134
475 415 426 406 360 340 329 319 327 325 348 363 349 329 314 292 234 187 194 191 181 162 144 135 119 104 88 96 90 76 83 104 125 140 150 159 165 163 163 154 146 124 108 107
277 301 269 275 299 339 355 357 344 329 343 330 333 318 258 206 178 174 172 162 158 151 146 118 108 101 105 119 116 112 121 126 134 141 151 157 155 147 138 135 118 108 102 104
307 358 276 258 243 304 315 311 312 333 320 286 268 239 190 184 173 173 165 171 158 141 129 101 101 93 121 140 131 118 128 140 148 162 166 165 152 135 118 111 105 105 106 101
313 275 253 291 283 270 258 284 289 290 245 228 210 220 227 184 159 149 143 162 130 87 102 103 109 113 115 124 136 139 144 161 173 173 167 151 142 115 102 98 99 99 104 105
242 264 279 276 299 307 302 232 238 233 190 196 208 199 183 148 129 107 121 123 114 108 113 122 114 104 115 111 122 144 166 167 168 162 164 141 116 100 103 95 100 95 92 91
315 323 294 280 242 236 202 204 205 206 204 202 183 160 170 168 153 149 128 112 107 112 104 105 103 112 121 132 151 169 176 174 150 157 143 118 110 101 102 95 93 83 73 67
244 212 196 179 184 200 207 196 183 167 173 161 154 150 151 133 117 116 111 106 98 105 114 115 118 139 145 156 168 177 174 164 152 149 119 106 104 101 97 85 78 67 65 63
171 177 202 212 213 206 195 162 183 193 190 176 149 126 128 142 154 132 112 100 107 117 113 113 135 155 165 162 170 174 156 157 138 122 107 97 96 96 91 80 70 65 64 65
184 205 217 219 205 199 224 221 235 219 211 188 164 154 146 123 111 96 117 122 123 122 131 147 175 183 171 169 159 166 158 141 106 109 103 94 89 79 77 75 73 63 62 66
234 271 272 275 283 288 296 278 268 251 221 192 159 139 152 144 140 144 148 137 128 139 146 150 164 175 171 149 144 144 144 124 108 102 96 88 78 68 65 65 72 66 66 70
343 347 356 369 360 335 288 260 255 234 181 145 130 111 134 148 159 166 163 147 138 142 142 161 164 164 151 147 132 132 125 111 100 103 88 81 74 67 74 76 80 81 78 78

GFSNGP_con_3kmhel_024.txt.gz
Helicity
110 81 102 88 98 110 121 111 107 79 24 -15 20 50 61 45 79 98 98 84 70 69 82 101 115 145 161 218 301 380 380 347 324 374 355 378 404 441 461 455 466 431 570 619
185 194 138 131 94 96 101 122 111 97 55 61 83 83 94 126 175 207 220 235 219 183 140 117 82 103 153 227 311 378 387 355 340 321 382 398 448 460 455 472 522 566 700 815
83 153 163 84 120 141 153 194 183 158 88 146 150 150 137 197 232 259 276 284 269 236 212 205 155 113 118 171 231 266 277 286 324 395 454 472 499 579 663 718 698 724 942 343
106 199 61 117 154 156 163 145 160 178 156 197 221 253 307 305 279 296 260 237 215 179 173 185 155 152 143 148 183 227 258 296 352 411 424 466 592 695 685 712 859 864 471 221
154 141 155 150 188 182 146 83 107 131 204 295 334 393 372 276 245 187 145 112 104 123 145 177 173 134 152 187 214 280 317 352 353 382 462 581 701 711 799 980 441 357 231 225
213 169 142 118 138 212 219 128 132 158 162 188 191 205 138 137 136 133 118 135 168 193 202 205 155 120 150 179 236 269 282 305 350 432 535 494 632 613 394 234 201 209 203 162
259 195 172 126 154 206 238 119 210 193 134 121 112 108 127 125 148 154 176 187 195 222 210 179 163 161 180 186 216 199 240 259 232 212 195 185 158 138 144 149 157 154 146 129
270 233 173 210 315 245 135 108 167 179 151 152 158 175 175 183 183 181 207 221 208 213 199 163 155 198 232 228 158 170 159 161 168 161 160 164 144 128 114 116 117 118 137 134
207 173 189 156 172 113 113 109 100 182 141 198 219 180 180 189 212 230 227 239 214 204 237 241 242 219 232 181 176 176 181 182 179 152 124 109 108 104 113 118 136 144 162 165
245 182 164 126 107 79 89 80 147 146 181 187 246 223 246 265 262 267 263 272 263 291 304 300 283 275 241 201 173 176 193 187 168 158 144 132 123 122 125 132 149 153 163 168
220 194 157 81 79 89 133 187 237 257 235 269 330 297 294 305 313 302 308 320 313 318 301 292 287 303 243 194 169 190 183 175 161 136 127 120 116 110 124 129 143 154 166 184
219 150 182 103 135 166 215 228 244 347 356 329 340 346 349 362 344 345 368 345 347 324 315 305 302 267 237 203 175 164 155 131 112 103 101 95 90 87 88 86 105 118 143 192
137 194 211 222 301 275 317 315 335 384 375 411 372 395 404 424 398 405 381 366 358 330 312 287 250 238 210 174 139 129 108 101 83 78 73 67 64 62 56 58 88 122 148 160
288 360 289 234 227 331 404 430 458 477 443 420 430 427 440 441 424 403 386 352 327 316 298 234 212 207 161 129 110 112 102 103 80 69 71 82 89 100 111 122 111 89 95 119
323 259 243 365 408 433 435 468 533 498 464 456 403 398 397 425 418 387 357 340 333 303 239 199 179 161 123 112 114 106 82 72 71 68 78 91 95 106 109 122 140 147 140 120
344 314 340 431 473 473 490 493 524 462 428 395 400 403 405 416 394 378 342 285 262 227 188 160 152 132 117 107 102 90 79 94 77 75 72 74 87 105 137 156 159 164 140 120
360 358 409 471 451 429 441 420 410 393 386 381 378 389 400 412 404 393 334 251 212 185 156 141 130 109 102 97 85 61 59 64 72 73 90 108 127 138 150 157 157 140 114 90
178 248 301 399 448 430 444 421 391 381 373 367 396 409 418 369 283 247 208 172 169 164 147 127 113 100 95 90 85 78 85 83 80 83 98 128 139 143 144 148 143 130 108 92
344 380 375 401 361 365 373 367 347 334 372 409 434 381 273 234 223 187 161 163 146 140 130 106 100 86 89 104 101 95 86 85 86 109 132 139 144 149 149 145 123 110 103 95
387 409 431 448 427 398 394 370 364 443 397 313 262 228 219 183 169 170 160 180 148 122 108 102 88 91 101 117 116 93 80 93 111 127 129 140 161 154 134 116 97 98 101 94
347 378 391 384 376 377 342 361 365 308 198 176 172 163 171 160 147 131 140 143 125 94 96 89 90 93 116 111 107 101 109 117 123 128 148 163 161 136 118 106 98 101 99 84
298 321 310 304 329 350 299 257 224 197 185 187 192 192 190 186 188 196 164 128 101 93 100 100 110 130 127 119 114 117 125 128 124 142 173 167 148 121 108 106 100 96 87 73
285 279 269 236 223 206 200 195 185 181 175 159 160 167 176 160 140 136 127 115 110 110 109 113 122 134 133 135 130 124 124 131 129 153 161 146 121 109 106 100 96 93 81 69
230 218 211 208 206 202 205 168 179 184 193 201 200 183 173 178 179 152 138 129 127 124 121 129 144 143 136 123 116 113 117 131 153 152 140 121 114 112 107 101 94 85 81 73
192 202 202 192 199 186 183 194 230 235 232 220 207 193 178 153 141 110 128 124 122 121 121 131 142 147 130 113 107 112 132 154 154 142 127 115 109 108 102 101 96 92 89 84
218 233 244 243 232 230 224 218 230 226 218 219 202 186 179 158 149 144 142 134 125 122 120 128 134 133 125 112 116 133 145 155 151 131 123 110 102 101 100 97 97 99 102 93
270 254 247 275 265 245 232 217 195 185 172 165 179 151 154 153 148 135 130 135 132 123 115 117 122 119 127 134 140 137 137 138 128 126 119 104 96 93 96 98 100 101 100 93

GFSNGP_con_3kmhel_027.txt.gz
Helicity
73 61 112 74 90 102 115 140 135 8 118 47 56 28 31 27 70 108 123 133 122 106 112 102 84 82 110 121 120 117 125 133 155 180 193 211 234 316 348 355 379 404 481 568
86 74 44 45 65 53 49 147 96 71 82 61 88 76 65 58 90 164 210 228 234 227 212 207 173 142 137 132 125 117 123 120 129 149 159 203 268 299 317 351 412 451 703 713
104 102 100 -12 34 101 145 158 153 141 136 141 117 129 131 133 166 200 241 264 270 256 235 206 190 168 150 120 114 125 134 129 126 145 171 204 240 279 320 385 528 677 720 579
147 193 28 98 121 96 77 86 152 190 151 122 159 246 255 220 215 275 294 293 270 226 194 174 129 122 125 160 168 154 147 146 147 164 192 217 262 324 416 535 680 578 613 386
172 123 149 109 134 148 133 29 127 142 130 165 264 316 320 314 289 275 235 201 182 158 140 136 144 133 143 132 123 147 165 173 170 171 196 210 257 267 322 380 367 289 227 198
180 151 80 100 112 159 190 73 211 158 155 238 269 232 205 195 180 187 179 156 141 132 130 154 162 135 157 134 147 164 165 172 170 178 197 203 199 150 109 133 128 134 136 148
244 159 119 121 186 200 217 188 110 146 215 238 190 112 179 167 182 178 150 131 128 162 211 183 137 151 188 169 188 162 161 168 155 132 117 106 112 110 116 119 115 111 106 104
256 213 84 190 284 245 185 144 99 140 214 217 166 195 223 185 187 167 164 170 197 241 235 201 173 175 189 205 154 161 176 167 153 140 133 130 133 125 113 115 107 103 112 115
190 174 198 97 171 200 195 120 81 159 197 225 218 191 206 220 185 185 211 250 232 237 252 228 207 182 194 184 189 196 186 180 160 142 138 133 142 132 116 115 111 113 117 123
242 162 152 156 146 178 143 86 81 124 229 219 222 231 247 230 231 255 249 243 234 248 241 242 227 238 240 217 196 196 202 184 162 154 136 131 112 111 114 123 122 128 134 137
177 137 171 137 156 153 129 107 161 214 217 231 290 285 290 287 285 290 287 285 270 266 268 267 264 296 271 235 197 201 171 156 147 136 139 128 124 121 117 123 138 142 159 171
168 155 262 177 190 158 149 127 171 281 284 261 288 332 332 346 323 317 327 313 320 298 288 270 313 327 293 251 209 176 163 144 138 126 119 107 97 89 107 100 114 155 185 192
215 111 195 160 218 214 193 190 219 261 300 380 329 382 386 416 358 365 346 326 305 300 299 325 347 324 251 207 181 165 151 133 110 104 86 73 59 58 67 75 85 97 116 152
199 156 175 165 180 227 256 315 346 358 352 398 455 460 470 468 403 365 340 314 324 345 352 342 317 289 207 161 146 140 125 130 99 83 70 68 75 77 75 88 94 101 131 156
212 255 161 288 305 307 324 370 427 445 470 498 481 517 482 436 407 388 369 368 389 389 364 302 254 222 150 130 138 137 117 102 82 75 85 85 81 79 82 92 95 121 147 172
353 242 273 251 300 327 370 401 514 501 549 571 560 524 476 450 434 407 392 377 407 415 288 224 208 148 126 127 121 112 107 120 98 92 89 92 84 80 90 101 125 149 158 163
337 249 233 298 322 350 373 404 444 494 535 556 538 512 523 517 489 455 454 479 320 251 194 162 143 131 132 123 117 106 95 92 96 91 96 93 84 89 99 118 140 151 151 123
108 188 121 129 211 317 380 454 496 494 522 496 564 574 440 395 398 403 365 275 228 194 147 139 129 125 132 125 113 92 95 98 106 114 99 100 97 102 119 145 150 156 133 103
169 152 185 181 248 397 464 519 573 565 588 487 414 447 461 437 341 272 188 161 138 130 129 127 139 130 129 125 106 99 111 125 127 123 109 102 108 129 147 152 165 151 126 105
361 403 419 401 417 449 524 545 604 633 488 454 422 333 321 252 197 170 133 147 139 139 129 124 117 117 108 114 114 119 131 136 133 128 125 122 136 145 150 162 158 135 113 99
341 374 378 418 464 472 447 381 370 359 315 290 253 209 173 137 132 141 143 144 144 140 135 124 114 107 109 108 120 132 143 141 137 136 130 134 141 147 157 161 146 126 111 103
285 305 318 334 345 341 333 308 285 257 225 209 189 170 165 156 159 185 186 156 136 124 118 107 96 101 107 115 137 139 145 152 140 124 130 135 140 149 160 152 137 118 104 99
214 229 251 268 274 271 275 255 233 200 162 145 152 152 153 157 156 158 165 158 148 127 107 95 96 105 120 135 141 139 142 140 139 134 130 129 135 148 148 137 121 103 95 93
219 229 223 209 210 234 242 200 185 180 193 200 209 197 183 190 199 196 193 171 144 112 109 97 97 117 130 142 141 136 132 133 134 119 113 118 136 141 136 124 110 99 91 79
193 192 189 200 222 207 205 196 211 212 220 227 227 225 221 217 184 154 149 142 128 114 103 97 114 145 152 145 140 133 118 119 117 116 119 130 138 135 125 112 99 88 79 70
209 204 212 220 176 152 148 154 178 180 171 171 162 150 153 157 157 148 140 131 120 116 115 114 125 136 138 136 131 133 120 109 112 121 125 131 129 121 112 101 90 79 71 68
228 224 226 260 254 213 187 166 152 154 149 148 150 131 138 141 135 124 117 116 122 125 125 117 121 122 119 129 126 122 121 123 121 125 127 127 119 109 101 90 78 70 66 63

GFSNGP_con_3kmhel_033.txt.gz
Helicity
36 14 7 25 46 22 2 12 14 11 14 9 15 45 37 105 117 77 64 78 90 114 135 125 132 147 179 199 216 190 181 158 199 154 148 156 169 160 147 166 167 177 194 193
31 22 20 12 11 16 0 23 -1 -9 -25 25 26 39 55 41 80 80 72 84 100 156 191 212 169 211 213 209 195 181 206 227 200 192 185 212 252 281 256 230 217 186 164 168
74 34 30 10 24 1 4 -38 -8 -11 -24 24 16 43 49 31 104 125 120 89 116 169 213 254 256 229 246 226 221 212 200 185 178 198 226 242 239 230 239 228 212 225 220 256
123 131 112 41 17 12 7 -30 -20 -16 -7 20 40 54 112 119 165 200 180 193 170 198 224 263 280 276 240 204 187 181 178 178 195 225 235 226 242 247 229 205 175 154 147 134
117 96 75 28 28 42 12 5 -3 -23 25 24 51 154 152 149 208 225 204 197 243 281 299 295 259 218 183 171 162 167 186 215 222 198 210 228 249 237 203 183 159 157 148 141
110 72 30 27 24 33 4 12 15 12 15 54 96 124 116 197 207 288 287 271 274 292 273 241 203 167 161 168 191 215 219 201 197 222 243 271 269 245 227 192 185 154 147 122
117 100 57 42 3 62 40 -36 28 50 62 63 90 93 155 202 230 224 250 267 266 237 210 179 159 167 195 207 218 193 193 219 257 267 248 225 191 170 158 138 112 113 98 105
116 77 39 79 132 84 40 1 55 50 36 50 112 299 233 204 206 268 260 239 216 201 184 175 182 192 210 219 193 181 186 220 230 212 182 176 178 156 150 160 157 149 159 158
118 94 86 72 46 34 -14 31 60 42 47 76 259 266 238 208 229 252 232 216 193 203 222 225 222 217 229 199 184 184 217 234 242 239 221 198 194 188 199 187 177 193 175 175
136 112 67 53 16 24 34 27 39 60 71 101 210 236 218 203 213 241 242 226 228 240 249 269 268 262 230 210 194 208 246 266 258 238 216 204 189 192 208 194 185 182 180 179
54 65 66 64 46 14 49 68 81 88 98 133 177 195 201 206 238 248 248 264 255 273 305 314 310 295 269 251 230 244 265 272 276 266 250 228 224 214 196 196 196 185 194 172
70 12 76 20 44 19 25 46 50 65 140 169 161 160 190 222 242 280 312 293 304 322 353 380 357 346 326 293 275 279 298 307 294 268 245 207 184 140 185 189 163 168 174 181
19 58 76 46 68 77 28 31 62 81 130 127 161 179 207 268 284 337 334 334 353 371 407 404 407 402 380 359 341 331 304 292 275 239 216 196 163 155 151 118 91 96 117 120
42 56 37 45 47 70 94 59 112 100 135 165 166 214 250 307 390 389 381 385 409 449 466 484 488 486 393 354 372 348 312 295 227 187 164 146 159 160 156 157 140 127 89 128
81 35 86 110 85 71 99 135 116 132 199 246 285 293 330 377 405 419 438 500 506 539 613 615 619 586 502 413 367 301 229 192 162 147 150 151 149 144 138 134 132 137 140 133
100 76 40 47 67 78 79 74 112 193 264 353 358 380 421 417 520 684 637 608 645 772 818 764 707 534 393 300 202 208 191 158 135 117 117 131 137 139 140 138 142 154 148 171
37 25 30 34 25 35 82 94 148 240 320 390 518 528 589 779 965 1077 1079 948 795 772 772 745 700 401 238 198 167 144 121 110 113 107 128 134 136 135 139 144 150 152 155 210
70 52 53 32 21 78 138 217 351 334 382 546 774 897 913 874 709 614 689 804 801 672 478 337 245 229 198 162 140 126 120 118 123 136 132 138 147 140 152 155 150 159 170 182
192 157 129 159 157 205 292 400 487 520 565 709 809 698 616 544 531 507 474 488 450 333 252 208 195 175 147 142 133 138 145 146 136 135 145 140 133 158 159 162 171 177 176 178
201 244 281 305 324 288 351 405 464 550 516 460 457 485 490 462 476 398 331 355 273 217 180 150 132 125 137 166 168 156 151 150 153 156 163 161 165 169 160 161 166 176 180 177
189 218 267 329 396 363 328 302 341 367 376 406 400 369 377 377 315 246 243 241 199 160 143 135 137 140 156 148 132 155 159 161 166 174 175 173 166 165 178 182 190 186 181 176
282 284 267 284 334 381 372 353 331 293 297 307 287 264 278 265 255 274 197 142 108 101 116 141 164 179 157 123 148 148 160 167 174 179 177 177 179 190 206 206 204 192 187 172
208 225 238 251 234 230 285 294 275 259 259 238 226 212 201 171 130 103 114 111 111 119 121 151 131 127 130 116 155 158 168 171 164 171 174 179 189 209 208 202 193 180 163 157
199 205 183 169 183 219 233 204 199 190 177 168 163 132 106 106 136 146 145 144 126 134 174 147 135 135 130 146 154 161 158 164 169 168 178 190 197 194 183 173 157 148 144 133
201 188 184 185 184 148 134 115 115 114 109 109 119 129 137 146 114 111 120 125 126 116 134 134 138 136 123 151 161 160 159 169 205 229 206 191 179 167 157 152 143 137 134 119
161 157 164 188 155 124 106 106 120 116 90 86 90 90 97 99 99 106 127 139 141 144 179 148 161 144 137 150 166 159 168 174 175 190 195 171 158 144 142 135 129 121 111 102
150 142 127 140 144 133 127 129 112 118 129 123 101 100 107 111 108 126 123 140 149 141 138 148 136 153 147 168 157 160 169 165 178 184 166 148 137 133 129 121 113 102 91 81

GFSNGP_con_3kmhel_036.txt.gz
Helicity
71 27 26 59 25 33 -7 115 25 74 35 57 52 132 50 100 56 87 114 107 87 139 218 176 193 213 222 245 248 223 234 333 330 207 177 199 232 231 236 235 256 272 287 286
70 71 60 32 6 55 92 -23 -16 -1 22 17 10 107 105 69 89 71 90 128 110 115 256 219 215 273 316 299 300 294 311 321 310 232 225 207 249 246 224 221 218 233 213 209
139 39 88 38 4 17 40 45 25 13 -23 23 -6 38 45 96 109 147 150 170 166 220 299 259 287 365 367 290 292 350 359 286 286 303 312 293 281 294 319 300 243 219 216 216
129 170 103 120 48 68 60 54 55 49 -48 11 27 37 79 138 90 165 282 307 313 343 325 373 345 299 273 277 272 256 273 249 234 220 227 252 313 326 294 278 274 253 237 224
204 168 125 101 73 99 84 50 35 -5 5 -10 41 13 131 161 151 212 319 424 394 335 306 322 300 265 274 269 260 246 225 202 206 240 282 285 255 236 220 195 193 184 149 131
224 230 166 202 118 21 12 54 59 33 28 49 49 80 135 122 177 320 435 359 316 354 316 291 290 296 274 250 237 230 223 232 242 259 284 316 312 288 271 257 242 231 243 217
218 273 201 122 58 36 38 -19 33 40 34 40 67 120 96 161 340 395 349 350 377 339 294 270 277 272 271 250 239 239 251 278 335 368 276 236 215 232 233 223 218 199 167 147
264 205 163 85 72 38 39 116 75 33 49 87 104 122 154 284 399 350 323 323 319 306 292 269 253 249 248 252 274 325 337 303 258 223 194 202 203 182 177 218 217 209 221 211
273 237 149 72 27 54 71 67 39 57 59 64 144 157 216 298 342 298 301 310 273 308 271 242 233 235 281 288 271 265 262 235 196 188 231 260 278 266 327 286 293 265 246 232
159 155 182 125 62 17 47 26 18 50 62 78 168 201 241 270 311 344 311 246 284 299 289 293 283 281 304 301 287 290 273 259 267 316 325 315 306 344 334 340 298 262 255 261
26 87 170 272 73 109 59 70 66 96 120 86 192 240 252 264 307 290 251 276 323 331 322 327 370 391 341 335 330 354 364 360 347 332 331 395 390 359 273 266 246 249 248 247
80 18 13 27 60 39 55 118 58 62 63 71 197 273 246 257 278 232 276 354 367 375 392 409 411 413 393 406 431 421 433 437 388 398 395 341 278 287 269 163 163 188 204 206
-6 11 25 12 27 24 1 43 175 53 53 75 192 250 249 269 257 256 389 440 418 442 453 465 466 538 562 548 516 522 484 449 453 457 422 384 343 238 181 128 106 114 125 135
97 40 68 15 41 75 54 59 101 81 87 121 227 268 300 352 380 438 499 470 505 542 559 619 711 750 688 680 645 584 573 598 571 469 362 282 235 210 185 180 139 114 78 54
138 132 134 98 68 62 51 93 108 103 113 159 295 331 398 503 531 580 608 624 661 685 752 799 768 763 671 600 650 674 625 581 497 368 279 217 187 164 164 163 155 165 171 129
205 141 106 58 40 45 52 75 96 148 173 293 418 503 586 585 670 744 791 855 911 956 1012 941 841 804 664 625 624 676 651 446 272 205 180 173 153 167 177 175 172 175 186 217
159 187 187 138 51 41 70 98 134 196 313 422 544 742 1043 1214 1244 1240 1253 1212 1230 1092 814 744 795 888 843 577 281 207 183 210 185 163 178 174 169 169 174 172 185 186 184 197
166 171 154 149 91 90 147 291 368 482 558 609 864 907 1014 1016 961 960 942 843 731 738 742 639 493 416 355 299 257 213 192 163 152 159 151 164 179 167 186 192 190 204 223 218
111 153 155 182 233 216 219 227 326 427 502 562 708 804 805 817 746 682 600 537 458 413 342 277 255 252 239 227 165 138 129 134 140 142 154 166 146 177 206 204 230 221 210 207
158 140 157 219 298 281 264 282 303 403 441 523 604 667 633 561 464 416 375 362 275 221 191 178 166 135 125 123 130 132 143 139 140 147 157 155 166 217 190 193 203 207 213 202
245 269 320 330 385 455 464 476 509 537 428 473 466 399 351 297 266 223 213 193 150 124 118 100 93 94 112 112 100 122 136 149 160 166 176 178 186 188 218 222 227 219 220 231
269 297 336 359 370 370 323 290 315 274 259 277 271 234 219 201 173 168 129 89 53 51 80 115 128 161 131 123 138 141 148 155 164 165 177 200 211 213 222 227 236 236 238 215
205 206 212 222 202 200 227 225 207 197 192 181 171 158 154 112 52 64 81 92 102 121 139 130 135 142 138 118 144 149 165 167 169 177 176 175 203 226 219 212 212 194 175 171
163 173 158 141 159 197 206 164 156 154 151 155 156 115 70 84 118 119 122 129 142 158 134 112 120 128 120 130 157 169 171 174 172 188 245 264 237 221 216 197 180 170 161 162
184 179 169 157 153 119 99 80 79 86 98 113 126 139 176 170 129 109 99 111 154 138 107 80 97 112 123 137 139 148 150 159 185 176 175 184 192 198 182 166 161 154 147 127
159 156 165 199 179 148 118 124 161 156 70 87 100 99 107 111 102 94 90 106 110 128 116 102 91 80 119 149 152 161 154 159 167 176 185 184 175 156 146 143 137 130 127 118
188 154 135 144 138 130 132 155 129 134 171 108 90 92 97 85 94 103 130 138 131 150 153 142 136 129 122 96 83 103 119 134 151 156 144 144 133 117 108 103 101 94 81 73

GFSNGP_con_3kmhel_039.txt.gz
Helicity
83 78 98 122 64 26 -14 80 120 96 62 55 20 161 15 120 106 135 81 87 155 201 194 199 188 209 260 314 403 353 399 384 378 380 360 315 275 275 284 292 290 300 341 371
82 102 84 128 140 33 47 59 84 139 118 50 45 38 174 133 80 81 109 95 187 238 296 333 379 330 302 341 387 371 356 352 346 321 312 310 289 278 288 275 245 277 302 296
71 181 193 103 122 111 64 2 50 130 156 88 67 130 203 126 120 97 178 199 253 291 314 441 482 420 383 370 408 423 427 445 425 404 374 355 336 312 267 270 254 249 251 246
186 184 179 25 49 61 97 35 -22 79 124 68 59 71 128 84 131 57 248 310 360 399 477 575 607 506 486 415 385 399 431 434 412 395 396 393 357 335 321 268 241 235 252 264
258 238 141 104 213 75 107 58 30 44 107 61 62 78 188 159 172 242 330 393 439 511 615 679 626 508 462 396 394 387 367 358 342 360 371 341 311 286 285 281 257 249 234 249
283 187 158 58 155 123 132 124 110 94 96 92 117 128 108 242 248 283 357 403 494 568 624 573 506 479 430 403 372 339 328 324 308 311 306 284 273 270 253 245 255 261 277 283
236 238 176 95 98 76 161 135 78 83 78 87 46 82 135 225 262 267 341 404 544 560 491 480 503 463 408 388 371 344 332 365 378 339 317 328 327 323 314 313 308 272 280 330
126 238 166 241 168 103 130 55 42 25 96 73 58 87 138 175 202 265 336 428 524 507 476 477 466 440 418 382 369 422 430 384 368 364 337 331 316 291 289 295 294 279 375 428
-85 158 138 244 25 128 148 25 106 52 59 73 126 103 83 148 242 322 411 506 517 494 488 462 450 414 424 398 413 411 403 366 335 318 305 256 271 320 355 319 344 369 420 385
6 12 127 90 -23 110 52 85 276 1 28 101 102 163 178 234 326 408 472 528 514 519 505 467 427 421 409 399 404 406 381 365 374 407 463 474 468 458 448 436 439 430 427 409
79 -1 144 273 82 213 163 143 265 236 73 123 111 123 184 295 363 427 477 528 493 495 477 477 476 458 413 412 425 453 499 504 539 573 571 553 506 422 436 449 365 382 347 309
-24 -50 -47 80 17 -79 203 38 163 158 62 124 62 164 284 328 376 464 501 504 523 524 568 580 587 517 454 437 491 582 613 624 593 539 530 501 481 530 509 403 329 289 249 211
19 49 30 -5 14 59 18 15 38 14 9 15 119 213 312 347 396 473 506 580 630 662 669 733 800 796 707 646 644 652 646 635 679 672 566 485 483 428 388 262 197 152 154 155
139 68 33 77 69 69 48 29 43 54 51 67 170 217 331 379 455 511 607 708 814 898 896 886 878 845 754 693 699 668 697 689 615 579 600 631 600 465 315 264 218 171 100 88
303 202 111 72 86 98 43 48 68 108 106 180 326 395 507 558 615 719 841 984 1060 1091 1065 1044 1012 924 805 776 724 653 579 560 604 685 679 561 415 304 269 247 229 198 154 179
237 196 254 220 179 91 118 138 97 198 319 420 590 680 816 941 1010 1087 1117 1137 1289 1255 1163 1135 1019 761 695 632 588 582 640 701 522 318 276 255 245 240 220 201 193 195 209 206
100 147 162 185 137 160 138 118 146 239 375 572 657 737 966 1103 1202 1239 1257 1261 1293 1224 1077 962 870 683 584 603 579 420 284 243 242 225 195 166 151 163 169 179 189 204 214 204
111 79 38 67 108 126 163 186 226 254 313 375 520 733 927 1096 1158 1225 1210 1132 1012 853 633 457 375 345 340 319 284 261 241 200 163 140 131 138 137 140 165 186 211 229 229 198
119 125 137 173 146 102 135 173 227 286 355 439 562 671 740 773 750 719 659 591 486 413 319 302 299 263 232 190 163 142 131 119 114 109 126 142 160 183 201 206 199 203 214 222
232 251 260 282 333 286 231 250 283 375 403 462 501 603 619 497 430 410 391 392 299 224 167 144 138 143 139 132 107 101 110 124 145 151 141 154 170 181 188 209 229 227 232 235
265 283 310 319 356 378 374 348 376 447 458 460 436 432 389 326 279 241 224 201 150 126 134 142 109 101 96 104 93 102 110 121 143 162 174 184 191 199 207 218 231 262 261 252
188 203 222 229 254 280 277 262 266 265 258 229 193 165 165 164 151 155 120 72 49 105 92 100 108 121 110 125 120 131 144 156 158 161 170 179 193 230 245 246 241 234 231 221
119 115 119 134 131 125 160 176 169 160 163 142 132 128 112 86 63 67 100 105 100 102 84 79 101 131 156 156 146 151 159 172 188 203 226 258 273 261 247 242 229 207 197 191
117 120 108 91 101 135 153 121 125 131 133 151 143 101 80 79 112 113 123 128 130 116 88 84 114 147 162 151 165 179 192 194 199 213 213 211 219 228 232 224 211 178 172 162
194 205 209 189 183 156 133 99 98 112 130 152 159 151 154 125 82 73 92 97 82 79 57 85 116 150 132 142 148 155 172 169 162 152 157 159 156 158 161 168 158 154 146 137
192 175 172 188 171 164 159 164 179 123 83 92 97 97 102 101 96 94 109 120 135 147 113 87 94 99 82 92 101 109 117 131 128 121 127 129 126 115 106 108 113 105 82 62
160 147 127 126 129 128 133 161 167 164 153 125 127 139 145 145 146 123 125 121 134 125 115 107 111 126 122 111 103 99 97 92 94 101 92 84 70 67 92 73 55 43 40 41

GFSNGP_con_3kmhel_042.txt.gz
Helicity
60 53 87 66 101 113 143 208 201 148 126 134 130 133 84 74 121 89 63 93 162 150 191 211 183 188 166 186 210 346 411 345 249 174 166 170 356 412 328 264 263 281 330 332
-15 89 77 56 2 102 79 148 159 121 112 118 120 138 127 105 35 115 139 101 170 129 212 303 292 305 323 304 282 320 295 236 250 249 291 324 317 349 339 340 354 349 332 336
-60 171 139 95 -74 58 106 84 107 108 79 64 59 101 116 68 83 104 98 95 155 201 238 346 394 402 383 438 443 408 336 370 389 399 378 397 394 401 368 347 324 299 308 317
4 186 143 97 54 78 76 103 132 125 82 63 79 89 98 105 118 168 71 198 187 226 323 348 485 513 504 523 443 481 459 454 445 439 444 415 370 328 339 290 293 296 309 297
-34 232 168 106 109 176 163 92 84 98 82 86 54 90 126 79 117 82 184 239 288 290 394 527 536 556 580 583 449 402 378 367 369 379 369 310 320 307 307 331 317 308 276 274
-65 -113 175 83 69 96 71 96 127 74 66 63 115 126 113 85 68 50 212 335 442 440 471 504 543 612 637 550 466 393 351 344 318 315 307 303 279 284 294 301 297 285 305 338
34 -81 83 62 219 55 135 89 136 99 120 143 145 112 110 166 225 244 303 339 333 354 436 505 571 615 541 473 402 357 373 393 363 308 272 248 274 288 296 332 366 394 443 439
-70 -71 12 84 124 221 265 187 167 69 48 218 74 102 110 206 220 240 268 284 327 412 431 488 521 526 471 455 429 415 385 358 323 297 279 283 296 294 327 370 429 429 456 473
23 8 0 1 26 127 160 118 124 210 243 130 65 38 78 119 155 142 203 251 307 420 480 468 468 460 477 436 434 412 385 347 319 309 299 306 336 362 368 387 404 410 437 466
59 -10 -50 -28 -4 94 49 109 199 273 241 198 175 101 92 178 225 248 300 325 383 485 502 515 470 457 449 427 414 386 372 375 390 424 441 440 434 394 391 405 429 423 435 451
57 18 -3 -32 -19 11 52 -13 12 168 250 235 115 95 71 181 258 319 376 400 441 492 523 494 452 467 452 429 431 445 458 453 466 473 486 533 581 535 531 483 425 429 428 409
41 22 -3 2 -46 12 52 -22 -54 60 232 196 178 135 117 167 288 365 418 472 510 527 564 546 542 507 479 462 481 505 509 497 496 520 528 530 538 581 570 473 443 405 365 339
130 174 55 42 34 45 19 -4 24 39 100 136 65 85 106 260 343 411 457 470 544 667 699 691 695 661 562 538 562 591 576 553 552 535 518 496 463 440 462 478 456 422 320 243
287 219 102 134 84 113 95 92 46 35 88 90 92 82 225 290 427 542 564 636 724 775 822 832 842 761 634 633 657 620 615 595 574 557 535 512 484 481 519 590 473 311 316 258
291 165 103 105 174 176 129 107 132 190 194 252 283 341 465 624 747 732 749 844 935 983 929 933 929 856 797 784 785 711 662 630 595 561 531 529 557 470 309 276 235 185 174 191
130 154 186 159 157 179 142 167 142 174 255 340 498 660 707 794 853 882 924 920 1114 1119 960 962 944 883 894 852 765 616 495 418 410 427 360 292 275 250 232 216 204 190 173 153
113 157 186 147 109 141 170 153 162 197 238 347 465 599 733 819 928 1005 995 1088 1158 1147 1080 991 877 655 492 415 401 382 355 350 335 303 246 222 221 209 176 162 170 182 193 191
83 60 69 107 115 76 121 143 173 221 251 293 350 468 635 824 949 988 999 949 966 986 826 561 427 360 333 316 313 298 282 239 205 194 177 160 140 140 160 174 189 197 198 198
136 127 129 203 188 171 165 212 271 282 271 353 494 613 634 674 676 647 634 660 607 513 371 275 287 291 290 263 207 171 164 157 137 123 127 142 153 172 184 186 191 208 223 238
182 195 210 242 284 270 288 317 318 405 427 478 528 574 562 514 430 416 412 408 312 199 184 222 242 240 192 161 133 111 119 133 138 133 146 147 156 173 183 211 218 221 228 239
234 242 267 288 313 317 299 293 315 372 377 361 338 345 307 256 237 193 203 196 193 177 168 173 150 135 122 117 117 120 131 143 146 146 152 161 171 179 187 198 216 221 228 234
185 192 199 181 186 204 200 188 181 177 184 185 176 168 178 180 165 183 160 112 95 118 113 132 144 164 133 132 120 132 139 148 157 169 177 187 205 218 230 236 235 212 194 180
131 129 146 169 163 161 189 202 190 171 174 159 152 143 142 125 101 87 107 96 87 93 85 94 131 164 176 152 146 143 133 129 130 141 156 168 179 188 188 183 181 179 174 169
149 149 139 114 114 138 157 132 130 138 138 141 141 119 96 101 134 109 94 97 95 103 103 95 111 125 109 98 111 120 129 138 141 131 129 143 158 168 173 173 177 175 179 167
117 119 124 122 125 104 87 80 104 118 130 138 149 146 134 108 91 68 68 82 88 84 91 113 127 134 117 111 105 114 108 98 92 106 116 109 110 117 118 128 127 115 98 82
137 133 135 146 122 115 116 125 126 112 108 132 151 147 152 130 118 109 119 128 118 107 95 100 93 85 78 80 93 98 100 106 112 103 98 94 90 92 85 82 73 60 47 51
155 147 141 165 165 143 131 129 126 119 104 99 129 133 136 134 136 132 133 116 94 73 62 70 70 71 62 72 82 79 68 64 71 70 70 77 76 61 62 53 46 45 49 53

GFSNGP_con_3kmhel_045.txt.gz
Helicity
125 97 79 79 137 193 188 120 146 76 99 133 133 108 89 94 93 100 96 59 71 64 85 197 178 188 220 224 259 354 400 430 450 417 406 351 329 291 296 305 311 333 310 286
7 36 75 50 101 88 138 131 119 141 137 120 44 139 108 90 125 122 93 121 109 103 107 190 163 148 169 179 219 329 380 381 406 448 447 373 292 322 333 321 347 377 365 371
-50 -87 -29 60 -48 31 44 49 61 92 98 125 126 98 100 86 95 145 136 115 94 140 205 187 204 222 218 228 287 291 299 367 354 391 352 363 342 329 318 392 384 363 352 350
-219 -206 -180 -111 47 23 88 52 35 74 54 44 95 66 88 116 114 114 90 106 127 110 203 274 305 323 363 340 364 375 340 355 341 352 362 372 389 370 378 360 350 353 354 310
-39 -109 -113 -231 -61 -36 15 135 241 83 107 94 72 19 48 30 104 106 105 120 119 112 235 379 422 440 415 396 382 433 443 404 343 363 376 365 366 376 404 397 384 332 282 320
137 29 -82 -41 -77 110 39 67 116 101 115 123 130 82 65 74 83 71 102 96 125 158 273 393 449 477 448 405 436 470 414 386 329 291 287 303 328 365 387 374 336 372 400 387
111 42 21 -75 -7 -37 -16 66 196 90 110 152 167 151 165 90 50 115 127 189 254 250 310 371 423 446 452 461 472 442 420 403 354 301 310 337 356 340 335 358 430 464 497 522
133 95 -1 -22 60 -57 -68 302 316 123 106 101 146 153 136 79 71 148 212 250 247 269 311 321 372 430 456 501 479 435 411 418 395 372 359 358 367 360 388 434 455 465 518 563
98 94 52 -4 15 -18 -46 -72 338 198 177 151 166 97 152 206 102 101 156 218 234 266 296 343 406 429 513 449 434 430 434 422 426 420 397 372 387 409 430 409 421 438 457 482
134 75 13 6 17 -16 9 13 346 221 172 133 77 108 98 118 112 84 145 207 242 299 346 402 416 419 382 359 381 421 450 468 449 459 473 455 450 412 399 379 378 383 400 429
80 24 33 31 54 42 -28 -22 24 137 65 44 107 148 154 167 176 103 114 167 266 324 387 393 394 411 386 372 401 453 476 480 477 458 455 484 506 426 388 359 303 327 353 376
91 82 40 26 2 -7 64 -5 -36 28 85 38 43 95 117 130 146 224 213 156 283 346 401 410 421 444 427 399 399 432 451 433 399 401 414 433 468 550 564 487 472 435 399 398
95 114 82 40 56 124 98 109 78 31 30 55 93 70 75 98 148 190 185 272 310 403 445 446 480 513 458 428 436 421 384 357 359 366 367 379 402 421 477 568 534 491 460 415
166 135 95 104 84 108 83 74 60 81 97 123 105 194 202 248 375 403 391 305 335 422 488 525 592 599 534 525 530 507 499 477 465 449 445 459 463 449 393 352 366 373 306 279
197 120 90 99 104 122 101 109 105 104 111 183 290 352 362 380 541 518 501 555 683 733 699 683 735 714 637 633 676 638 656 665 628 561 474 400 372 374 346 307 277 251 229 222
226 121 107 103 105 118 138 148 138 162 147 145 219 315 426 542 609 636 693 745 858 811 816 868 941 820 850 796 641 547 492 454 368 316 303 300 286 271 267 259 253 236 207 190
84 47 105 105 98 123 153 140 128 148 202 199 231 294 407 524 659 701 747 805 897 886 813 819 767 657 580 498 398 338 304 291 276 286 306 309 298 275 246 222 205 196 181 192
140 136 135 135 124 121 153 172 134 179 222 188 250 343 415 481 491 546 631 703 797 876 816 682 543 458 388 314 265 241 247 270 293 290 258 237 217 203 197 176 173 170 169 188
119 120 125 136 116 135 158 168 165 228 260 305 444 538 553 547 535 544 551 611 621 603 500 368 316 284 272 264 250 240 234 216 201 180 155 148 147 145 148 160 178 199 215 226
167 193 201 260 263 239 234 227 273 337 350 400 467 529 550 533 466 428 419 418 351 247 227 232 219 211 201 187 168 144 147 143 132 136 141 142 149 167 175 195 191 189 187 183
278 290 309 361 357 345 326 282 274 310 285 294 290 268 238 224 221 193 222 222 209 193 199 208 162 137 122 116 119 118 120 128 140 146 155 163 175 180 180 175 174 175 173 159
164 159 216 213 203 208 191 173 167 174 181 178 170 153 162 171 166 183 166 118 102 135 127 125 121 135 119 128 112 122 131 135 127 124 132 140 150 151 156 160 166 162 160 158
82 101 104 97 85 81 111 133 131 124 125 121 118 112 113 82 64 65 84 83 79 101 100 105 125 143 138 111 107 113 122 127 121 110 116 117 120 128 128 124 120 119 129 126
116 117 103 77 83 112 132 104 120 130 128 136 143 118 85 83 113 87 68 89 111 113 99 93 110 122 102 81 90 91 82 80 89 86 91 99 91 85 82 83 104 101 99 95
89 97 106 108 115 92 81 87 113 124 135 144 144 140 125 89 53 47 75 85 116 99 103 123 117 103 70 63 64 71 70 73 70 75 79 70 65 71 71 75 74 72 69 67
135 123 121 133 107 103 102 104 112 101 92 110 129 117 112 102 104 110 112 107 96 91 79 74 67 66 73 82 81 77 68 62 65 62 58 60 58 64 68 71 69 67 61 57
147 134 131 149 144 115 103 96 101 107 94 77 100 105 116 121 126 116 108 91 74 65 66 57 57 68 66 59 58 57 54 57 60 50 51 61 74 74 70 64 62 59 58 60

GFSNGP_con_3kmhel_048.txt.gz
Helicity
118 140 151 169 206 203 140 43 28 2 45 103 98 133 67 93 88 65 43 41 53 81 112 114 141 178 189 161 181 225 224 278 362 429 424 397 308 248 206 186 213 197 219 228
76 37 121 134 106 166 128 7 -11 -21 -24 75 114 146 122 61 86 85 59 47 64 68 107 127 142 182 194 154 187 226 211 229 233 272 344 315 260 234 219 229 196 210 252 301
10 15 29 93 98 59 120 90 28 -38 -8 108 120 126 108 58 86 87 94 74 61 87 113 142 147 198 209 187 245 241 217 214 246 273 307 287 252 240 236 276 306 289 301 332
50 59 25 -33 28 -13 -58 -29 8 46 44 38 94 99 75 95 77 63 107 116 102 103 91 94 137 255 273 239 240 251 238 280 306 293 307 306 320 322 372 375 339 323 308 346
37 25 44 56 17 24 11 -3 20 -13 -16 69 167 78 38 99 74 58 75 132 108 109 104 117 198 264 325 304 295 304 317 295 272 298 395 399 339 339 352 332 346 347 346 344
109 54 -2 31 11 15 2 47 49 68 25 94 203 75 58 66 48 67 63 77 98 96 135 147 193 253 318 312 322 335 333 306 314 325 313 314 312 336 366 401 427 442 495 463
107 76 40 38 -17 19 -4 47 30 24 -6 131 114 117 101 116 18 45 50 51 105 112 103 133 203 254 317 362 348 387 352 345 331 285 274 278 310 316 379 467 524 526 526 495
134 126 36 29 36 -16 -5 123 20 -14 -4 116 199 229 151 84 12 35 115 101 46 77 158 208 230 310 353 393 362 350 351 354 342 330 306 335 411 439 447 453 462 439 446 479
122 105 98 56 31 45 109 119 73 -18 -4 171 253 278 211 59 20 65 85 107 104 192 216 288 305 310 386 322 313 319 367 347 346 361 382 394 420 413 410 378 366 357 375 411
158 106 59 37 21 -8 39 93 76 -16 -2 122 394 298 203 59 -13 -4 31 113 132 224 248 242 206 221 221 225 262 327 370 385 380 429 470 472 428 345 310 306 312 318 341 371
112 102 53 33 104 8 31 43 -25 22 -38 110 279 293 190 69 13 33 92 132 123 169 219 232 243 261 238 225 278 349 367 352 390 417 435 468 472 375 323 306 253 266 307 336
158 136 97 54 25 44 52 29 87 13 7 39 65 64 77 66 61 64 83 111 199 277 289 304 320 326 304 289 287 314 325 316 326 362 382 382 409 475 485 378 361 393 427 425
106 91 37 25 47 82 64 31 24 45 87 22 -36 -15 126 114 118 117 171 139 206 163 231 373 407 379 373 337 335 338 324 324 352 373 386 408 432 457 517 595 609 537 494 464
177 56 58 86 54 73 122 136 42 48 87 109 92 96 182 230 265 293 279 287 384 415 422 386 479 432 391 415 509 556 546 524 499 499 497 473 435 380 316 294 303 307 294 276
116 106 74 48 52 79 124 133 51 50 83 145 137 161 189 265 315 306 337 338 386 442 460 534 606 525 497 531 550 531 502 502 474 413 339 314 307 271 225 203 209 246 281 323
158 148 141 106 87 86 97 113 70 88 119 131 182 211 177 236 321 354 416 451 515 468 497 595 661 564 499 523 476 474 460 457 396 328 310 280 258 256 263 282 287 267 247 223
121 144 170 136 87 86 59 70 55 47 95 155 185 207 220 256 331 398 460 483 554 602 580 591 559 496 550 519 499 420 342 295 275 261 259 261 266 269 257 251 244 238 233 222
150 141 152 137 127 135 169 157 139 148 121 106 255 342 395 380 382 393 377 369 439 506 512 393 355 360 352 287 229 206 206 212 223 224 216 227 222 204 197 195 188 192 212 248
154 147 152 165 174 142 141 127 143 104 170 188 182 231 265 320 343 394 412 460 448 430 386 314 315 296 265 239 206 192 195 196 191 176 162 164 173 179 183 188 199 211 208 202
131 144 172 176 162 180 205 222 237 269 263 300 325 347 377 381 349 320 308 370 317 227 202 220 214 216 200 196 168 134 131 127 126 130 136 148 162 175 181 197 188 184 180 176
192 196 217 237 248 266 255 207 209 222 211 233 222 203 181 175 173 146 181 199 192 168 169 175 135 104 91 88 98 100 107 120 136 140 144 138 149 155 166 171 172 160 152 142
209 205 182 154 153 165 161 133 124 120 129 131 114 103 118 120 111 129 128 86 72 107 91 93 88 112 99 115 99 108 113 118 117 116 120 120 126 130 131 129 130 123 110 107
95 88 98 113 103 94 111 117 115 112 114 98 96 95 95 79 65 61 85 88 80 97 83 74 89 110 112 86 84 91 91 91 85 79 84 86 81 79 80 85 83 87 97 95
104 93 78 48 59 92 117 92 98 106 103 108 118 89 58 53 82 64 51 83 92 86 69 56 73 91 80 63 65 63 59 63 61 62 61 62 58 55 57 57 70 72 80 86
73 79 84 83 94 82 79 74 94 99 105 112 112 105 88 63 29 28 54 63 91 69 64 80 83 76 49 40 40 49 51 50 41 45 52 48 47 51 52 59 60 61 65 68
92 89 89 104 80 64 57 60 68 58 54 80 91 75 74 63 57 59 64 59 49 47 44 41 40 41 42 47 48 50 54 56 57 57 56 55 58 60 54 55 59 65 65 62
104 96 95 109 112 90 79 70 77 72 62 50 64 65 70 72 79 71 64 50 42 38 44 45 44 44 43 50 57 57 55 59 68 68 68 63 58 56 59 62 64 65 65 63

GFSNGP_con_3kmhel_054.txt.gz
Helicity
225 209 220 168 155 136 131 135 109 88 68 47 5 6 68 75 71 70 60 42 40 19 23 18 44 53 69 75 89 110 138 147 160 187 152 127 132 103 101 122 135 109 115 128
155 134 103 122 126 120 79 61 56 -3 -1 5 54 59 59 86 77 70 35 12 56 75 11 26 48 42 59 68 87 128 105 122 100 86 97 103 97 81 90 114 142 152 148 160
150 106 88 100 53 11 17 14 29 50 72 118 79 85 81 53 44 45 46 35 57 95 86 26 36 56 63 86 77 85 96 96 90 86 75 62 68 86 97 113 117 156 179 149
105 79 110 129 85 94 67 43 63 87 127 103 78 80 50 92 92 46 33 -6 10 57 117 108 37 14 31 53 66 100 101 83 111 101 91 97 104 100 97 111 129 135 176 159
106 43 131 146 83 48 42 86 83 131 123 101 64 24 27 135 145 98 59 67 22 31 50 93 90 53 -4 21 64 92 97 101 114 116 120 136 159 168 152 148 196 250 269 277
118 110 79 111 116 86 73 153 108 75 52 53 47 47 56 77 76 25 -8 67 104 81 13 65 92 85 38 11 33 82 104 116 144 140 140 156 170 279 362 331 349 362 419 404
31 63 64 19 20 61 101 167 84 62 56 55 29 39 21 17 50 42 -8 -11 102 126 18 -29 -13 36 57 73 74 82 113 150 197 195 236 386 408 419 463 431 435 427 456 478
17 37 49 19 44 76 92 79 59 47 35 19 28 33 42 47 30 43 4 20 39 89 102 11 -25 -45 -8 42 186 207 291 392 431 458 451 403 493 517 402 338 382 435 494 588
52 30 30 50 93 99 39 -2 -9 -22 -12 -2 23 63 80 36 14 13 -24 4 89 54 62 69 155 110 57 64 110 195 276 370 467 536 539 548 524 432 417 471 407 462 507 567
52 53 49 51 38 38 43 21 25 43 42 58 61 64 77 62 30 -16 -12 -30 139 129 72 84 151 250 282 202 195 297 408 477 510 550 551 520 461 432 398 422 414 399 475 495
32 30 41 32 56 68 63 52 68 57 64 82 93 97 70 67 32 45 -30 -41 213 201 143 125 156 194 276 306 322 422 494 521 514 560 598 624 675 573 486 461 358 368 440 443
37 109 77 62 77 46 23 22 14 -1 30 84 103 109 69 64 38 58 19 -65 0 173 243 136 138 230 249 264 286 386 521 565 573 626 649 523 556 634 647 589 615 522 385 370
137 107 69 45 52 66 57 58 63 60 86 102 101 88 71 65 72 104 79 39 70 72 87 84 186 214 267 295 346 424 487 490 467 456 482 496 558 636 713 667 568 490 420 374
109 87 71 191 130 92 79 68 64 82 96 93 74 68 100 97 94 115 148 129 113 149 177 221 172 281 327 300 426 420 363 424 474 440 446 453 381 351 323 348 371 363 352 276
138 110 76 70 122 122 86 85 78 65 61 81 108 102 55 87 118 152 189 209 226 332 266 294 325 359 272 297 355 361 346 351 400 400 335 274 248 217 190 188 190 184 192 220
98 102 115 127 144 128 108 70 63 83 97 118 113 123 102 154 128 162 242 303 368 325 336 335 381 361 333 326 323 344 351 365 309 256 243 236 204 169 170 183 201 217 228 207
111 89 108 96 102 88 87 93 107 128 173 174 168 170 175 204 285 316 340 384 357 332 305 325 274 263 273 264 230 231 248 262 243 215 219 205 205 208 194 197 211 216 224 235
98 106 118 140 108 77 98 123 142 190 207 190 206 242 285 316 299 324 326 322 322 355 407 359 238 231 226 206 184 168 168 181 184 187 181 192 191 187 178 173 172 175 178 202
122 81 137 166 143 137 146 150 198 209 208 205 235 261 270 287 279 262 256 290 299 284 277 219 205 190 188 181 131 124 128 137 146 148 146 156 163 167 171 177 177 171 163 165
125 126 180 180 164 143 148 157 158 192 195 202 206 199 206 200 179 178 175 221 189 149 130 122 98 118 116 121 111 95 107 117 128 140 146 143 147 148 153 171 153 151 151 146
117 139 170 174 155 147 141 129 134 154 138 130 130 115 109 112 119 99 118 115 104 83 85 100 107 92 106 111 125 128 134 140 149 151 149 146 145 151 149 145 140 133 127 125
126 131 134 109 98 109 106 93 87 77 78 77 73 63 71 82 87 103 117 91 78 107 96 111 118 148 126 139 126 133 137 141 137 130 130 123 116 116 125 120 126 121 115 107
90 83 82 74 69 66 68 79 82 79 83 82 82 82 85 82 75 66 83 97 80 101 94 105 120 128 127 112 111 114 117 112 103 97 94 95 96 105 107 110 106 101 98 92
64 62 60 54 57 69 91 79 82 84 86 96 109 108 89 84 97 90 81 94 110 109 104 97 102 113 104 86 89 89 88 85 80 75 73 87 86 85 89 92 93 89 85 80
71 70 66 64 73 81 81 78 83 90 97 108 111 113 117 107 95 81 74 73 86 72 69 81 80 73 61 60 60 59 63 76 73 70 73 75 78 82 88 92 87 90 82 77
75 76 84 102 92 81 76 73 91 79 78 93 98 93 92 84 76 71 69 68 65 62 59 56 53 48 51 54 59 67 65 67 67 69 65 70 76 82 89 91 87 85 82 77
95 90 91 112 113 115 114 114 117 121 119 112 110 94 86 82 80 69 65 54 50 47 44 36 35 39 41 41 49 53 54 61 70 69 75 77 79 85 88 85 82 77 71 67

GFSNGP_con_3kmhel_060.txt.gz
Helicity
75 109 6 20 -12 40 82 47 68 69 56 76 61 118 49 56 68 40 95 125 140 165 189 167 196 258 68 121 217 305 207 157 211 281 242 195 175 185 203 189 192 189 199 205
129 104 118 91 21 45 122 29 52 21 84 15 2 -13 130 162 160 100 113 139 87 132 140 150 190 237 282 326 127 214 261 224 167 186 222 223 221 241 236 228 220 228 230 244
108 193 193 74 99 -19 11 60 62 64 41 164 116 121 127 168 105 126 116 82 78 103 125 101 141 193 194 260 303 159 176 228 222 179 181 206 250 264 265 275 297 287 270 275
178 162 116 101 107 100 93 74 52 46 70 70 118 143 87 134 183 144 99 29 -9 1 14 -2 -3 26 92 112 138 226 185 132 177 216 202 204 243 269 264 280 309 307 286 290
79 116 100 178 152 163 126 113 36 48 52 112 159 117 172 241 178 140 98 50 20 19 20 14 -31 -6 23 74 94 107 189 177 89 179 225 207 221 246 238 244 265 281 271 242
94 82 179 20 40 38 79 70 134 182 261 305 266 148 117 33 75 89 103 69 31 1 -25 -19 -27 -23 -24 17 96 112 180 180 221 123 188 220 231 229 211 226 212 287 538 576
94 103 92 59 12 47 114 169 280 335 365 414 329 245 129 68 99 68 35 42 18 -2 -51 -69 -65 -44 -32 -5 63 76 117 153 79 139 181 189 207 221 262 411 603 654 718 724
107 115 119 65 87 69 200 342 340 328 226 318 270 170 151 164 154 152 109 67 52 22 18 3 -19 -59 -57 -43 2 50 71 89 70 138 260 432 605 625 701 708 689 753 760 760
64 107 86 87 149 227 222 182 190 209 149 171 144 102 112 107 129 138 138 100 76 54 50 31 4 -23 -42 -39 -52 -11 34 80 100 127 225 409 523 620 729 704 675 679 678 693
31 22 32 89 118 208 163 117 96 84 79 98 72 85 105 129 149 128 116 91 70 65 72 67 56 46 -5 5 -13 -58 9 79 146 264 374 404 502 664 673 711 712 720 726 758
34 61 123 333 146 256 172 136 79 38 34 14 30 67 100 119 113 113 103 97 78 58 53 73 68 47 11 -2 28 15 -7 137 229 298 439 519 617 570 719 819 689 740 819 817
93 86 39 32 94 109 56 40 6 -17 -6 29 48 50 58 78 88 92 93 85 72 80 92 90 75 61 60 49 56 56 85 195 286 369 511 621 708 865 855 850 877 788 764 621
63 86 51 -20 78 105 46 30 7 -3 27 33 54 59 68 60 73 79 82 81 74 61 78 119 120 123 154 138 133 121 131 116 114 243 439 413 583 818 1126 1108 1110 1302 637 727
87 129 24 43 12 63 55 51 48 55 39 65 73 91 97 82 86 96 113 96 108 135 208 199 212 239 228 226 235 176 222 214 175 184 112 166 230 313 380 585 643 477 321 266
83 59 47 58 48 43 47 58 54 61 62 61 92 107 92 102 126 149 193 184 182 262 295 294 315 303 255 241 262 271 277 265 201 214 204 182 176 170 159 147 164 140 158 239
87 113 107 62 66 74 75 91 75 73 80 89 96 112 125 132 152 199 265 267 282 292 288 294 335 280 208 199 181 173 219 227 147 111 130 158 185 175 172 196 195 187 140 120
123 119 117 110 74 86 107 119 129 137 134 169 175 175 187 194 216 255 277 268 283 286 269 273 253 240 202 178 140 124 144 155 161 135 121 80 68 64 69 107 139 147 144 130
120 138 140 168 182 133 148 168 171 157 201 227 220 226 226 225 236 253 249 221 223 257 258 203 168 169 163 126 111 89 85 102 115 133 137 147 126 109 94 94 94 102 120 168
165 150 164 168 155 163 172 164 171 178 193 188 204 197 175 171 176 182 174 195 209 208 191 134 112 102 115 120 77 85 106 119 133 106 113 138 169 162 129 125 128 131 120 119
147 156 188 200 208 182 174 175 165 161 145 155 164 176 189 174 87 63 80 120 102 61 54 107 82 94 93 111 116 95 122 125 123 123 138 148 141 138 130 137 113 100 92 90
146 168 172 172 159 136 127 98 90 92 84 79 83 78 64 59 95 88 57 63 87 80 85 100 124 110 105 97 108 121 121 121 121 119 109 99 98 107 112 108 107 106 101 102
131 131 122 92 92 96 69 54 61 67 71 76 76 54 42 41 29 78 127 99 81 105 98 108 130 161 131 107 106 115 118 126 127 121 128 125 114 107 111 103 106 106 116 118
90 76 64 61 55 51 51 61 71 75 86 103 106 87 76 94 107 108 115 107 96 107 99 107 143 149 116 112 114 115 106 90 74 75 78 71 83 83 80 108 109 97 104 119
66 56 41 17 10 40 64 54 65 63 49 97 130 157 138 84 89 90 96 98 100 77 103 121 132 127 100 87 70 47 59 83 83 66 62 70 71 76 82 87 102 111 109 103
45 34 25 22 48 57 62 52 47 61 87 110 117 118 120 125 112 95 100 92 111 109 77 88 87 57 58 52 52 64 47 45 49 65 67 71 80 85 96 106 106 102 101 118
69 73 93 135 118 98 86 97 127 128 90 82 96 96 100 107 101 91 74 71 71 74 66 48 46 64 57 47 45 45 51 53 64 76 75 89 94 102 108 109 107 114 119 119
80 74 74 93 109 128 154 173 178 166 151 147 131 99 91 84 78 84 79 75 63 58 51 44 38 38 29 36 52 54 60 69 67 71 72 97 102 107 112 113 109 106 100 99

GFSNGP_con_3kmhel_063.txt.gz
Helicity
56 39 -17 -18 84 64 81 59 79 31 61 232 87 203 295 115 79 114 149 184 122 57 61 120 196 254 260 207 103 154 237 299 373 357 318 275 238 189 157 178 185 175 154 159
-54 44 77 5 29 50 58 80 96 54 71 31 64 151 207 97 76 51 9 79 65 73 75 41 87 107 136 198 227 314 100 187 268 376 407 371 316 276 238 189 179 202 184 210
35 132 113 66 50 97 37 32 94 52 -8 -41 -38 118 40 144 169 84 69 78 41 27 58 81 84 132 162 153 146 181 202 235 124 225 361 378 399 353 294 262 262 236 223 231
14 63 49 106 172 56 19 -49 104 -21 56 53 162 183 152 154 180 152 115 99 79 36 26 43 62 108 149 135 110 119 117 156 218 316 197 207 380 388 391 358 326 305 282 280
15 -14 108 95 135 134 -12 14 90 146 126 148 143 288 249 77 69 90 62 40 37 18 -1 -11 26 55 89 113 129 98 95 132 154 125 139 203 158 320 377 396 403 394 349 309
64 24 87 38 235 160 142 246 340 306 418 330 332 375 305 287 244 197 125 68 -7 -26 -62 -70 -18 -3 13 32 53 97 116 120 100 74 25 97 164 191 284 420 436 463 524 592
97 27 43 42 26 134 205 232 297 337 386 349 381 240 289 324 303 184 93 52 30 -33 -84 -86 -65 -67 -70 -66 -27 5 20 36 41 45 19 21 97 113 181 427 710 746 747 689
103 97 -28 115 85 63 76 167 208 310 396 401 412 357 280 270 227 142 93 59 35 -8 -17 -24 -40 -63 -61 -70 -84 -98 -49 -8 -1 9 -3 0 106 124 238 506 687 797 834 848
88 71 29 120 154 218 241 304 336 333 347 349 343 294 186 164 125 68 49 50 47 20 13 -16 -16 -18 -5 6 -16 -56 -73 -68 -57 -21 48 61 107 216 242 382 526 691 794 828
31 86 145 207 500 416 396 404 355 317 249 211 145 166 110 77 63 59 70 70 65 68 50 36 31 22 20 33 19 -28 -54 -49 -26 -11 35 175 186 190 291 395 467 567 710 859
-4 71 265 311 246 357 497 341 275 214 196 167 138 109 81 73 65 62 55 48 50 47 46 62 64 78 84 80 59 42 38 16 38 66 79 185 290 293 304 406 452 567 673 802
95 77 279 211 113 112 85 69 128 116 139 191 120 77 86 68 52 55 56 46 57 74 75 93 97 89 99 101 81 63 73 81 96 106 117 178 214 261 614 685 657 684 796 713
134 70 29 48 91 63 64 122 102 128 101 76 97 75 73 57 60 70 91 104 111 112 127 148 160 157 161 157 131 125 115 97 77 97 114 146 239 264 197 300 526 843 836 695
85 35 65 68 33 72 104 118 104 106 114 103 85 104 90 82 114 155 181 178 168 172 197 190 207 222 200 182 180 160 122 129 89 88 89 113 156 160 179 241 281 337 361 247
123 70 93 133 136 149 126 96 95 77 63 82 96 89 106 137 191 227 218 215 215 239 256 247 255 235 191 184 182 194 139 119 131 127 122 122 126 140 137 121 137 151 174 245
85 171 135 114 113 129 152 120 94 74 67 78 96 127 154 183 219 242 250 235 250 276 262 260 272 230 199 166 157 162 169 176 125 98 95 102 114 128 128 133 133 134 134 123
85 64 92 88 99 69 77 81 83 115 143 167 164 133 162 196 212 208 210 220 230 234 222 224 220 196 165 170 132 116 115 131 149 127 99 80 82 100 107 114 119 127 123 117
92 91 107 134 81 55 76 87 93 116 132 138 150 159 176 189 184 175 156 151 171 201 217 171 137 123 117 99 101 95 104 106 121 131 142 149 133 128 128 125 124 124 132 152
126 135 135 142 118 105 93 101 118 121 135 132 142 142 122 116 107 106 100 125 139 144 149 129 122 107 134 139 136 133 133 143 160 171 170 174 168 147 130 123 121 118 114 112
143 150 162 178 175 154 144 139 139 142 109 99 107 113 106 58 25 45 74 105 79 59 72 125 136 130 128 160 170 163 170 170 156 157 161 168 172 162 145 148 128 119 104 91
136 124 140 148 148 136 122 103 100 99 73 66 55 39 33 53 101 63 63 85 97 92 109 151 171 125 116 129 141 161 175 178 181 175 166 158 158 165 147 133 127 125 117 99
103 124 105 89 100 99 77 59 54 59 67 60 31 17 37 42 53 85 95 83 81 95 117 151 165 145 140 152 149 155 143 143 142 133 126 114 98 112 126 104 87 103 115 97
98 66 48 49 47 40 40 50 57 65 81 94 92 73 68 70 74 84 103 92 91 105 128 161 165 149 153 122 103 115 141 131 95 85 79 85 81 83 97 108 111 109 108 82
22 11 2 -7 -7 15 28 15 33 30 40 79 85 124 98 82 77 71 69 78 67 82 106 127 130 106 98 93 77 55 62 79 80 92 64 71 73 68 77 75 79 89 115 126
21 18 6 16 31 20 23 25 22 31 73 86 97 99 110 90 83 49 71 79 83 59 78 92 110 102 93 64 63 59 35 43 58 85 83 74 75 79 80 91 106 110 102 84
63 73 110 145 131 134 131 100 132 120 104 116 83 76 86 88 64 59 64 60 84 77 51 50 51 51 51 65 49 57 34 43 47 64 85 75 78 75 83 94 106 104 92 79
99 84 80 100 106 139 158 200 204 174 182 138 114 76 68 71 85 89 90 79 65 59 55 34 25 19 10 22 30 37 43 35 45 52 61 59 64 61 71 66 65 68 70 66

GFSNGP_con_3kmhel_066.txt.gz
Helicity
43 29 30 28 -50 50 21 64 85 83 43 8 24 107 253 380 34 6 74 116 166 209 239 253 233 224 217 201 168 173 62 147 159 160 168 197 220 202 206 214 224 192 151 127
16 37 57 3 3 -26 38 34 31 34 59 34 70 61 182 179 96 39 95 76 17 72 127 167 205 190 185 224 234 164 151 209 126 87 149 192 215 240 261 254 245 222 212 206
42 69 61 20 38 13 38 37 34 90 78 26 66 95 202 181 192 108 53 97 89 81 114 134 136 157 191 196 200 213 202 177 185 194 192 96 127 193 247 268 297 290 256 222
8 33 -14 56 95 32 4 10 -3 60 59 39 -3 28 178 126 78 106 112 142 111 53 79 153 160 126 69 93 147 156 167 197 205 220 159 151 178 187 119 207 247 285 300 310
-2 33 22 25 66 194 85 82 52 40 96 47 85 289 302 214 150 136 113 73 53 73 89 79 99 101 99 98 85 80 112 132 132 142 181 192 165 156 138 130 143 290 327 325
45 14 -2 21 59 71 92 110 148 59 79 73 231 340 222 160 129 138 119 79 42 45 55 62 83 62 51 72 78 89 89 89 81 70 52 52 149 183 116 95 86 105 211 297
87 88 51 25 10 5 137 121 231 292 255 278 295 251 202 199 199 112 76 84 39 9 -0 23 25 8 12 26 45 49 47 34 24 26 32 47 32 4 77 135 74 119 347 555
73 77 30 17 75 2 60 137 167 268 292 335 353 315 249 200 180 147 111 56 24 9 7 -18 -29 -31 -30 -26 -37 -31 -17 19 57 54 25 21 42 44 31 33 83 220 408 531
61 41 68 103 164 266 188 177 237 172 132 122 163 189 198 181 154 131 112 90 64 27 22 24 5 -10 -15 -9 -18 -32 -33 -35 -41 -28 17 45 94 123 97 86 131 234 341 494
88 77 140 207 332 461 409 410 366 287 206 191 170 173 154 161 138 98 88 89 61 45 35 32 16 9 7 9 1 3 7 21 6 11 28 100 83 115 113 113 171 286 382 385
72 100 161 278 316 426 458 318 309 310 261 168 143 167 115 97 82 101 108 113 118 80 54 44 35 36 50 49 13 13 30 30 25 17 9 22 135 261 236 316 253 251 296 335
88 135 142 282 214 118 93 294 313 265 198 165 142 139 153 165 139 109 133 149 138 117 95 91 81 95 118 112 91 75 87 98 85 75 68 42 33 127 425 512 509 505 492 336
95 175 44 35 69 83 94 69 80 117 85 100 111 105 119 117 125 136 130 151 153 121 113 133 145 158 155 137 113 109 94 108 104 107 115 99 91 58 73 154 279 356 385 389
21 24 9 20 39 72 45 61 84 146 140 120 110 122 128 142 147 154 157 143 146 165 193 194 202 212 188 172 155 137 124 139 104 101 105 113 117 123 106 109 138 156 212 198
86 110 101 104 168 101 86 77 102 110 116 129 130 135 140 157 172 184 183 185 207 248 259 241 224 215 176 159 152 156 126 128 123 130 139 130 125 133 138 138 128 112 128 162
126 115 112 116 119 120 115 94 82 76 91 108 122 138 149 163 174 186 212 226 253 259 231 213 212 182 161 156 142 151 157 146 120 108 116 127 125 127 135 135 136 132 122 95
108 129 99 105 107 111 120 126 121 121 118 115 111 126 136 158 195 218 226 209 211 215 210 200 176 159 148 142 126 111 100 122 138 135 129 122 121 128 125 123 123 124 130 138
176 187 171 107 90 95 126 139 144 136 124 111 125 155 178 180 171 168 167 158 184 203 207 187 122 124 127 127 116 112 122 127 137 141 141 145 138 129 119 114 109 111 116 141
96 102 105 113 103 94 82 112 122 115 111 109 128 133 122 132 125 121 112 134 141 138 133 125 119 111 132 142 139 143 149 151 158 162 151 153 157 147 139 128 122 117 114 119
98 114 123 128 115 87 88 85 78 92 80 83 77 85 83 65 50 68 72 95 84 60 81 119 124 129 142 157 155 152 167 174 168 166 165 162 155 149 141 144 129 116 102 93
121 134 156 152 135 120 106 78 96 82 37 41 55 45 43 56 65 48 80 92 101 106 133 154 144 130 139 148 163 168 166 163 162 151 144 133 137 134 125 116 105 93 87 82
109 123 124 110 103 104 76 56 49 40 37 43 42 44 66 71 73 96 90 92 104 146 151 149 136 149 146 157 147 161 164 154 140 123 115 102 103 100 99 92 87 70 83 84
82 81 66 59 59 41 29 34 39 49 66 67 66 69 76 70 67 78 106 114 111 130 134 133 135 150 145 136 134 139 143 138 120 97 87 75 66 68 78 83 80 77 84 73
42 27 14 -1 3 19 36 19 36 47 43 63 65 52 67 67 79 82 87 86 108 121 136 127 139 137 137 110 103 105 96 98 98 89 82 77 73 68 72 69 78 77 86 90
10 2 -7 -6 17 25 28 29 38 46 66 73 67 57 47 32 58 35 65 57 53 96 95 92 102 108 100 80 72 79 61 52 45 65 69 57 53 63 68 70 71 74 77 77
52 69 84 92 80 83 73 86 94 96 90 81 59 54 60 57 75 75 77 90 63 51 70 54 55 49 59 62 41 14 20 29 43 50 58 59 48 60 63 61 67 78 75 65
89 99 104 105 100 103 124 132 140 130 105 101 92 71 76 86 81 82 81 74 78 69 54 35 45 51 53 37 37 32 27 29 38 51 55 56 62 68 66 60 56 49 55 61

GFSNGP_con_3kmhel_069.txt.gz
Helicity
31 43 22 31 0 51 38 39 48 57 12 -71 1 -89 132 307 261 199 256 322 351 379 359 312 283 251 224 227 186 162 177 166 92 83 136 158 167 189 213 230 222 205 200 161
34 50 59 24 -11 19 -33 -4 70 43 67 1 36 25 73 134 156 215 288 273 341 245 271 268 253 237 210 200 178 148 133 147 153 201 205 103 84 157 179 194 216 226 225 229
27 61 63 29 19 58 19 33 10 48 44 79 -19 -31 38 174 260 172 141 103 107 131 72 93 110 130 151 156 175 184 195 196 182 181 175 168 162 191 133 106 143 199 236 251
-43 -9 15 43 110 47 51 27 55 26 14 44 46 233 207 252 177 138 91 92 97 100 33 63 90 110 103 140 157 171 189 195 180 193 190 184 189 176 149 137 152 150 110 168
-9 6 27 48 43 33 74 77 51 18 45 68 183 469 415 284 205 161 86 72 56 84 101 105 127 121 113 114 106 107 122 138 159 160 150 135 137 152 143 138 122 113 100 83
42 15 28 58 133 26 26 73 65 41 9 164 124 218 217 129 123 68 86 68 74 65 57 80 106 90 86 94 87 96 91 82 68 58 52 94 121 124 108 113 120 107 100 124
50 59 53 18 30 29 29 60 65 63 137 106 97 58 197 170 152 135 108 94 89 88 101 102 93 84 100 111 127 98 86 83 86 86 66 64 41 45 77 110 109 57 46 107
43 45 31 35 39 40 46 137 80 262 288 392 301 314 228 188 158 128 123 101 73 64 89 95 90 75 84 102 83 79 90 99 114 122 108 101 111 99 93 89 77 83 96 119
35 42 78 60 115 163 126 96 70 208 227 336 342 264 190 185 83 94 96 89 93 76 79 87 81 74 66 65 38 37 45 68 98 125 156 142 157 156 122 129 117 119 107 118
50 66 110 136 156 244 293 308 240 178 121 61 58 52 77 89 104 119 118 125 97 101 106 104 101 110 95 66 39 35 37 39 42 67 94 129 85 96 110 85 81 135 172 185
23 102 137 169 167 191 329 337 309 279 204 149 122 142 119 113 120 128 134 151 140 126 121 121 121 143 145 133 96 95 99 105 104 82 58 73 153 119 94 156 99 18 77 208
57 71 158 158 214 206 163 235 274 298 219 157 119 122 112 101 122 131 134 133 139 141 143 146 150 156 159 126 99 72 89 93 83 76 65 40 4 45 214 218 240 229 183 14
11 94 80 52 60 126 184 91 62 84 87 116 89 39 62 89 111 139 155 168 177 168 151 138 147 168 151 118 89 78 61 63 74 83 76 72 72 58 45 78 213 264 251 250
28 -2 -9 32 16 36 48 50 38 48 75 57 68 97 91 103 154 183 193 172 170 184 206 189 185 197 171 145 127 121 112 132 116 123 120 125 133 143 140 158 169 174 203 218
39 65 80 68 56 38 36 21 40 61 77 90 95 92 99 123 157 181 192 181 181 210 225 213 205 199 153 124 131 136 128 121 120 123 131 127 122 129 126 128 133 141 147 176
45 60 67 67 53 53 52 56 71 61 89 97 113 121 128 145 167 195 209 196 188 196 191 181 179 162 138 126 127 126 127 136 123 109 107 109 107 108 111 115 127 141 155 151
44 66 66 79 81 77 74 82 79 79 95 101 105 110 122 136 174 207 204 178 164 168 165 163 142 124 120 117 109 101 95 99 102 98 100 99 101 101 95 96 99 111 122 139
124 126 143 97 66 69 89 100 108 114 115 107 124 138 157 170 162 165 155 132 144 154 165 141 98 100 101 83 75 70 74 80 95 102 103 116 110 110 114 116 118 114 116 146
115 115 106 108 97 104 104 116 138 149 148 138 150 156 143 142 131 118 103 113 118 118 112 86 88 89 100 103 90 92 107 110 119 126 122 130 131 125 125 127 133 133 124 124
126 130 138 149 165 152 168 178 161 152 134 135 130 130 119 92 67 67 50 67 66 50 64 88 98 114 116 131 128 119 128 138 133 138 136 134 136 143 131 132 115 109 102 86
100 100 115 131 141 135 126 107 105 112 94 85 78 67 59 52 55 45 75 82 97 90 101 123 119 107 108 115 133 144 151 152 151 138 132 126 134 127 120 108 102 105 92 77
90 102 109 111 115 120 107 94 83 65 59 60 54 56 70 66 66 74 69 74 79 107 107 108 108 122 119 142 132 142 139 135 126 118 116 108 105 101 96 83 79 71 70 70
93 88 87 86 79 65 51 46 40 35 32 26 21 21 29 27 31 48 67 81 89 103 100 98 107 128 136 127 126 125 123 122 110 108 91 76 66 67 65 67 64 64 69 67
58 44 39 25 19 26 38 25 39 37 40 32 25 13 37 57 74 81 81 94 97 116 111 104 110 121 118 106 109 107 104 105 97 83 70 66 60 61 68 59 62 61 69 72
12 7 1 -5 5 17 30 41 48 46 47 48 41 40 46 52 69 52 71 73 93 97 95 99 108 108 100 91 89 93 83 75 68 67 60 57 58 62 59 52 45 49 51 51
47 54 62 72 59 56 61 69 82 94 90 84 78 67 66 65 71 76 74 67 64 65 70 71 77 78 91 89 80 67 58 54 46 45 53 54 60 63 63 60 57 57 58 56
85 83 85 88 85 84 104 106 108 104 102 105 100 69 47 57 73 85 82 81 68 63 63 59 67 67 67 64 60 54 51 47 49 52 56 60 71 72 67 57 57 62 65 64

GFSNGP_con_3kmhel_072.txt.gz
Helicity
29 5 -32 -19 2 45 -38 -6 20 62 42 -9 8 19 55 119 252 281 257 314 366 340 352 378 363 339 291 246 223 182 227 193 159 108 43 54 87 100 103 108 96 105 118 123
18 15 22 -25 27 -14 -10 -5 22 24 49 -11 44 56 51 55 67 246 238 288 315 342 319 299 276 263 288 289 185 221 182 184 169 168 165 180 199 192 83 86 125 128 121 127
-35 23 42 11 -28 24 0 -6 42 16 -9 -5 48 76 125 130 162 181 121 263 362 400 351 215 188 146 156 167 128 139 138 147 156 151 144 156 159 162 171 176 172 204 165 122
-45 -33 -26 -1 62 -6 20 41 26 23 4 26 119 178 216 195 257 261 289 196 108 242 407 117 124 94 79 94 96 121 141 147 158 163 154 147 142 154 155 157 156 149 154 169
-50 -39 -5 30 55 51 32 103 16 25 0 113 158 238 366 291 251 186 168 143 235 122 47 55 54 42 37 60 79 101 127 149 147 131 129 141 145 138 144 143 142 154 157 165
29 -16 -37 -5 92 139 17 68 65 35 20 154 199 212 223 265 268 196 105 86 96 34 32 47 78 62 62 75 81 98 95 99 111 115 135 147 139 130 130 132 132 129 136 141
29 17 19 35 -32 -33 -1 47 1 26 21 134 179 200 283 108 149 88 60 45 34 32 55 73 80 66 77 86 102 87 80 77 91 95 98 120 122 134 140 129 113 115 111 105
41 32 20 39 64 52 38 39 13 172 203 308 267 348 283 226 231 205 104 91 86 70 88 110 122 95 101 119 109 92 90 102 108 128 102 106 98 97 123 106 123 126 118 106
21 35 45 37 9 68 116 55 9 58 168 339 402 311 272 212 215 138 127 99 90 94 116 127 144 144 131 129 115 113 120 142 156 164 175 179 194 180 151 147 126 123 116 114
32 67 59 36 60 96 175 240 167 104 64 147 178 118 123 79 76 71 62 88 86 87 95 121 132 152 150 148 132 147 174 175 173 201 224 234 242 266 261 243 217 199 185 171
13 42 79 107 91 86 123 161 183 189 186 182 119 139 65 81 85 65 71 100 122 115 120 139 134 153 161 140 121 130 143 149 157 155 162 202 242 230 234 256 183 138 134 122
45 42 59 91 111 130 147 124 95 127 149 150 112 132 95 104 87 66 87 102 109 111 126 149 175 185 170 150 111 102 111 107 109 97 82 64 53 95 227 230 246 253 225 152
31 74 63 64 112 113 130 91 95 81 84 108 122 97 94 98 100 106 132 136 147 154 165 175 190 210 208 176 139 142 138 128 121 130 119 105 92 81 81 111 209 259 251 239
28 -40 25 52 16 13 13 55 61 34 53 64 68 93 91 101 117 147 158 141 134 174 199 187 197 212 178 165 158 157 149 161 133 128 121 125 124 119 105 110 122 146 169 192
36 46 36 21 20 17 -3 4 26 40 44 73 83 88 81 103 129 142 134 131 158 196 205 190 191 193 140 124 135 136 127 123 120 120 119 117 107 106 104 112 119 117 120 129
18 43 46 47 44 39 21 27 36 43 63 69 81 102 120 138 151 163 173 180 164 174 174 173 175 158 135 120 125 121 111 108 110 103 101 105 102 101 103 105 114 129 151 161
25 38 40 51 53 57 71 70 64 67 77 80 93 110 120 132 165 180 187 174 164 169 156 150 141 121 113 101 92 84 82 85 93 97 100 95 95 97 93 95 99 116 136 143
86 100 118 89 65 57 73 90 98 102 104 106 118 141 153 149 134 136 131 126 142 149 142 110 71 80 86 75 68 66 70 74 86 90 89 100 100 97 97 96 103 106 107 138
107 106 100 100 86 78 73 84 99 104 110 115 153 160 141 133 117 105 100 130 132 117 112 76 79 80 92 94 84 81 89 97 108 115 108 112 117 103 102 99 99 101 98 97
119 127 123 130 135 117 115 111 116 134 123 123 119 127 120 100 76 71 49 70 51 31 40 63 67 79 81 94 94 86 97 108 103 105 104 102 105 109 102 110 95 86 80 72
129 125 128 134 141 135 116 96 102 111 100 104 99 77 60 49 50 25 58 62 76 70 72 86 84 82 87 96 109 110 115 121 122 107 101 98 108 108 108 100 95 71 60 52
126 133 131 121 121 122 110 100 93 80 70 55 34 20 28 30 32 42 40 58 68 93 88 92 94 110 108 124 107 117 116 113 107 100 110 108 114 111 95 79 73 56 46 44
120 117 113 111 101 83 70 64 56 51 50 47 45 49 61 60 62 72 79 88 88 96 93 93 94 112 118 112 113 113 113 111 116 110 99 89 77 67 59 52 47 48 53 57
75 75 77 60 51 55 70 46 50 51 48 49 45 32 48 55 69 68 72 81 89 98 97 92 103 106 102 95 97 95 101 97 91 81 76 70 60 52 50 46 45 46 53 57
33 27 18 14 23 29 37 49 64 63 56 51 46 44 36 37 39 23 37 44 62 77 77 78 83 87 81 80 78 74 68 61 55 54 49 48 46 45 43 44 45 54 60 59
32 41 49 58 64 62 71 72 73 75 81 71 62 57 60 61 58 59 60 60 61 62 70 59 64 66 65 64 60 54 50 47 48 43 42 43 51 56 59 61 61 62 68 67
95 89 86 89 89 85 86 91 96 97 90 96 80 60 56 52 59 62 68 64 64 63 63 58 59 55 56 53 55 57 53 50 53 59 63 65 72 73 75 72 69 68 67 64

GFSNGP_con_3kmhel_075.txt.gz
Helicity
49 34 10 23 42 38 -15 -10 59 53 73 -26 -17 -17 -21 -9 87 111 222 285 377 455 465 386 366 369 382 381 259 222 212 177 140 132 123 114 101 67 51 60 47 40 37 30
62 22 13 -1 -9 -8 -19 -40 -9 33 65 -7 -44 45 99 64 48 59 239 276 288 303 387 391 359 331 324 317 330 254 183 180 152 152 135 138 125 113 121 144 147 107 65 56
122 90 60 -16 -17 29 5 8 13 21 9 -11 -55 19 73 62 129 123 111 367 378 352 392 408 420 358 339 330 265 244 307 115 172 146 130 129 126 135 150 149 144 160 189 208
76 88 31 25 56 -14 -1 11 37 47 25 38 47 340 299 211 196 181 176 203 346 439 355 300 210 215 222 270 297 277 163 142 136 126 133 137 144 152 167 171 189 189 195 204
54 56 54 11 54 72 28 22 46 60 43 31 94 170 190 270 297 255 256 256 341 311 240 309 222 150 153 166 132 127 146 139 125 128 134 143 159 161 167 151 147 153 168 191
37 18 12 7 30 45 -12 24 88 94 54 28 32 62 167 214 266 273 243 278 355 344 290 203 56 24 42 53 75 105 110 117 100 115 129 148 151 155 153 139 137 135 156 171
15 5 1 36 45 0 8 46 13 26 64 -20 67 171 380 399 434 271 169 120 73 50 75 68 60 34 49 64 76 77 80 93 131 142 139 142 145 164 159 155 145 159 165 162
11 5 -5 67 42 46 49 32 2 1 69 253 236 349 387 291 268 194 102 51 5 13 33 49 66 53 50 63 58 54 72 78 102 129 153 164 177 189 197 182 179 174 164 151
19 54 54 40 35 27 73 51 34 10 15 140 255 289 231 175 120 125 89 78 33 41 55 89 101 97 88 85 69 62 75 100 94 89 98 114 122 127 141 147 136 135 134 135
22 101 108 27 31 68 85 101 105 86 40 31 106 99 136 140 121 131 106 62 33 63 81 101 117 119 112 97 87 91 101 109 128 151 151 160 159 161 149 143 126 122 126 134
14 23 29 101 79 71 112 120 144 121 105 82 89 115 76 80 80 75 64 69 59 61 91 109 107 126 138 129 106 114 122 127 135 131 146 169 223 201 184 213 169 133 143 144
42 37 66 61 67 70 89 93 79 71 94 98 79 73 60 103 80 92 106 77 83 97 105 134 158 168 163 147 138 137 158 178 173 156 147 137 130 150 250 242 258 247 225 155
44 85 95 80 100 103 94 99 113 88 81 64 64 58 95 119 111 118 123 126 117 137 150 157 163 184 187 165 141 146 141 140 138 141 134 128 123 117 110 123 188 226 229 198
35 2 48 38 20 31 49 45 56 85 80 77 83 87 90 113 138 149 152 140 129 146 163 152 164 183 156 123 117 118 111 120 110 106 101 101 102 103 99 110 118 127 153 187
75 76 33 11 22 18 7 7 32 44 61 89 99 109 118 138 150 156 158 155 151 162 168 162 165 176 147 129 134 128 113 111 107 104 105 97 94 99 99 105 109 110 109 134
12 17 29 42 28 28 34 31 39 42 64 80 107 132 145 163 170 177 179 174 153 166 167 159 160 149 126 105 102 100 99 105 95 87 87 92 88 88 86 92 100 112 128 135
13 26 32 50 52 52 64 66 72 79 82 94 106 116 133 160 172 186 179 171 161 156 147 145 136 110 102 93 83 72 65 70 72 70 74 74 77 86 90 96 109 125 147 157
96 100 108 81 68 64 74 79 78 83 89 95 112 122 128 131 130 119 114 110 111 130 130 106 91 82 87 78 70 63 64 70 81 90 89 97 104 107 114 118 120 119 121 140
99 109 125 117 91 90 88 102 102 103 111 116 131 142 129 119 101 89 82 106 115 113 112 73 77 82 94 106 90 83 87 93 101 107 109 110 120 123 125 127 127 125 120 119
92 95 95 105 101 84 92 93 94 102 88 98 97 97 98 86 71 73 75 103 90 66 69 88 94 111 117 125 112 97 100 104 109 112 111 114 116 119 120 123 114 109 105 100
76 87 113 128 133 123 111 85 79 80 62 58 70 70 65 49 31 28 61 83 87 88 95 110 106 97 97 99 106 109 115 120 123 119 118 118 115 130 127 118 106 94 87 79
92 108 112 106 105 100 83 73 66 54 52 53 45 35 47 59 64 83 90 82 74 85 82 88 90 98 98 110 110 115 119 119 115 108 116 122 121 114 107 95 86 74 66 63
94 85 79 72 71 63 48 45 34 29 28 19 17 20 38 36 34 31 47 51 52 66 76 80 81 92 100 104 105 109 113 117 126 121 113 109 103 95 86 79 71 61 59 61
90 82 74 54 41 42 60 37 40 38 40 43 37 29 36 47 55 59 59 54 63 71 79 82 86 91 94 95 99 112 116 112 105 98 91 79 74 66 60 61 58 60 60 62
55 51 49 55 62 65 66 70 78 78 75 75 72 62 60 59 73 60 61 72 79 83 82 75 72 70 70 71 82 85 84 81 77 67 59 53 49 47 48 49 51 57 66 68
53 59 66 76 76 69 70 69 77 74 78 84 76 68 66 65 65 65 62 59 54 52 54 48 46 50 56 58 61 60 56 50 46 44 43 44 46 48 53 57 61 64 71 75
83 78 76 86 91 90 85 80 75 78 80 86 96 72 57 48 45 48 47 44 43 42 41 41 38 36 40 43 47 50 47 46 47 50 50 54 57 56 59 60 61 65 73 74

GFSNGP_con_3kmhel_078.txt.gz
Helicity
70 151 314 132 76 47 15 23 20 49 53 76 44 -6 41 14 6 64 134 245 326 385 428 428 464 528 500 565 510 349 243 250 253 235 232 223 197 161 126 92 62 30 18 21
53 41 42 78 19 32 25 8 -4 20 17 -3 3 -2 88 87 50 14 27 223 313 324 338 427 506 495 418 436 424 261 266 267 230 210 205 197 179 178 185 175 180 183 150 181
108 70 62 89 -3 -0 13 10 22 47 59 22 18 -16 35 80 44 27 74 241 309 329 356 366 389 409 394 354 287 297 279 314 275 194 149 174 155 161 181 192 200 226 235 220
151 121 95 86 66 41 20 17 55 43 54 45 33 136 332 182 133 114 58 86 252 345 345 363 294 336 359 357 316 367 373 294 325 379 143 132 139 142 146 146 167 186 215 214
92 97 144 46 66 83 70 32 63 99 80 17 52 225 178 131 206 246 185 200 173 199 355 304 263 225 215 244 247 230 201 250 310 279 144 131 151 172 170 170 182 185 186 202
48 98 123 57 50 79 40 4 96 98 83 43 24 58 93 154 203 260 268 297 304 303 281 304 437 248 259 342 342 255 220 188 181 108 113 134 123 132 137 154 173 171 181 198
43 48 25 32 35 23 36 61 48 12 24 50 47 113 225 310 415 274 209 263 327 353 376 309 202 135 194 143 182 145 102 104 117 110 129 131 133 130 122 129 137 151 158 177
27 32 38 77 33 45 61 34 51 28 17 22 137 214 228 248 255 192 156 127 123 144 108 51 21 25 60 89 68 71 93 104 132 149 131 130 131 117 117 121 131 134 129 144
74 61 49 40 55 42 37 40 39 39 33 45 89 116 138 189 150 127 70 70 27 -2 8 68 91 86 87 81 87 97 94 119 139 148 167 160 136 136 142 153 170 188 189 193
49 83 121 126 83 57 64 60 54 73 58 88 87 48 83 106 123 140 121 126 46 37 45 70 85 89 85 75 66 68 89 105 125 152 163 173 179 193 184 174 160 159 162 168
39 44 53 60 85 64 68 77 88 83 60 39 38 44 42 43 51 59 96 131 64 64 59 77 91 106 115 90 73 72 81 89 94 99 117 143 186 180 179 222 183 137 139 138
45 44 50 37 61 61 65 58 42 37 52 60 54 50 57 53 62 94 116 132 117 107 108 126 123 132 131 120 98 89 94 102 101 97 92 85 90 122 218 216 234 225 228 142
24 68 84 62 77 76 75 66 62 65 58 49 40 40 49 68 95 112 114 106 130 112 121 135 146 172 186 170 144 136 121 105 95 100 99 96 95 90 88 100 148 201 191 192
21 23 36 30 27 43 49 43 43 51 58 64 62 65 69 81 100 119 134 128 119 132 142 138 149 188 184 162 147 142 140 163 139 133 130 127 126 124 119 120 120 116 137 147
53 48 52 25 21 18 17 19 31 44 56 71 88 100 104 107 118 133 138 131 132 150 164 151 160 185 171 157 156 151 136 134 132 132 133 127 122 121 118 115 113 109 93 98
12 21 24 23 25 29 33 39 41 52 70 86 98 114 119 125 135 142 153 157 144 164 166 164 168 160 143 128 114 104 105 119 107 96 97 101 99 100 95 96 100 106 119 134
10 16 14 26 40 54 67 84 92 101 104 109 121 128 134 139 148 153 150 142 137 141 144 149 150 140 134 129 110 96 91 89 88 85 93 93 94 100 102 105 110 117 127 146
92 91 85 80 72 76 88 97 96 102 117 121 120 130 138 140 143 143 136 120 119 133 142 136 124 108 109 105 95 78 72 77 82 86 90 102 109 113 117 121 124 130 134 146
73 78 85 92 86 82 81 89 95 101 102 105 116 133 130 129 118 115 107 106 108 116 129 108 107 101 106 124 104 95 100 103 107 112 110 103 121 130 136 141 146 150 149 150
88 105 117 128 140 129 129 121 117 126 119 113 114 112 111 106 97 99 106 123 116 96 93 104 98 106 115 130 129 109 109 108 111 117 124 124 131 140 147 167 161 152 147 143
89 103 118 122 126 115 103 86 86 97 88 80 82 85 81 67 60 51 50 75 84 89 92 101 116 109 112 117 113 122 127 130 138 143 149 152 148 159 158 154 148 139 131 121
105 112 108 99 98 102 89 82 80 78 81 84 81 75 71 72 72 87 107 104 93 97 99 108 116 139 132 129 134 139 145 148 148 146 150 153 154 168 165 157 149 137 122 111
86 89 87 78 74 74 65 63 61 62 65 61 56 56 65 73 71 63 78 92 98 112 111 117 119 126 136 131 132 135 138 137 136 136 134 137 144 138 131 125 116 101 90 83
80 72 70 60 52 50 61 49 49 56 60 61 61 47 52 67 79 91 99 97 93 90 104 98 95 91 85 100 105 110 109 112 119 115 114 101 103 97 94 96 85 81 78 71
54 53 51 45 52 64 69 69 71 71 62 71 68 58 57 72 80 75 71 78 65 42 77 70 58 51 60 74 83 96 96 92 99 90 89 87 83 79 75 75 73 70 74 72
62 69 81 84 92 86 87 78 86 88 84 95 91 85 79 76 79 65 63 66 54 55 50 56 42 40 45 48 61 63 67 70 62 63 72 67 66 65 66 68 68 64 64 68
88 87 97 106 111 111 110 105 97 103 94 99 105 92 75 70 73 59 60 53 46 44 41 43 43 43 50 53 54 57 58 59 67 62 63 64 66 68 73 76 76 77 76 77

GFSNGP_con_3kmhel_084.txt.gz
Helicity
123 38 57 54 107 53 94 79 63 51 22 89 53 40 110 15 7 18 31 79 92 158 252 336 412 407 468 488 522 424 459 483 409 382 366 318 339 343 320 279 245 210 210 207
49 65 35 60 41 2 11 4 145 44 38 49 143 68 43 7 7 27 13 11 50 106 134 280 394 436 509 485 479 513 510 454 405 374 351 316 298 303 335 329 303 299 272 240
-5 64 74 47 58 31 -7 -43 -3 101 107 76 22 77 105 48 32 47 52 24 17 72 95 168 336 403 480 501 518 582 628 522 423 413 379 363 343 340 355 357 331 321 292 257
-42 -1 54 68 13 -2 66 162 135 136 116 21 -17 31 89 93 78 69 55 59 48 12 33 92 215 347 385 451 547 665 671 663 524 464 410 365 358 373 353 362 377 317 292 286
-25 11 82 -9 117 110 76 136 182 180 118 -25 11 17 47 73 85 84 87 93 75 86 62 83 91 237 319 418 466 506 640 677 602 553 452 388 407 387 335 299 396 368 307 300
-30 20 95 154 320 168 117 73 47 60 52 58 -16 -7 45 62 65 78 88 92 121 129 101 110 112 87 208 331 348 528 534 424 536 413 457 477 337 246 278 352 378 263 138 181
40 74 17 210 296 159 176 116 57 38 15 27 13 63 81 81 90 87 91 97 127 152 139 109 109 132 100 66 164 117 283 237 264 210 293 123 188 138 179 214 223 302 164 186
55 25 34 181 103 105 116 82 68 22 -15 -22 35 86 107 126 130 110 108 107 139 182 192 112 79 84 101 108 122 109 116 138 149 184 168 180 104 147 114 119 135 119 154 188
44 69 33 14 31 50 66 59 28 1 10 -6 33 77 109 133 158 191 143 94 91 117 129 94 73 41 25 22 13 11 52 97 135 136 166 189 241 208 163 149 106 103 99 104
-11 26 28 8 2 35 76 76 71 64 60 26 36 47 74 85 88 108 130 146 118 120 129 159 116 102 89 51 55 74 107 108 123 175 203 211 194 229 255 228 205 220 187 192
-11 -5 11 17 17 33 45 61 74 65 50 34 38 42 29 31 65 80 108 131 134 164 179 143 127 153 156 84 84 83 86 97 122 152 191 236 273 244 241 257 226 171 194 170
48 39 25 33 24 51 79 75 43 28 33 38 39 41 50 54 58 63 75 82 96 126 145 146 120 129 148 178 107 95 138 148 112 90 87 100 126 170 223 202 210 214 196 139
27 33 44 41 61 58 45 42 55 54 40 38 35 36 49 46 45 54 56 65 84 95 97 125 149 164 160 141 153 167 135 123 134 148 141 109 94 105 110 151 184 181 185 186
26 47 50 68 34 15 10 14 22 33 33 40 38 45 51 52 69 85 83 77 90 101 106 120 149 190 167 141 136 132 150 174 150 140 135 136 138 126 94 92 111 122 158 156
34 30 34 4 -5 -13 -9 1 31 44 58 69 83 85 81 93 119 133 102 73 89 107 119 124 139 167 183 108 118 152 141 105 101 109 114 112 112 120 123 125 122 92 63 84
15 24 24 28 21 30 39 51 63 62 65 69 82 90 96 101 106 117 124 134 111 111 116 114 139 148 172 182 68 59 105 131 98 88 92 101 107 100 102 105 113 120 118 125
21 4 18 25 52 88 109 134 132 111 107 119 134 120 95 91 103 110 116 114 120 121 119 132 127 118 135 185 154 102 84 90 104 94 103 98 95 97 91 79 56 67 88 113
61 84 106 128 104 109 114 136 145 140 120 103 107 118 129 120 104 97 81 63 65 100 127 129 122 109 121 139 145 82 82 81 92 105 112 129 103 99 104 109 113 77 56 102
91 88 105 118 118 124 116 110 113 111 102 96 104 112 106 101 86 78 77 77 69 94 107 101 96 94 108 130 141 85 86 95 85 85 75 74 124 154 159 118 105 113 109 113
81 102 123 139 138 114 115 108 106 105 90 73 64 71 78 73 61 50 61 70 75 68 67 88 96 76 98 131 181 105 115 115 106 101 139 155 135 91 106 122 143 129 121 112
88 93 95 95 114 114 97 85 85 88 84 87 80 72 65 51 46 42 21 77 63 45 6 56 81 103 87 129 108 103 116 114 119 121 126 113 110 129 131 135 129 133 136 135
74 76 86 97 95 96 89 79 76 71 70 65 55 38 21 32 20 39 55 86 67 69 78 96 87 107 123 171 111 111 116 127 126 126 126 135 139 137 128 121 125 128 122 116
73 79 72 59 68 70 64 65 66 68 67 65 76 85 83 75 86 102 108 112 119 90 98 90 85 99 129 105 113 118 109 110 122 125 126 133 135 131 140 132 111 110 111 127
62 54 67 61 47 53 82 73 70 87 78 70 76 75 88 113 90 69 53 78 87 92 93 69 66 89 108 98 98 104 116 115 109 115 111 69 70 83 82 95 91 94 93 63
67 63 62 52 58 78 86 89 84 81 72 64 87 69 67 95 98 133 118 77 60 67 84 64 47 47 61 75 83 74 77 81 89 76 76 88 91 82 71 75 81 91 98 86
73 70 85 80 117 123 106 91 72 98 89 87 81 103 109 75 77 62 59 69 54 51 45 55 27 34 48 59 66 68 60 59 60 57 51 64 66 60 65 67 70 72 72 76
89 82 79 75 95 119 137 139 144 158 170 153 122 119 109 86 80 68 75 61 41 48 44 47 51 47 47 64 56 56 54 55 61 62 65 75 69 66 67 68 73 83 96 100

GFSNGP_con_3kmhel_087.txt.gz
Helicity
53 13 4 3 247 156 111 71 -40 61 111 127 146 150 73 8 -8 12 41 36 69 120 161 177 217 283 307 427 472 449 358 377 351 348 343 341 337 335 311 313 268 221 202 199
23 7 14 -34 98 135 123 30 -12 17 45 173 183 131 120 14 -2 18 39 42 41 122 114 152 165 249 293 420 520 493 420 374 355 331 396 418 384 364 368 346 304 286 287 247
-37 9 72 -58 -64 15 70 14 48 64 80 72 111 95 84 45 44 62 62 56 41 46 105 108 141 119 279 344 446 595 586 484 396 379 415 407 398 444 473 410 397 373 343 330
10 43 74 -61 29 8 190 169 183 57 33 22 9 34 79 81 63 70 39 38 32 37 39 89 111 140 152 291 366 502 640 618 493 478 485 458 449 436 454 442 429 418 445 463
19 34 20 2 88 237 139 213 273 127 55 -13 -42 3 55 61 73 80 57 38 36 43 33 35 95 145 115 192 300 370 411 587 532 547 564 560 554 525 504 481 477 474 426 428
-12 -33 -17 76 145 375 232 182 171 107 76 48 -32 8 28 41 49 73 73 62 68 53 38 39 63 94 177 154 199 327 343 335 395 531 489 497 514 557 495 448 447 447 419 388
23 -15 -17 -8 225 342 295 232 98 49 30 45 -12 54 53 50 70 74 79 88 96 79 69 78 109 105 117 137 207 196 271 302 292 290 286 316 266 326 293 333 384 431 369 342
32 -15 0 82 103 189 172 68 46 28 1 -14 7 52 95 116 135 85 90 100 116 107 110 91 85 75 112 143 123 142 173 178 187 212 233 205 123 159 212 191 113 203 222 371
33 58 17 10 19 41 50 43 21 -1 -11 -17 -9 29 62 91 131 147 107 89 105 124 107 128 84 64 110 119 100 91 131 178 204 183 196 222 237 216 157 180 194 143 133 190
-21 -21 8 26 -3 33 41 36 48 58 38 35 28 29 50 76 104 118 114 96 96 135 200 229 180 137 30 20 35 50 61 77 92 128 147 166 165 175 184 155 147 158 188 226
-15 -19 4 5 14 -4 3 24 57 62 46 41 34 37 39 50 59 64 73 84 103 118 133 155 177 191 187 88 36 37 41 58 89 112 128 149 163 138 153 159 113 117 138 140
19 27 14 6 3 13 47 41 28 21 38 48 55 54 47 48 48 59 68 66 81 100 127 142 146 161 164 139 122 108 108 84 84 85 86 110 137 184 232 201 200 188 178 169
-5 21 24 19 25 21 33 47 49 43 38 49 48 42 46 41 46 61 60 63 72 78 97 132 156 188 166 142 138 140 132 136 145 114 86 92 103 103 132 189 203 203 200 196
7 11 25 42 22 -3 -2 24 55 49 36 26 37 43 54 59 52 55 58 57 67 82 100 112 130 175 184 136 124 118 110 123 121 122 127 122 74 40 47 84 119 140 184 172
22 34 22 -10 -18 -29 -25 59 56 47 48 79 91 93 101 113 117 123 71 63 69 88 109 113 136 165 150 114 87 115 97 97 96 93 95 101 113 119 107 98 106 133 151 182
8 13 20 55 93 122 101 85 81 73 72 74 81 88 93 105 113 111 108 104 99 112 116 123 134 136 145 123 61 91 113 114 108 98 108 119 103 96 100 103 112 126 157 171
-13 55 33 65 76 93 132 138 124 116 106 115 108 81 81 86 93 95 91 85 86 99 117 128 125 127 156 177 136 74 99 115 124 144 139 119 118 105 72 73 83 118 154 162
98 88 127 116 97 91 98 114 113 109 104 108 116 123 109 93 75 62 41 38 71 106 127 137 130 120 151 181 155 99 91 79 83 98 127 138 139 123 101 53 53 83 135 155
99 124 131 139 122 106 98 100 112 110 100 92 103 101 88 85 73 68 79 81 90 87 96 111 121 121 163 209 173 109 118 104 100 120 118 112 125 148 142 126 108 93 106 112
101 106 128 130 110 109 113 98 96 104 77 77 76 82 78 62 62 68 71 63 37 36 54 84 105 142 160 188 182 141 149 139 117 125 128 125 109 121 126 126 109 99 94 88
79 90 107 108 104 98 97 76 75 72 59 68 66 47 35 20 33 34 59 47 15 54 60 94 90 107 167 208 154 148 173 183 163 145 160 158 136 120 129 143 137 125 116 113
71 70 65 69 84 74 53 53 53 46 50 51 46 47 52 41 56 84 84 45 55 92 87 67 71 102 147 179 130 130 133 144 153 160 165 171 171 181 175 170 174 161 142 143
62 62 54 53 50 43 46 48 44 46 46 53 69 80 97 74 75 70 90 77 83 85 67 52 61 88 131 145 103 119 127 121 116 112 114 122 107 106 97 111 115 119 118 113
36 40 39 32 41 43 54 35 50 65 63 54 61 52 76 108 102 93 82 51 57 62 61 45 45 56 85 106 73 82 88 95 96 92 91 98 84 78 87 70 78 85 81 83
46 40 38 38 26 35 71 52 77 104 79 54 82 73 56 84 82 56 60 39 27 34 32 24 13 9 28 55 50 50 50 51 49 55 72 77 86 84 79 73 67 70 68 63
45 43 49 67 103 112 111 89 112 122 97 110 110 122 120 109 79 43 42 49 52 28 39 30 31 23 28 25 54 53 50 46 50 48 42 48 66 72 75 73 68 61 61 67
78 85 84 74 119 131 129 134 170 161 158 176 186 169 131 116 92 54 69 60 50 50 39 38 55 48 37 50 57 40 43 52 54 62 66 65 70 64 71 71 69 75 93 99

GFSNGP_con_3kmhel_090.txt.gz
Helicity
77 49 42 65 38 126 150 112 31 33 22 -15 141 155 74 36 57 29 36 38 44 47 124 169 220 232 263 305 341 431 407 614 408 353 354 278 301 311 290 288 219 181 157 149
-10 22 34 41 62 49 90 138 95 83 -42 141 165 153 105 64 57 21 68 85 73 57 83 175 226 224 175 271 360 405 461 414 395 366 390 322 339 340 360 315 260 242 228 180
91 42 41 22 32 12 10 26 57 49 61 76 161 76 109 76 69 51 58 62 56 65 53 84 183 240 223 171 192 362 459 474 448 425 417 391 377 424 414 397 339 323 297 271
122 20 7 20 74 153 133 118 95 226 223 158 131 124 68 71 66 55 50 39 28 34 52 43 128 235 184 180 131 192 343 442 425 452 465 484 464 483 484 459 441 405 370 324
33 31 5 33 -24 55 67 149 140 108 21 35 38 42 77 56 54 57 60 40 34 22 37 40 61 163 187 219 245 205 235 296 343 399 525 534 600 564 587 604 591 505 469 398
43 13 20 11 -6 -32 54 126 338 60 72 39 2 22 11 50 55 62 64 49 45 50 64 96 83 56 103 172 218 259 252 219 257 343 285 326 391 587 556 609 631 551 570 533
34 58 24 -4 49 88 112 179 144 48 77 39 55 56 31 48 68 69 66 62 59 62 87 98 104 102 106 110 137 164 231 252 249 271 227 238 300 223 341 433 449 521 612 618
-1 5 16 16 43 175 207 46 34 41 19 32 27 35 58 89 77 67 73 101 111 110 114 117 84 75 93 105 104 115 137 168 230 233 255 239 284 262 242 280 247 394 348 380
56 53 22 -16 10 8 32 11 19 13 1 -10 -7 28 48 71 97 103 89 79 76 71 79 114 125 106 90 82 83 106 144 165 164 169 191 189 228 232 171 208 200 201 173 234
-2 13 7 17 -10 10 5 21 40 24 5 15 22 17 38 53 67 76 79 82 67 78 100 116 128 138 115 105 94 94 111 135 146 161 143 151 155 124 135 149 125 134 168 185
-5 -27 -17 -5 16 -10 -2 16 26 30 24 21 36 37 28 40 48 46 50 63 74 82 93 112 125 136 127 63 38 63 67 66 84 102 113 122 135 112 103 119 87 98 123 133
18 32 6 -1 6 32 10 -4 -8 14 35 35 42 47 36 41 29 35 46 48 62 80 102 116 128 138 138 103 73 42 27 31 37 47 60 68 83 122 169 139 144 154 159 157
-1 25 29 12 10 15 22 22 25 35 33 52 55 53 35 40 49 58 57 65 75 75 77 96 111 122 129 106 78 71 60 59 35 34 38 50 58 86 119 182 216 213 190 164
-0 4 20 9 -0 -15 15 35 29 18 23 30 42 56 64 54 62 70 73 57 68 92 108 112 114 123 124 106 87 88 83 93 74 65 45 49 54 76 93 116 151 182 258 188
23 32 21 4 -16 21 57 39 42 21 30 54 58 55 69 70 84 87 72 74 79 96 109 108 118 134 108 81 75 68 81 90 88 90 89 89 85 86 100 123 139 147 163 191
14 34 68 72 74 86 83 67 60 46 51 62 70 61 73 75 83 87 89 89 89 105 110 113 121 129 122 92 96 96 97 102 102 91 91 93 96 99 98 102 117 126 124 100
31 39 66 57 68 86 91 76 62 55 61 65 63 59 71 83 95 97 96 93 102 119 123 137 137 122 128 118 91 73 78 91 101 107 106 89 84 91 79 89 125 151 138 106
125 100 74 68 70 71 73 76 68 69 75 80 82 87 89 91 75 61 57 72 83 107 135 134 115 134 158 169 121 85 81 94 111 114 108 108 88 57 47 55 82 105 118 122
83 100 109 100 80 81 74 78 78 81 75 67 87 88 76 77 63 57 63 84 86 108 111 106 116 121 153 169 135 105 99 93 99 104 115 120 125 98 80 87 104 101 98 101
72 80 85 87 76 75 78 67 73 75 52 63 66 77 79 68 64 78 73 80 62 67 70 106 111 119 150 163 156 131 130 120 114 126 132 119 123 135 130 120 108 104 107 97
61 72 81 88 87 78 66 47 52 58 47 65 82 80 79 73 81 83 104 111 97 108 127 120 114 127 152 156 147 147 148 157 159 149 140 140 150 158 145 129 117 102 105 103
60 71 62 59 50 37 31 45 59 60 68 79 85 90 94 99 105 118 84 100 87 94 107 107 108 129 147 152 137 137 137 143 136 140 155 152 146 144 140 141 137 126 122 115
29 25 31 40 40 38 36 46 47 61 68 63 74 88 98 96 98 132 137 77 82 77 83 87 92 107 134 141 119 125 136 129 118 126 127 118 109 113 116 117 111 102 117 118
21 26 31 35 52 59 61 32 37 40 38 37 39 43 86 111 109 82 89 89 75 61 59 59 71 68 83 100 95 97 97 83 85 91 104 98 101 100 94 87 92 80 87 88
35 41 56 68 64 51 44 47 54 64 70 63 70 77 59 70 104 56 49 37 46 47 39 15 30 40 48 54 56 54 55 54 56 69 73 73 92 96 90 83 77 83 89 87
43 35 39 52 69 62 74 108 110 104 118 114 105 112 93 88 102 90 41 22 36 54 50 54 49 42 44 49 53 53 61 60 67 66 64 68 72 73 72 76 80 80 83 80
24 33 60 99 120 129 147 146 155 142 144 157 168 162 140 155 118 110 88 74 79 69 71 73 72 69 64 60 59 64 67 60 61 74 79 77 84 82 85 74 76 80 86 96

GFSNGP_con_3kmhel_096.txt.gz
Helicity
80 107 119 116 98 97 160 154 201 119 138 105 110 68 76 30 4 24 32 15 19 56 83 76 115 188 179 172 255 207 126 212 271 363 474 371 327 317 311 275 250 214 189 174
98 84 87 91 62 73 53 55 103 122 110 89 113 121 99 85 85 86 82 58 29 45 75 85 86 178 187 205 197 131 114 189 193 237 269 542 531 398 393 310 278 246 224 187
100 115 101 146 83 97 99 12 9 103 100 128 112 126 76 53 90 97 57 44 58 61 65 78 88 93 145 184 162 166 160 183 219 115 146 469 626 517 443 353 273 263 229 196
107 79 163 88 105 44 27 17 101 98 62 67 116 108 105 84 78 90 70 59 52 55 66 69 70 66 84 154 162 165 152 198 284 168 142 115 285 544 468 392 345 287 248 210
115 120 112 49 103 47 6 37 51 63 40 104 111 90 154 114 66 67 40 38 35 48 52 54 56 61 56 99 148 208 195 263 286 194 237 253 308 240 360 396 404 347 297 254
73 22 -31 25 24 -30 -40 59 -13 17 49 33 20 51 77 30 62 84 67 36 41 48 40 55 62 57 72 72 88 151 218 183 177 194 155 161 189 154 222 245 267 292 328 310
22 35 40 32 -16 -61 10 -15 -34 10 65 90 57 45 19 56 97 67 48 42 44 46 49 60 39 30 58 79 92 60 80 128 153 160 194 179 182 241 189 209 238 214 290 330
36 77 45 -16 -42 5 40 31 31 41 41 61 70 71 57 55 51 52 49 50 55 43 48 62 66 37 44 54 44 42 51 66 85 116 104 150 153 162 175 188 209 279 312 394
54 54 -16 -21 7 22 66 41 42 26 40 35 25 18 9 7 15 27 39 37 37 34 42 63 66 62 55 51 43 54 62 72 88 87 103 115 130 162 205 245 248 192 203 221
2 -0 -4 15 5 3 22 29 22 22 22 10 6 -6 -0 -1 6 13 16 23 30 46 52 62 63 59 45 39 41 50 63 78 77 85 96 106 107 113 126 154 159 178 190 192
-6 23 9 4 19 22 28 20 27 34 31 16 7 4 -8 -8 4 3 11 26 26 21 26 47 55 56 52 48 31 35 45 54 68 75 81 84 104 109 102 102 85 94 109 104
11 7 5 3 12 8 14 13 14 17 20 17 11 6 -1 10 14 23 30 30 45 48 44 42 43 60 70 56 34 23 30 33 41 47 53 58 50 99 195 142 139 139 117 61
18 37 40 26 15 12 19 20 11 17 4 11 17 13 20 16 24 31 30 39 39 32 31 32 39 58 70 59 40 42 31 31 21 27 39 47 51 66 82 127 235 229 157 133
15 15 26 6 13 11 8 9 10 16 19 23 24 25 29 33 35 41 36 30 35 38 52 48 52 71 66 44 28 30 32 43 24 28 30 43 57 71 82 94 116 145 215 186
11 31 55 62 55 33 19 9 11 11 24 40 32 32 28 34 34 26 20 37 40 45 56 63 71 79 73 46 41 43 36 29 25 34 39 47 54 68 76 88 96 98 101 123
36 51 40 42 36 28 19 15 20 14 20 24 24 27 31 40 39 37 49 57 36 44 51 59 66 65 56 45 40 40 40 53 51 45 58 71 77 79 84 91 103 106 118 114
87 56 58 67 44 33 32 36 35 30 34 32 30 35 40 44 48 52 51 34 28 31 25 45 56 54 61 62 49 37 37 45 53 58 62 65 69 80 88 101 107 112 115 111
38 52 46 42 44 47 50 47 42 42 36 39 42 53 54 52 39 33 31 22 36 52 69 70 55 63 79 95 82 75 70 66 70 68 63 71 73 74 84 86 91 97 94 103
65 89 85 77 64 67 55 45 41 53 46 31 49 61 48 42 31 22 24 46 58 61 66 72 78 80 101 125 110 99 100 99 99 98 91 85 89 82 82 87 87 86 86 93
58 68 75 77 64 45 49 40 45 47 37 55 61 61 65 53 41 44 41 45 26 19 31 57 71 88 105 123 135 119 120 122 118 110 107 101 101 93 83 79 75 78 83 82
42 45 46 55 69 68 52 25 38 53 43 46 60 48 42 30 41 44 71 76 44 51 68 76 76 82 96 110 115 115 117 121 122 123 116 111 103 91 87 83 75 59 54 56
35 51 52 49 45 45 28 31 52 56 56 60 59 57 66 74 85 85 64 76 65 75 71 71 73 80 89 100 102 102 98 97 99 101 111 117 109 99 88 79 66 58 53 55
56 46 31 29 30 30 33 35 37 42 55 61 73 78 84 93 98 122 134 79 67 67 70 70 74 83 89 89 88 84 78 76 75 76 77 77 75 73 74 73 72 71 68 67
39 26 26 27 31 29 36 30 40 56 64 69 79 92 107 120 107 95 89 83 80 86 75 65 63 69 79 79 76 75 68 60 55 53 54 57 57 58 62 61 62 56 54 56
31 36 40 33 36 32 35 44 53 57 75 89 103 114 115 130 146 128 122 104 90 97 81 67 68 72 81 79 82 77 70 66 60 64 59 55 54 50 49 53 50 54 53 52
38 36 33 29 41 41 45 66 80 90 109 117 124 133 128 116 126 128 143 145 128 101 90 88 85 81 80 85 91 92 87 79 80 76 68 62 65 71 66 57 56 55 62 61
60 67 55 45 47 59 75 86 105 102 120 134 126 113 119 120 123 125 139 152 138 122 117 117 111 105 110 115 113 120 123 113 100 98 94 87 85 83 76 67 68 68 68 69

GFSNGP_con_3kmhel_099.txt.gz
Helicity
131 121 119 107 70 98 113 85 109 98 84 54 46 82 118 82 95 102 93 62 81 61 30 47 89 102 162 159 169 256 178 238 218 148 210 382 384 460 377 402 300 285 253 241
89 74 78 71 47 69 76 68 87 61 57 39 50 159 150 79 77 65 46 54 33 58 61 62 73 105 115 120 182 175 195 198 196 150 167 198 527 483 492 424 409 383 330 261
85 111 122 109 76 59 110 72 61 62 32 54 133 182 111 31 44 53 48 44 66 35 73 72 69 61 83 112 136 169 194 192 271 286 206 132 220 522 525 569 482 421 357 271
87 83 96 122 125 71 75 20 73 45 69 74 180 183 100 91 69 65 44 61 28 44 62 69 58 66 52 84 106 125 185 162 196 220 186 183 132 355 465 605 532 424 344 260
76 70 80 87 84 58 48 44 44 56 55 107 186 175 158 109 112 76 64 36 26 43 53 61 67 76 81 81 80 134 177 219 223 209 229 250 243 114 239 238 507 440 342 290
54 56 34 21 19 9 27 15 34 -10 9 63 -7 63 62 84 61 74 81 56 59 63 74 77 77 61 71 91 92 109 145 149 133 138 178 195 246 203 158 96 173 339 373 344
8 11 33 53 12 -43 -3 7 -50 -42 19 -21 -5 55 54 26 68 60 62 72 61 50 53 62 61 56 66 73 91 66 57 58 88 107 109 157 157 157 201 221 168 200 297 357
34 42 29 -4 -44 -25 3 -11 -26 4 67 108 109 67 19 33 57 66 66 72 63 41 44 52 55 50 64 73 43 20 23 47 61 70 74 86 113 148 157 135 188 202 173 255
6 21 6 -19 -23 -0 18 11 14 16 9 22 23 24 34 47 57 60 54 44 46 36 34 44 48 45 51 54 35 18 16 28 41 53 72 79 89 92 108 142 148 164 215 235
-4 14 -7 -7 2 3 9 3 5 9 -2 -5 -2 10 10 12 17 17 22 21 15 24 38 44 45 40 33 30 19 23 37 39 31 43 67 85 87 96 64 68 88 106 123 138
14 24 -10 4 13 -0 10 1 5 6 -6 -4 7 1 -3 4 11 10 14 13 13 18 20 32 33 34 35 30 18 16 19 26 37 32 36 51 98 103 88 116 93 71 91 100
15 12 23 18 12 14 11 1 -6 1 15 10 2 -10 -3 8 6 6 9 14 22 22 23 31 30 40 52 48 34 21 23 16 16 13 22 26 26 55 198 201 165 156 154 111
22 30 50 37 31 18 21 16 5 11 2 -3 2 7 18 21 19 24 25 26 33 31 31 31 42 60 65 50 40 39 29 29 19 19 18 25 29 30 25 62 180 230 176 146
28 46 24 -7 -4 -13 -2 -2 13 8 10 18 21 20 21 23 23 28 27 20 23 30 42 39 48 68 57 42 33 30 28 38 30 31 37 39 38 40 42 60 70 83 127 141
5 29 38 41 33 10 -3 -7 4 10 13 22 19 23 30 41 37 31 12 11 18 31 48 51 64 70 44 18 23 31 28 24 22 27 36 40 49 61 65 70 74 73 76 103
28 48 43 41 31 17 5 1 11 15 17 20 31 42 49 44 34 29 25 33 32 41 36 38 56 51 37 30 36 40 37 42 35 34 40 49 50 56 62 72 82 91 100 109
39 28 39 34 26 14 11 10 23 32 35 35 40 44 40 35 28 28 15 15 27 29 29 43 44 43 49 60 53 48 50 55 52 57 67 69 74 82 79 81 85 91 99 110
24 32 30 22 24 30 33 37 36 34 30 28 31 31 26 22 25 18 13 3 11 39 58 51 38 47 61 77 69 63 61 67 74 77 73 81 87 86 87 92 97 97 94 99
56 72 68 51 36 44 44 42 48 53 41 28 36 40 35 35 27 27 26 43 50 55 60 53 60 67 83 107 95 84 83 89 92 95 98 94 97 97 98 98 99 101 98 97
103 94 82 83 72 50 55 49 55 53 38 42 43 41 44 36 33 38 36 55 43 37 34 55 68 86 95 107 103 90 96 104 104 99 105 105 103 96 95 93 93 93 93 93
29 53 68 77 92 94 60 25 37 47 27 25 35 31 37 35 42 40 54 70 56 41 50 68 79 77 77 81 85 89 94 98 102 105 107 109 103 99 91 86 88 84 81 83
5 23 67 73 75 50 35 38 49 41 32 28 33 37 43 50 48 47 36 61 61 51 61 72 75 67 63 60 73 77 78 79 78 83 94 97 99 100 98 91 79 69 64 62
65 64 48 25 35 48 39 28 12 8 16 19 26 37 46 66 75 93 116 87 70 76 67 62 55 54 51 49 50 52 54 60 61 63 65 69 72 73 77 85 88 82 77 69
64 38 29 36 39 30 30 7 11 14 15 29 40 53 71 92 105 98 99 104 96 89 86 77 70 62 65 67 61 63 59 56 47 43 41 44 53 59 63 66 67 71 72 69
37 34 33 25 31 39 46 38 39 40 46 60 82 97 92 103 115 138 142 138 116 101 101 113 90 83 81 80 83 81 78 78 73 68 59 51 45 45 46 52 56 60 63 61
35 34 31 40 58 60 57 52 64 61 69 99 118 130 139 136 126 115 117 130 142 138 120 111 109 107 99 99 96 94 95 96 107 103 95 80 79 66 64 59 55 50 49 54
58 56 61 72 64 59 61 63 72 89 97 113 133 138 136 135 134 138 137 144 155 158 149 142 137 133 124 114 107 102 101 105 103 110 120 101 94 83 83 85 81 69 55 59

GFSNGP_con_3kmhel_102.txt.gz
Helicity
116 103 102 97 74 74 66 60 85 102 118 80 85 82 102 122 98 93 121 109 74 44 47 63 59 58 74 116 161 132 149 218 200 278 163 127 212 242 276 231 157 204 333 358
68 81 83 64 62 73 65 58 72 63 64 138 103 73 92 108 86 103 108 72 77 55 61 65 85 76 69 106 130 172 156 201 168 248 262 223 149 246 408 457 497 391 453 357
75 95 90 74 111 81 81 96 135 110 139 79 69 106 150 122 124 103 71 97 72 65 45 47 87 85 74 78 131 127 176 183 220 192 226 205 143 156 259 555 834 829 676 474
87 80 88 161 146 176 164 132 115 95 77 48 122 216 186 167 117 88 96 93 72 40 49 72 77 76 62 55 68 104 144 191 241 244 222 227 163 148 121 302 428 562 803 434
72 60 106 41 34 26 70 76 98 83 52 79 87 128 145 121 95 78 94 74 35 48 53 70 79 69 66 65 56 66 117 151 165 163 184 172 211 258 242 237 328 776 707 541
51 64 51 91 46 31 49 35 111 26 22 31 39 1 47 23 30 74 87 53 52 54 60 66 65 57 59 70 73 101 96 91 93 103 114 134 122 155 213 213 268 248 389 552
12 16 66 51 18 29 3 65 -19 -46 -3 -14 -4 29 1 19 58 55 47 52 43 41 53 61 50 51 62 66 82 70 60 50 52 64 75 89 94 120 116 177 166 182 220 270
31 42 68 49 10 20 28 -1 -14 -2 27 116 92 45 44 42 44 49 50 51 49 41 50 57 52 44 45 55 44 34 35 34 41 40 35 53 87 101 122 125 158 186 163 205
40 38 22 11 6 7 4 13 5 1 6 12 22 36 40 28 38 44 50 47 45 35 34 40 47 43 44 31 9 3 15 32 35 36 43 45 55 76 85 115 121 138 127 137
-0 19 9 3 14 14 6 5 -6 -13 2 6 11 16 17 19 28 34 43 42 36 29 27 31 26 22 23 7 -4 -5 4 11 10 26 45 76 53 48 59 66 56 79 104 105
37 41 23 19 14 2 8 3 -0 2 -2 -10 -4 -1 1 9 20 24 23 27 20 12 15 30 25 24 24 22 7 -0 2 -0 5 6 12 8 43 94 54 79 78 48 65 78
29 35 35 26 3 -7 -5 -6 -13 -5 -8 -10 -9 -2 -0 6 10 9 20 23 24 23 19 21 24 31 37 41 35 26 20 16 13 5 7 13 12 10 99 129 147 147 137 87
29 48 53 40 24 13 11 2 -8 -0 -9 -10 -8 -9 12 13 9 15 16 19 22 19 19 27 32 38 37 32 28 29 27 21 17 26 22 21 24 30 35 37 79 138 140 136
43 66 52 13 15 8 13 4 2 -7 -15 -20 -0 7 14 21 20 24 25 21 22 30 33 26 26 40 39 33 35 33 33 43 31 28 29 28 33 28 29 44 60 68 87 109
10 34 40 56 23 10 -9 -20 -21 -15 -9 9 15 21 25 35 34 28 18 11 14 24 33 29 39 49 33 22 23 32 31 29 31 35 38 35 35 42 46 46 44 46 48 66
4 37 52 34 11 -7 -12 -13 1 6 13 22 36 49 47 43 38 34 41 47 42 40 38 43 46 50 47 52 48 51 48 59 44 45 50 58 61 65 66 68 74 82 90 97
20 16 31 33 13 5 12 13 17 25 33 44 45 37 34 41 38 40 34 27 33 34 39 49 45 50 53 58 44 60 65 73 77 77 81 81 83 86 89 96 99 96 101 115
19 11 18 28 23 27 32 45 42 41 47 49 40 37 36 44 52 41 35 26 27 55 63 59 57 55 67 74 67 70 80 89 97 105 107 115 113 104 106 105 104 105 103 101
36 46 55 54 43 44 50 57 57 59 50 37 34 41 58 51 33 26 20 24 33 47 61 54 53 62 77 95 79 90 102 110 109 111 106 99 101 107 110 110 108 106 104 104
76 83 76 72 70 56 60 59 63 50 27 34 47 46 41 23 18 20 26 55 56 57 47 70 65 88 96 110 105 118 123 125 126 124 122 112 110 102 97 88 97 95 95 93
68 73 78 80 88 75 59 46 47 41 39 19 21 38 35 30 22 21 31 58 68 54 53 62 84 91 108 104 113 128 130 128 124 119 115 115 106 100 96 95 89 86 86 85
51 72 73 68 79 84 63 61 53 42 18 29 48 31 23 27 30 35 46 75 92 71 77 91 100 103 98 69 117 111 105 101 97 93 98 95 96 95 95 95 99 102 95 89
20 39 49 50 58 64 68 53 31 30 45 37 23 18 18 51 55 61 89 100 86 103 83 103 111 88 80 70 86 82 82 79 80 78 77 77 77 83 86 88 95 92 97 100
66 67 73 65 64 62 61 42 48 51 45 29 23 28 38 57 78 92 119 135 122 107 104 124 111 92 76 75 79 81 81 79 77 74 73 71 64 70 69 77 79 84 86 79
70 34 41 52 59 61 71 67 64 49 37 42 56 60 55 85 96 126 112 130 150 114 122 165 118 104 98 107 106 106 101 99 101 96 92 94 88 80 68 67 70 71 81 73
73 56 49 51 58 65 74 62 67 65 64 78 85 91 106 117 133 135 141 141 140 143 146 164 161 134 129 128 125 123 116 113 114 119 116 109 106 104 87 82 77 70 72 70
91 77 75 81 73 75 77 82 84 98 95 93 111 112 126 138 147 143 145 157 168 170 167 163 156 154 148 135 137 135 138 141 158 155 161 177 187 195 181 153 114 83 89 86

GFSNGP_con_3kmhel_108.txt.gz
Helicity
54 103 159 185 140 105 83 83 45 72 162 108 224 251 208 174 134 110 95 69 63 80 70 64 61 61 69 65 65 68 95 118 123 117 129 130 124 190 337 200 106 187 342 383
151 140 163 182 147 105 98 70 71 59 71 166 221 248 197 152 119 94 87 79 89 100 95 93 81 86 80 76 76 75 91 108 120 110 130 131 129 196 229 317 156 90 287 572
117 106 150 148 122 84 88 113 131 94 249 262 208 156 139 115 135 128 127 101 107 113 108 93 93 101 95 94 83 80 77 89 114 126 135 151 120 140 206 317 321 227 238 297
178 100 160 170 150 159 159 219 292 323 312 177 123 105 139 164 145 122 104 99 89 92 91 97 86 108 100 85 85 79 73 83 119 141 136 145 156 156 145 187 223 275 255 245
91 51 99 58 81 86 103 107 123 138 133 111 80 89 126 127 91 82 87 65 41 68 86 70 89 89 75 71 71 64 86 101 126 91 83 77 122 121 91 76 102 148 260 294
46 67 43 196 123 45 41 79 112 88 80 85 78 40 109 82 68 67 80 58 49 44 50 84 103 87 72 52 55 84 83 72 56 36 42 56 54 68 68 52 53 63 135 214
45 59 101 75 80 63 60 123 105 66 57 60 156 177 107 50 38 41 56 46 19 35 43 62 77 53 37 14 25 21 25 20 21 35 18 37 30 44 41 30 28 58 71 115
54 37 44 83 44 64 115 107 90 84 92 112 122 81 22 53 61 74 63 21 33 28 34 33 36 46 65 4 -45 -31 -28 -16 -7 8 9 22 35 40 45 39 41 62 69 72
95 65 75 85 100 75 80 91 59 51 47 47 50 29 26 39 41 52 70 42 28 16 16 24 31 49 62 91 -19 -12 -24 -25 -27 -23 -15 2 13 25 28 29 19 28 31 52
29 61 56 53 67 50 58 41 27 17 14 10 10 5 12 19 20 26 48 39 29 20 23 24 42 51 54 45 34 -11 -3 2 -19 -23 -15 -30 -41 -20 -14 7 -4 -8 -3 14
80 42 54 42 33 39 45 33 32 5 -3 -3 -13 -13 -11 -1 6 5 14 17 14 17 19 30 33 43 47 55 20 8 -1 -2 1 -5 -7 -12 -30 -60 -78 -62 -32 -18 -6 -20
26 76 32 79 34 33 42 33 12 16 8 3 0 0 1 6 3 1 2 4 14 23 22 19 18 18 36 42 27 25 23 11 13 12 9 6 3 -13 30 11 16 30 53 30
70 111 82 68 37 29 37 24 26 22 4 -8 -13 -14 -12 -8 -6 11 15 14 7 3 0 4 8 13 14 19 22 24 11 8 1 6 9 12 13 17 18 0 48 44 68 100
130 144 77 53 44 36 39 44 38 29 3 -7 -8 -22 -14 12 22 21 16 8 11 15 14 9 14 20 18 15 2 5 13 15 14 10 10 12 14 13 18 25 30 21 84 120
54 42 49 56 50 48 38 27 33 29 22 21 16 19 22 28 25 27 29 11 26 21 10 -7 -6 -11 -32 -29 3 10 3 7 5 6 9 15 17 21 23 34 35 32 46 130
55 60 62 54 55 39 31 20 37 26 27 32 28 27 31 33 35 36 39 35 22 12 11 2 6 6 21 38 68 49 51 44 43 50 54 56 69 71 74 73 76 51 37 49
83 61 64 60 40 30 23 24 29 27 26 33 23 20 28 39 37 41 25 11 2 9 12 9 3 16 33 62 79 66 71 85 102 105 117 110 107 119 96 90 85 71 17 14
32 47 50 58 48 41 47 62 60 51 57 81 92 87 84 67 38 15 6 -7 34 11 23 23 31 32 53 78 87 84 95 98 106 107 103 116 115 119 116 103 102 80 55 37
60 52 61 62 74 98 105 114 148 128 104 78 77 66 53 39 23 5 5 20 29 42 42 39 22 52 69 86 115 93 101 105 112 118 110 110 105 105 109 101 85 76 64 47
80 103 127 135 129 133 170 126 105 94 83 82 69 47 47 23 18 17 47 55 44 38 19 34 57 79 89 77 98 102 100 101 108 106 96 88 90 90 90 100 97 89 90 86
173 203 206 197 192 140 110 102 96 89 68 43 43 42 40 43 29 32 35 69 57 29 22 17 95 82 88 80 80 91 88 90 86 84 84 84 92 97 99 97 97 101 96 96
130 144 147 137 125 108 93 82 94 85 70 83 78 58 50 37 38 52 58 71 91 48 41 92 126 94 88 71 71 86 90 90 81 87 90 92 93 95 86 89 90 89 88 91
108 117 115 102 85 91 106 97 86 81 77 62 50 43 52 84 80 78 76 65 101 94 73 143 121 110 88 68 72 96 108 107 109 112 125 121 120 116 100 93 93 78 80 78
89 84 86 104 118 94 101 81 70 72 68 60 74 69 78 93 79 94 97 103 117 105 84 151 149 108 85 73 107 124 117 121 126 134 133 145 146 139 142 153 139 116 100 82
68 82 108 79 77 85 80 73 82 77 61 72 73 68 86 115 124 121 117 129 118 89 136 144 126 98 122 148 148 135 141 143 156 158 159 144 152 166 174 151 167 258 333 179
63 66 64 62 73 77 76 71 75 68 57 78 92 116 119 109 110 112 116 105 106 126 152 174 161 135 139 145 126 147 159 171 177 168 151 150 151 154 147 130 124 149 178 238
85 92 100 94 87 81 71 51 66 75 77 100 135 119 121 118 115 120 122 141 145 151 159 155 155 155 156 131 147 152 153 161 168 156 141 136 138 139 123 113 101 111 126 142

GFSNGP_con_3kmhel_111.txt.gz
Helicity
165 71 20 123 131 64 76 92 78 50 136 271 321 278 222 191 143 140 86 99 69 59 78 86 88 83 83 86 86 85 77 76 95 101 89 101 113 107 125 173 262 252 285 222
170 144 121 105 210 220 208 194 161 156 256 257 246 239 246 192 134 85 69 76 89 90 100 99 113 105 99 107 114 96 88 87 85 71 87 134 139 127 156 204 193 210 315 209
178 130 176 125 148 190 210 268 238 285 321 261 226 194 172 109 79 56 55 62 78 82 106 115 110 103 117 127 124 118 100 83 72 59 83 115 137 174 179 216 217 243 266 210
158 176 124 149 191 175 233 271 326 287 248 216 155 132 124 99 85 79 68 65 66 74 75 92 105 111 119 122 120 100 85 75 52 63 86 90 118 133 149 121 156 247 304 249
207 150 149 108 119 94 104 129 187 226 133 123 64 65 92 110 119 80 58 42 58 57 70 92 104 113 91 88 85 86 103 67 56 37 36 61 77 66 55 69 105 114 195 244
129 133 98 130 55 79 79 80 96 159 165 113 63 81 82 127 86 62 51 63 52 47 69 96 122 111 82 67 41 51 54 36 7 7 14 26 31 26 -0 -20 -3 3 51 121
78 81 96 132 124 79 84 48 109 103 97 69 178 154 154 83 63 53 45 33 32 45 60 78 88 110 63 -1 2 5 -17 -10 20 15 20 24 15 13 6 10 4 32 36 60
75 80 62 117 63 47 92 118 111 109 126 185 186 163 111 60 73 75 38 28 23 26 37 42 65 81 82 34 -6 3 -16 -47 -42 -26 -15 10 24 40 28 4 7 15 21 45
114 91 79 96 98 102 110 95 74 89 85 83 78 53 25 27 50 70 62 35 2 4 27 53 77 82 77 80 -10 -7 14 9 -25 -31 -34 -39 -21 -2 21 9 -6 -6 -0 6
64 61 66 79 102 120 98 84 55 41 56 43 29 16 12 5 32 48 57 47 34 31 35 37 44 60 74 68 49 6 4 14 10 -3 -10 -26 -46 -47 -47 -20 -6 3 -8 -6
94 80 75 57 72 76 72 63 60 29 19 12 -2 -15 -8 2 13 28 31 34 34 27 20 29 38 60 77 84 31 11 8 17 17 9 -3 -25 -46 -60 -85 -77 -48 -42 -19 -3
33 100 46 81 68 51 51 42 33 23 25 21 19 17 17 8 7 15 21 25 23 23 20 27 17 28 50 41 10 3 7 11 16 18 13 -1 -9 -33 10 32 66 60 66 59
52 91 96 109 67 47 42 20 24 24 22 23 19 13 3 -0 3 13 13 12 6 2 -8 -3 8 21 38 38 35 32 28 36 32 33 36 38 22 14 10 -11 80 87 112 141
170 184 125 82 51 34 32 47 46 34 28 13 11 7 2 16 20 10 2 -2 -6 -7 9 27 43 62 65 57 31 10 22 32 29 11 18 45 50 36 43 25 17 64 88 151
47 68 108 81 75 57 71 63 44 34 25 28 10 21 57 82 64 52 20 15 23 34 34 35 54 64 54 52 52 32 32 53 47 50 65 92 106 80 75 57 6 -5 20 76
80 79 110 80 81 65 52 53 68 73 87 111 112 101 91 72 56 58 49 34 25 23 16 28 34 8 2 32 65 65 74 97 95 78 83 113 125 121 105 95 76 39 26 15
102 85 82 95 69 51 44 65 64 89 89 95 81 76 74 65 56 44 40 21 14 4 -5 15 20 20 36 61 81 69 87 118 107 93 110 120 122 125 129 105 84 61 20 -12
93 99 111 83 68 60 88 97 92 106 124 113 137 122 85 54 35 11 4 12 3 15 16 21 27 30 72 105 75 76 99 117 105 104 108 106 111 121 128 119 121 116 91 48
97 107 111 104 114 166 186 185 161 145 128 122 128 100 64 31 8 18 18 50 34 31 31 77 62 71 85 100 87 78 90 107 111 99 87 88 94 100 101 94 100 109 105 133
132 144 170 185 198 172 174 158 156 146 121 127 117 93 60 31 25 62 57 38 -4 9 36 76 81 80 90 105 103 87 97 101 93 89 89 86 88 87 85 84 101 102 111 107
190 214 222 213 185 149 134 121 133 121 106 96 82 49 25 12 18 24 41 26 -2 25 50 97 86 67 84 93 100 117 103 97 104 104 109 105 119 106 100 94 91 83 80 72
170 192 185 178 168 139 113 121 132 127 117 90 70 50 41 19 8 21 31 51 40 65 86 107 85 80 81 86 118 112 107 110 111 113 118 131 137 141 136 144 148 94 82 64
153 160 158 150 131 124 129 130 126 117 90 67 56 44 40 23 30 65 86 77 86 107 111 110 108 107 107 117 152 137 126 128 122 128 140 138 140 158 157 152 158 196 234 141
137 138 137 145 149 132 131 116 110 89 73 62 54 54 64 85 154 123 118 117 114 113 121 126 126 130 127 130 123 131 149 143 144 142 145 139 141 155 148 123 132 161 216 283
108 124 133 108 92 94 112 110 110 84 73 74 68 79 107 113 104 87 89 93 125 127 125 134 129 137 120 118 119 138 141 140 148 148 133 123 131 135 125 111 108 117 137 197
79 78 74 69 90 108 110 99 87 56 61 69 72 105 128 118 128 135 155 162 158 162 150 139 142 133 128 133 136 135 138 142 143 131 127 136 123 116 97 89 97 112 128 148
69 77 65 96 110 100 85 73 67 39 80 104 111 114 126 133 153 174 170 161 163 168 168 173 149 148 149 147 141 135 153 143 132 117 136 119 94 83 93 102 115 117 121 107

GFSNGP_con_3kmhel_117.txt.gz
Helicity
161 155 154 153 135 140 149 211 252 223 254 211 254 337 309 247 196 160 127 101 98 90 86 79 72 71 79 93 86 95 119 106 109 106 101 91 86 95 70 65 68 97 148 193
162 121 122 125 61 148 153 196 172 219 276 330 438 397 312 268 212 165 126 114 120 107 88 73 84 77 78 88 100 89 87 97 89 87 91 71 69 85 75 87 88 101 157 184
139 114 113 185 230 209 274 278 306 315 237 330 320 322 303 262 198 169 157 147 127 98 74 72 90 80 71 65 77 94 104 108 105 87 73 82 60 52 71 57 32 30 69 141
165 123 111 133 209 152 208 240 247 243 219 282 367 345 316 227 177 167 151 130 107 85 77 77 55 41 32 35 58 76 80 82 90 66 56 42 36 42 38 24 9 1 20 53
142 122 149 120 147 184 195 190 225 280 289 310 323 329 250 183 174 158 125 95 88 75 58 48 59 48 19 30 20 51 71 61 47 27 29 45 57 47 28 10 33 43 20 44
153 132 118 109 138 127 141 142 150 196 200 212 231 223 142 151 142 132 110 91 86 72 64 83 55 57 44 30 29 9 5 26 27 18 18 21 42 41 30 14 17 19 31 37
114 151 119 121 120 107 171 75 161 169 171 181 174 137 179 179 142 106 110 98 72 77 70 54 40 27 37 20 16 16 2 7 12 15 17 18 15 20 29 20 18 28 32 39
154 153 82 126 141 112 74 125 145 172 185 191 201 227 232 175 119 102 105 70 52 49 39 39 40 31 30 22 25 22 15 6 -5 -9 -19 -8 6 6 4 7 7 12 11 21
173 118 136 106 110 100 87 92 101 141 167 270 279 237 174 137 115 101 69 42 31 21 14 35 43 35 32 45 29 22 20 12 -6 -34 -28 -37 -18 -10 -17 -11 -18 -20 -15 -2
138 106 129 145 155 105 82 100 108 130 162 198 236 158 140 110 90 61 39 39 20 35 31 42 44 36 31 42 39 20 15 2 -15 -31 -44 -66 -71 -86 -86 -56 -45 -49 -45 -20
124 71 87 101 117 134 143 141 128 108 117 137 149 100 87 75 39 22 37 31 32 37 35 46 48 53 57 54 30 -8 -10 -15 -27 -33 -40 -55 -58 -58 -60 -41 -30 -47 -60 -57
55 52 70 66 113 129 137 123 92 98 77 68 85 65 50 38 16 19 35 37 52 49 45 50 53 57 55 36 12 -11 -14 -24 -22 -10 -8 -9 -19 -23 15 27 36 47 44 10
30 78 99 87 127 113 132 101 78 78 52 59 41 54 41 51 38 51 59 59 62 41 33 52 66 56 35 14 1 1 -15 7 14 30 25 12 -11 -18 -21 -16 29 53 71 74
152 193 131 123 101 130 130 108 103 105 74 67 57 65 63 61 58 64 61 44 33 43 67 63 65 66 31 5 22 20 6 21 26 33 13 14 15 0 -11 -25 -26 -1 -14 34
95 68 87 136 149 142 133 137 123 89 87 79 70 71 65 73 84 70 45 35 46 65 71 65 73 50 5 3 39 38 40 37 34 27 31 48 46 46 52 54 56 52 46 40
100 60 115 153 145 138 124 110 100 83 93 83 88 84 92 114 97 70 55 37 40 51 53 66 58 0 -8 26 41 48 44 42 39 44 54 53 61 62 70 80 84 82 71 59
153 114 125 137 126 114 95 82 85 96 101 100 109 112 116 121 111 87 83 77 55 52 52 42 19 -12 21 51 65 50 42 41 52 53 55 57 75 86 83 92 97 99 93 69
99 96 123 146 138 117 108 99 110 114 108 119 139 139 126 93 82 79 70 60 60 72 38 2 8 57 75 64 63 56 52 41 47 58 68 85 86 90 95 94 93 103 93 82
105 130 140 160 157 134 126 136 143 155 160 151 143 116 110 91 85 84 61 63 66 54 13 15 64 79 76 84 79 64 61 63 72 82 79 97 107 108 108 111 121 122 116 108
124 131 148 148 156 164 173 173 187 194 166 178 177 146 117 92 85 68 47 49 34 33 33 49 70 71 84 98 88 78 74 82 84 86 104 110 112 119 126 134 134 136 139 149
132 141 144 156 157 166 160 138 177 193 164 145 141 117 88 59 60 54 37 37 8 28 57 84 76 70 70 83 93 99 93 100 101 102 106 106 116 120 122 129 136 141 139 139
125 141 147 170 157 148 144 156 166 174 165 159 144 134 120 90 71 62 56 38 27 56 86 93 86 83 89 103 94 103 101 99 101 107 115 113 113 118 118 119 123 124 131 131
118 121 127 132 138 146 150 149 141 139 125 116 114 87 89 68 52 70 51 37 66 82 120 111 105 111 107 96 99 93 97 108 106 102 106 111 119 119 112 106 104 112 126 139
103 96 127 136 156 151 144 128 130 122 118 126 96 90 96 88 89 73 80 100 111 134 128 107 113 109 111 104 101 98 103 100 104 113 112 123 118 112 108 103 108 120 130 134
73 117 129 131 124 114 127 133 151 135 123 110 87 77 71 67 83 85 124 118 136 147 134 128 126 127 122 115 107 105 100 95 102 106 108 102 93 87 86 94 103 110 117 118
101 99 101 111 125 142 154 163 172 133 137 145 117 108 128 127 155 154 144 152 160 151 135 123 122 130 126 113 107 104 96 99 112 107 99 88 82 81 77 85 99 105 106 105
100 117 131 123 107 127 145 153 144 107 131 142 142 125 145 174 171 168 172 169 155 151 138 127 125 126 117 114 115 102 92 101 102 94 81 75 73 69 72 80 86 92 98 101

GFSNGP_con_3kmhel_123.txt.gz
Helicity
78 89 112 112 109 123 147 144 160 91 118 125 274 287 191 319 273 242 179 126 124 113 102 95 101 108 97 82 78 67 60 58 59 63 65 73 65 38 19 21 42 49 40 57
92 111 98 128 112 133 136 119 129 109 100 225 153 216 387 288 275 240 151 133 145 124 108 111 110 114 112 102 84 61 60 65 65 75 88 100 53 30 32 32 37 33 35 30
123 109 90 143 116 142 158 128 156 165 147 232 275 308 268 247 278 230 167 156 158 120 117 121 127 108 113 88 63 72 72 79 91 94 105 66 37 52 45 45 24 34 37 40
171 109 151 159 177 122 75 73 143 136 174 159 170 247 315 252 269 225 179 192 136 122 123 128 105 113 87 67 55 58 62 84 91 68 24 30 40 49 34 22 21 19 25 35
199 173 197 207 132 131 152 119 172 205 295 329 321 348 308 244 235 231 230 168 148 136 134 112 102 73 64 54 51 44 38 23 4 21 31 30 31 24 15 14 8 2 5 26
287 427 260 148 171 147 129 130 112 254 266 299 296 245 209 294 288 272 213 172 148 142 123 113 84 65 68 56 21 19 26 30 26 27 22 23 21 20 1 1 -7 -15 -1 20
386 299 123 121 151 140 153 116 83 142 210 221 196 171 192 277 259 219 185 164 150 139 116 84 57 55 51 19 4 9 22 25 19 6 8 8 -1 4 11 17 3 6 8 16
153 130 101 150 195 152 129 105 86 137 156 217 195 184 246 259 253 225 193 170 145 117 93 60 37 15 16 20 13 21 22 12 3 1 -15 -11 9 21 24 29 41 34 35 29
118 99 117 123 140 145 104 84 86 106 145 186 194 198 223 246 223 202 178 138 94 72 58 40 18 5 11 20 17 19 17 5 -11 -13 -13 0 23 23 15 13 9 5 -13 -17
156 125 120 105 121 132 106 111 85 112 139 152 204 208 221 221 200 165 122 83 56 41 27 28 17 21 23 17 15 9 6 -3 -17 -15 -4 8 6 -3 -10 -21 -32 -49 -70 -71
145 141 136 72 84 128 160 99 132 114 127 162 205 188 192 180 139 98 73 57 44 38 46 49 27 20 24 25 10 14 6 -2 -13 -17 -5 -2 -7 -14 -26 -24 -31 -54 -54 -59
115 85 108 83 135 139 158 108 115 175 179 142 179 197 153 131 82 59 46 46 59 58 59 52 36 39 43 26 14 13 13 -1 -6 -3 -18 -21 -18 -2 29 10 -5 -9 -18 -28
72 88 101 81 143 110 134 110 110 133 145 163 136 165 139 117 73 65 59 56 60 52 55 51 48 62 55 28 24 27 26 19 10 0 -11 -13 -10 -9 -20 -31 -34 -20 3 26
108 132 113 96 91 119 119 117 140 146 127 141 155 140 118 95 70 59 61 64 62 62 59 58 61 66 37 28 37 35 39 29 2 -10 -13 -19 -27 -29 -31 -29 -32 -33 -22 9
82 59 42 108 132 141 145 159 162 149 147 156 126 113 99 83 71 72 78 71 64 69 69 61 60 44 7 20 35 30 22 7 -1 -6 -9 -13 -12 -5 -10 -8 -4 0 8 27
80 68 77 97 124 113 111 116 132 119 118 124 117 101 96 97 96 92 74 61 62 49 47 50 49 16 5 22 29 23 15 10 -2 1 6 8 2 3 2 2 6 14 24 30
83 59 65 80 93 84 80 84 86 102 109 109 113 120 127 123 121 110 88 66 77 67 49 48 28 1 7 18 24 4 0 10 22 31 30 21 18 18 16 19 23 26 30 43
35 25 45 86 107 103 101 96 101 110 117 126 150 156 146 118 106 111 105 107 109 92 61 43 23 26 34 23 11 2 9 20 38 45 42 37 31 28 25 29 41 44 42 50
40 56 83 86 103 123 137 130 130 161 190 193 181 135 115 125 132 125 114 109 96 83 31 21 39 50 45 31 25 25 36 43 49 50 52 50 46 41 41 44 49 51 49 53
66 69 89 99 106 137 166 177 178 177 173 183 202 189 154 140 139 128 100 89 68 57 37 41 53 58 51 49 49 45 51 52 53 60 55 50 46 47 47 60 57 58 50 47
56 59 75 101 129 154 173 163 168 167 167 172 166 140 128 117 121 117 116 102 72 58 51 49 52 55 51 51 53 57 65 63 68 65 56 52 46 52 63 63 61 55 47 48
50 55 67 92 109 118 112 122 143 153 154 169 176 173 173 138 114 107 109 89 79 59 62 60 60 63 61 65 59 62 67 71 69 61 55 48 58 68 69 66 61 47 43 47
47 56 59 84 85 86 95 107 112 130 136 134 133 125 128 138 96 96 88 69 80 65 73 74 81 88 88 73 65 74 74 73 75 66 56 56 73 71 64 64 52 41 42 44
52 64 73 74 93 86 85 52 91 92 125 133 127 123 156 160 100 76 86 96 83 84 89 91 92 99 93 74 81 74 73 84 76 58 58 65 77 65 68 59 49 45 44 44
57 76 73 82 63 51 74 89 119 119 128 128 124 119 130 134 156 97 95 110 109 111 115 106 113 107 91 86 80 75 86 83 62 56 74 82 73 71 67 57 48 47 47 47
50 51 60 61 62 76 88 99 102 112 134 132 125 129 134 155 142 121 109 127 114 125 126 106 99 98 99 91 80 94 94 73 61 69 82 81 77 73 62 52 47 49 51 48
62 63 76 79 73 80 81 94 129 125 127 144 157 125 137 145 119 118 131 132 134 129 124 115 105 106 101 88 101 100 82 78 74 81 82 81 75 69 59 52 52 53 53 53

GFSNGP_con_3kmhel_129.txt.gz
Helicity
84 61 87 66 69 68 113 90 117 66 64 51 44 49 133 132 324 172 199 204 185 220 184 129 111 85 91 84 107 106 113 110 116 110 104 96 96 95 78 37 44 48 50 44
69 173 110 90 51 38 26 36 38 44 51 36 34 31 49 185 290 151 164 188 198 230 191 155 110 94 93 108 124 124 118 113 108 106 103 98 92 61 37 42 43 48 53 43
100 79 98 156 70 112 93 66 63 84 66 38 52 46 78 132 243 155 179 209 236 242 201 142 117 104 113 116 120 120 107 110 105 104 98 82 59 33 44 42 41 45 57 53
131 137 262 121 44 21 63 46 49 41 45 42 62 81 152 187 367 292 229 316 299 215 170 139 118 138 112 116 124 108 112 110 100 78 70 29 25 43 38 30 36 42 52 57
121 137 108 78 74 122 99 97 96 60 47 46 63 193 334 324 308 317 441 376 294 185 168 142 130 123 122 133 116 112 102 85 49 39 24 38 43 42 40 33 35 37 36 41
119 152 169 59 34 75 129 111 63 40 46 67 211 221 177 236 435 556 531 397 317 203 190 164 149 122 142 143 136 121 67 49 46 51 45 45 41 37 36 32 32 19 22 32
114 117 97 20 40 88 131 117 167 151 141 104 134 208 292 424 465 542 409 299 222 202 208 184 170 170 165 132 108 65 66 61 61 50 41 39 39 31 23 17 11 14 21 27
53 54 69 64 141 196 135 131 127 99 83 160 250 247 355 375 397 374 323 247 210 202 167 123 124 135 129 108 75 68 65 59 53 49 39 29 21 8 9 8 20 30 37 32
86 106 31 54 54 68 87 93 63 50 76 165 214 253 281 302 292 304 284 240 198 165 139 121 110 92 91 63 41 49 57 44 37 37 25 14 22 25 21 24 35 37 33 30
87 73 68 78 115 89 67 82 86 92 109 155 212 225 255 257 268 258 223 193 159 153 147 138 115 83 58 35 31 45 42 36 37 43 35 40 31 37 45 45 38 34 26 20
58 48 96 109 30 57 89 98 107 120 137 147 176 197 194 226 231 228 201 174 156 145 148 126 90 81 66 54 54 53 42 38 35 22 18 38 56 55 46 54 58 36 28 27
31 64 36 83 47 61 111 114 144 149 170 126 125 158 173 202 202 202 212 178 162 152 123 98 85 74 69 62 49 44 44 46 45 35 28 23 25 44 53 40 37 34 40 31
36 127 96 87 94 104 109 109 119 140 125 138 111 127 173 193 199 192 190 199 196 166 160 139 145 152 108 76 58 61 65 58 49 46 46 48 47 46 40 43 38 40 42 47
76 71 68 84 94 88 95 119 147 143 151 167 105 140 165 170 171 152 149 137 134 135 145 129 125 125 116 113 133 141 114 103 66 56 51 48 53 56 43 32 25 37 55 41
71 71 93 77 78 91 111 133 133 146 146 165 146 143 127 140 114 117 108 105 101 98 96 101 111 120 100 94 95 85 71 69 62 49 44 43 44 46 43 30 19 21 33 42
49 71 75 68 71 76 93 108 105 123 114 140 136 110 109 102 116 120 106 91 92 98 96 115 117 111 101 100 98 95 88 82 49 37 39 54 59 54 43 40 38 43 55 54
50 48 50 52 57 67 63 72 89 98 108 114 103 108 114 143 132 121 117 114 128 132 120 119 122 113 103 84 73 67 62 62 56 47 59 67 67 67 62 58 56 54 68 75
60 61 48 50 48 56 67 79 96 97 93 101 137 158 191 148 148 176 180 164 174 164 143 128 121 117 104 99 90 82 72 63 60 61 64 77 80 78 76 67 64 65 64 75
50 40 42 58 61 70 76 91 111 135 171 226 241 222 198 175 179 168 152 149 155 151 140 133 116 107 100 102 86 81 76 65 60 69 75 69 80 86 83 73 73 72 70 72
51 61 71 83 88 88 106 146 178 193 210 237 248 238 211 187 173 156 140 139 113 122 118 116 99 97 97 96 86 84 72 64 65 75 83 87 90 90 85 83 81 80 82 74
61 74 96 115 126 125 126 142 160 140 135 163 161 184 187 176 167 174 177 179 159 121 125 104 95 94 92 91 77 84 77 74 71 77 83 89 86 93 92 90 89 89 82 72
53 56 52 59 64 75 71 72 80 95 108 127 164 196 206 196 193 186 178 146 120 111 115 108 102 99 108 83 100 88 85 83 86 85 89 92 99 97 98 95 90 89 81 79
52 48 48 57 64 63 64 75 84 83 83 117 147 162 165 182 176 183 185 154 121 99 114 122 158 145 110 107 96 92 93 90 93 101 104 108 109 105 102 98 90 91 93 92
59 54 47 56 87 70 71 67 61 55 79 109 111 124 159 173 161 146 141 135 108 98 128 147 135 120 100 102 91 93 90 99 101 103 120 115 112 103 98 95 92 92 90 91
63 58 51 53 56 56 73 73 78 74 86 92 101 116 116 114 136 148 152 161 124 127 144 135 125 112 106 101 96 99 102 94 102 103 101 111 106 99 90 100 97 108 98 87
59 54 53 49 54 70 71 74 73 78 89 101 103 106 119 117 145 162 149 156 116 127 107 114 113 100 108 101 105 105 100 127 117 108 110 109 107 95 100 106 105 101 96 94
53 71 74 74 72 73 75 72 87 91 97 108 131 137 137 132 160 158 145 142 131 127 103 101 104 110 110 114 114 112 109 111 106 107 101 106 101 103 109 107 102 96 100 93

GFSNGP_con_3kmhel_135.txt.gz
Helicity
361 364 328 314 275 206 295 244 386 272 243 141 200 186 145 148 182 135 292 326 254 405 510 452 322 233 200 177 188 201 186 191 188 217 208 184 162 141 125 134 134 30 30 65
377 407 263 323 268 168 127 119 81 97 88 124 133 124 141 80 199 189 387 350 313 521 549 494 393 281 216 198 255 234 223 209 224 216 204 175 147 122 88 87 69 40 56 77
60 144 194 243 128 158 67 13 72 60 35 140 149 70 81 140 223 354 369 420 467 615 604 517 403 273 255 307 275 236 189 185 182 167 168 149 110 85 52 48 70 72 65 69
-54 3 37 3 -15 28 65 50 44 107 154 93 57 95 133 120 145 263 358 433 548 603 589 533 433 315 356 337 321 265 229 187 157 142 121 107 74 36 32 35 29 20 58 78
79 96 138 140 76 126 113 154 168 205 171 89 112 65 139 146 159 271 389 610 673 704 706 572 436 358 376 379 288 212 197 186 159 120 84 66 84 64 41 36 28 25 23 61
170 144 89 28 85 131 30 121 26 67 103 142 100 139 100 225 326 505 622 653 720 731 603 463 334 305 363 290 229 184 162 136 106 73 63 51 33 33 39 27 30 21 29 33
131 132 131 37 -40 57 75 79 59 49 68 89 93 89 160 291 422 515 567 632 664 573 501 427 405 419 351 282 210 148 115 86 64 51 40 29 37 34 32 37 26 25 24 36
79 113 91 104 81 93 53 94 99 139 119 136 114 141 237 281 326 368 469 520 510 492 410 347 358 363 272 252 218 221 174 88 36 34 39 38 46 50 44 88 85 44 28 33
80 87 59 70 95 15 10 49 66 139 126 104 138 171 190 227 260 309 359 390 376 379 356 340 301 227 262 226 226 181 138 92 52 45 65 101 125 139 144 138 80 60 45 30
86 63 70 67 61 47 143 159 165 154 118 116 129 161 189 207 223 254 290 306 304 312 295 261 200 212 242 215 179 143 97 51 59 78 103 95 100 102 102 92 86 54 48 30
57 55 59 74 77 127 154 176 223 235 137 134 142 174 198 186 203 225 245 236 233 240 224 203 165 171 167 158 140 98 53 61 99 117 123 78 88 72 81 70 59 51 32 23
95 39 29 56 58 58 64 229 201 232 179 119 142 185 199 212 221 224 219 203 193 178 188 164 171 164 133 115 71 63 74 77 73 79 80 79 54 55 74 81 91 76 51 37
34 17 23 34 24 33 85 104 196 194 149 141 139 177 199 217 203 191 194 175 179 204 268 320 292 247 158 126 142 100 69 52 62 69 68 56 44 39 38 47 64 67 69 57
38 50 59 44 65 114 110 151 184 182 158 123 127 171 193 204 205 214 203 226 297 368 390 381 386 335 282 236 208 181 172 174 179 155 118 72 33 28 32 36 38 39 72 73
98 110 102 93 116 124 169 232 219 200 171 142 162 155 164 172 199 232 277 300 344 379 373 378 363 277 231 267 250 238 214 206 171 142 118 99 96 88 58 42 47 90 62 72
87 103 59 95 126 128 145 194 233 214 190 210 174 158 160 187 241 295 286 294 349 340 310 335 258 171 202 197 221 214 185 149 131 108 94 97 92 110 125 138 133 96 67 70
104 85 99 93 118 113 110 138 182 164 203 198 169 143 144 178 246 268 258 263 289 295 260 233 176 160 150 184 180 171 156 108 90 97 116 123 121 121 128 144 115 92 66 70
122 82 62 109 131 124 117 146 186 178 176 168 182 162 168 186 226 257 245 253 248 252 210 182 167 147 116 139 129 141 136 147 152 154 145 133 134 139 133 139 120 89 76 112
98 109 129 135 122 125 142 170 181 172 181 192 184 194 213 253 276 255 222 206 193 185 155 174 148 111 85 84 101 99 112 148 155 139 137 158 165 158 157 137 140 153 138 142
166 167 185 162 160 178 180 172 188 195 193 244 278 292 294 283 270 225 192 163 119 111 131 127 115 110 145 169 150 142 146 160 142 110 112 137 133 124 132 156 165 162 149 139
136 147 151 161 146 122 120 125 160 177 191 238 259 252 269 266 237 213 189 167 130 137 143 133 115 135 162 177 157 153 161 172 148 133 147 132 112 101 105 115 151 160 166 152
85 107 112 113 92 83 85 105 144 167 189 211 241 282 276 234 200 167 162 174 137 151 174 151 127 121 145 172 169 161 157 142 121 112 114 104 119 137 151 163 167 162 162 161
52 47 75 70 71 75 70 74 90 121 144 158 192 213 219 209 189 165 168 129 155 157 174 169 168 126 135 171 172 167 163 148 128 122 132 152 162 164 169 179 171 172 176 164
44 43 56 72 69 63 70 69 77 83 112 120 133 156 193 179 136 133 159 162 144 139 178 208 211 156 168 170 159 152 147 146 153 160 159 174 188 184 178 180 183 161 149 138
41 49 63 63 51 47 72 73 82 91 95 92 94 106 111 102 137 158 168 154 128 180 181 202 226 222 193 157 142 135 143 144 150 147 153 156 138 151 158 150 155 168 159 136
56 52 47 34 41 71 72 70 75 77 81 85 70 77 79 93 130 149 141 142 165 183 183 191 204 204 175 149 132 133 150 140 137 126 124 142 147 158 164 156 151 133 127 152
39 39 27 31 80 76 79 66 77 72 82 86 79 77 77 93 140 164 150 161 174 160 175 161 172 182 172 146 138 158 140 139 157 164 161 155 162 163 160 151 134 136 152 146

GFSNGP_con_3kmhel_138.txt.gz
Helicity
497 333 376 356 347 395 363 452 420 233 321 356 181 123 173 175 168 250 282 358 213 269 283 422 307 220 181 210 267 274 269 264 234 226 213 194 184 187 174 142 99 91 85 113
328 240 373 511 419 521 324 343 397 355 364 289 294 83 105 191 239 200 121 157 217 297 449 468 381 253 207 233 276 311 315 256 233 213 193 178 163 165 149 117 91 85 76 104
34 -93 -123 289 262 230 271 114 170 295 258 245 202 157 94 188 187 186 194 233 338 478 569 560 455 290 247 278 335 360 315 249 217 195 180 163 149 137 115 95 101 107 91 75
-67 -218 -174 -114 -18 48 28 55 18 25 64 63 46 49 141 207 176 166 173 242 489 603 627 573 453 359 350 343 376 338 272 222 188 180 169 148 126 89 86 82 93 87 97 76
-15 -7 -34 -67 7 24 -17 -33 25 43 80 75 115 166 142 219 137 122 240 371 576 598 623 547 534 434 449 403 366 309 277 199 162 166 155 120 77 74 72 82 88 98 93 101
92 38 -20 -16 -13 22 -44 29 66 30 64 66 68 118 93 146 128 268 418 541 620 574 608 579 513 446 441 378 353 275 198 174 156 153 126 87 71 67 59 82 68 76 93 104
90 55 -2 9 -0 67 57 26 32 26 57 58 61 74 98 149 247 352 444 539 569 553 565 531 489 457 416 365 297 215 188 177 162 131 83 67 57 94 96 87 68 57 73 89
69 60 28 12 8 37 20 51 75 90 62 73 90 124 145 143 205 317 432 473 499 560 531 502 458 438 398 332 217 196 195 185 157 111 73 60 89 93 101 88 64 41 59 80
62 49 66 52 55 67 20 35 67 99 75 41 72 73 114 179 223 274 328 391 444 512 497 427 381 400 375 266 215 214 196 168 138 106 104 107 119 133 145 105 63 49 60 76
95 111 103 65 41 82 61 66 103 140 110 98 119 137 164 186 219 256 272 322 357 416 421 404 372 332 302 218 225 209 197 160 150 138 142 148 135 134 123 94 71 49 47 62
98 85 93 83 85 89 115 142 174 167 115 115 132 144 177 189 198 204 224 284 316 337 338 338 334 292 252 241 225 204 195 181 150 131 127 119 117 99 94 71 57 41 19 40
93 57 55 84 83 58 99 130 131 213 196 153 130 142 152 174 184 200 229 256 273 277 297 303 276 260 228 218 212 198 197 192 132 139 118 115 126 122 102 85 75 60 52 50
100 65 74 52 52 76 47 116 148 154 152 136 124 142 153 186 182 190 205 213 226 239 250 233 212 197 191 197 187 170 163 131 113 130 109 103 84 81 80 67 84 70 59 68
84 124 109 70 52 91 71 174 162 165 160 111 99 113 137 157 172 182 175 197 229 238 249 257 223 188 155 154 133 130 112 91 114 101 100 83 62 52 57 58 63 66 76 83
73 142 104 94 109 146 166 217 215 192 151 100 29 85 128 148 162 172 228 277 274 277 275 270 224 162 149 171 184 164 145 130 134 114 95 73 69 67 68 72 86 74 62 95
80 144 156 129 135 152 169 176 214 158 127 72 69 97 120 153 192 225 238 256 281 274 296 286 267 201 214 219 240 239 163 163 157 128 108 97 82 81 81 92 105 97 85 115
107 116 103 125 129 143 108 125 113 114 114 88 102 161 180 196 198 211 217 229 257 283 268 274 279 226 227 222 241 181 171 146 139 149 142 131 128 142 135 137 124 96 84 102
40 67 74 108 103 121 108 109 126 119 107 126 151 162 177 176 192 226 240 243 273 290 252 265 243 202 171 185 161 167 158 147 152 153 147 145 138 144 143 143 134 127 131 131
101 108 93 106 102 105 103 123 119 134 135 137 157 153 160 188 200 200 191 187 196 222 197 220 198 172 147 129 146 165 163 176 171 162 152 163 164 147 144 137 130 143 148 140
148 112 120 123 109 96 116 121 132 137 134 174 199 191 181 167 183 184 165 155 137 149 175 173 149 142 177 123 115 156 179 178 167 159 171 164 160 152 142 144 148 161 156 141
116 110 114 106 109 99 87 69 92 90 108 160 189 173 183 175 174 181 165 135 103 120 145 148 153 171 158 121 114 132 139 151 150 144 152 153 143 137 144 155 163 159 153 157
89 94 92 97 86 70 50 53 89 124 145 150 158 196 207 187 175 150 110 118 107 109 128 149 179 197 166 133 134 146 148 150 139 133 130 128 126 126 121 141 154 153 157 167
66 69 67 73 76 67 62 55 68 100 123 132 145 150 162 173 176 172 137 97 127 115 134 160 182 190 158 142 150 147 140 133 128 123 124 122 133 132 137 147 156 170 183 172
36 39 62 79 86 75 58 43 57 65 83 89 104 131 161 158 124 92 95 118 125 115 120 158 170 182 201 200 176 144 128 126 122 126 127 129 141 157 168 172 166 168 170 159
47 53 60 65 61 48 62 62 73 73 76 75 79 83 94 90 104 127 124 116 109 102 120 123 154 195 204 200 181 146 131 132 131 150 162 156 157 168 168 160 163 160 153 146
48 44 46 53 49 57 61 63 63 58 67 72 64 73 75 86 100 135 130 138 124 105 99 102 146 186 168 159 145 126 123 130 134 130 134 134 149 151 144 150 158 150 140 142
49 54 42 30 41 57 66 69 67 62 66 76 73 64 80 103 110 128 135 137 136 128 132 149 153 143 142 137 126 111 112 116 118 121 122 136 143 136 143 155 140 136 144 154

GFSNGP_con_3kmhel_144.txt.gz
Helicity
79 57 45 -29 -22 56 84 -7 65 93 140 118 114 152 182 224 155 214 251 275 267 307 276 232 214 196 235 257 230 172 181 210 152 181 172 154 161 136 114 127 153 140 121 83
146 71 42 -16 -41 -45 48 -58 1 58 167 226 232 300 400 236 226 166 194 248 181 180 172 199 298 318 306 311 304 267 274 255 201 164 187 169 154 132 132 142 145 132 96 89
51 -15 19 45 -8 -55 -16 92 64 -29 -22 -58 174 258 289 290 359 386 294 229 336 130 197 285 241 250 309 344 298 264 284 191 161 200 179 165 147 137 155 159 128 117 97 84
114 59 103 90 69 59 33 48 50 25 25 -90 -21 -14 62 238 291 408 415 251 152 242 236 248 306 316 360 371 382 381 219 192 182 202 212 184 169 170 174 147 119 108 115 85
180 204 161 61 61 83 70 42 23 55 30 52 18 27 -56 -44 38 71 88 119 130 191 276 395 506 464 506 500 400 284 248 195 250 219 216 198 180 165 164 156 143 116 92 82
248 188 130 65 86 86 60 14 59 45 9 -0 48 15 23 37 -13 -62 -36 32 117 289 417 461 529 571 518 482 369 286 249 205 238 229 211 196 179 172 151 146 138 113 115 66
268 205 176 133 73 71 70 23 36 38 51 52 27 43 48 44 34 -1 -12 57 160 425 533 535 515 447 443 378 293 275 253 242 259 211 212 201 180 169 142 146 137 135 114 97
174 191 158 101 89 76 31 31 38 36 44 45 35 50 46 56 84 111 111 146 229 355 395 381 359 372 394 327 316 304 256 263 244 237 217 180 203 155 150 127 113 113 109 129
156 189 101 39 25 53 47 27 13 3 54 92 81 60 60 59 79 99 118 149 190 250 281 257 265 307 340 345 340 293 290 261 251 227 190 184 192 171 138 91 91 79 90 102
183 111 63 43 71 32 10 18 23 31 34 80 105 98 90 87 87 100 121 151 144 177 207 241 250 267 333 343 249 276 268 236 223 182 183 187 176 141 104 83 75 78 77 86
176 105 107 71 55 27 23 54 48 71 62 67 84 74 89 129 90 98 119 131 138 166 194 224 246 262 271 315 291 274 272 245 214 197 200 179 153 114 93 63 64 69 56 63
156 98 112 80 69 64 66 73 53 93 91 73 86 80 91 76 79 106 134 145 151 160 201 238 265 283 282 291 270 301 281 256 229 238 229 203 170 138 88 70 60 65 60 57
82 59 61 92 75 78 89 59 73 99 123 115 109 93 73 65 87 101 117 145 156 167 208 251 278 284 262 261 263 272 278 255 237 233 220 195 188 176 143 98 72 63 61 66
78 81 87 90 73 101 101 126 135 144 154 143 131 123 79 70 92 106 109 144 175 199 207 221 257 272 275 287 283 288 245 212 247 242 234 220 195 150 132 118 94 112 96 79
53 55 69 98 130 166 175 129 138 131 137 138 114 87 64 81 100 115 137 158 179 201 223 240 265 284 292 290 276 243 227 233 270 287 238 211 169 130 130 115 103 110 117 117
95 119 146 151 152 149 129 89 107 107 122 110 77 11 24 87 110 127 146 169 188 174 192 214 221 216 218 241 229 215 210 253 231 230 218 179 130 106 121 112 101 81 84 118
129 191 139 98 63 59 60 88 107 92 93 79 58 41 82 83 103 116 128 134 146 159 175 194 191 165 172 192 189 179 179 174 207 216 182 130 114 102 117 110 91 83 76 96
101 85 68 51 83 96 105 90 81 100 80 82 78 71 81 84 89 101 112 137 164 188 178 166 165 154 153 135 134 140 161 162 163 172 142 119 101 114 117 108 99 101 108 101
69 67 59 64 71 82 73 69 79 92 104 93 93 77 65 82 94 102 117 128 136 146 128 148 162 169 140 122 129 136 137 146 162 149 116 119 131 122 124 116 118 124 129 131
128 92 79 107 119 82 77 70 87 104 101 105 100 91 83 75 89 98 104 108 97 94 140 152 170 160 147 142 158 133 148 178 177 135 123 135 140 128 113 118 128 140 145 134
105 94 111 137 121 111 88 81 91 72 44 53 77 66 68 64 82 95 99 92 60 94 142 173 186 180 163 148 131 145 175 181 150 132 130 122 123 121 119 120 121 136 137 130
98 90 119 97 104 116 100 71 55 49 61 73 80 87 92 79 84 92 72 65 57 94 132 158 160 183 176 165 146 168 162 166 161 142 128 126 122 116 110 117 121 125 129 129
118 111 98 85 80 86 91 78 67 56 55 68 80 77 79 73 78 106 92 64 81 88 119 134 145 154 164 164 161 178 159 164 157 136 119 120 108 108 114 114 117 120 123 131
100 96 83 59 53 65 97 74 71 68 75 79 79 77 89 97 91 68 71 82 83 89 103 107 119 136 122 129 177 193 178 156 138 127 115 105 99 102 103 111 120 121 125 135
66 57 52 41 57 69 77 75 83 82 86 85 71 64 65 69 54 56 77 74 86 97 94 94 106 124 137 142 139 164 164 158 145 131 119 112 106 113 122 124 119 123 131 146
46 46 48 58 56 62 65 61 62 57 68 73 66 59 65 64 68 80 83 94 98 102 102 98 107 114 131 142 142 145 152 154 148 138 132 134 131 120 116 118 131 137 145 152
54 60 67 70 66 65 63 65 62 43 43 53 55 36 53 64 76 87 97 99 99 100 105 109 110 120 122 121 124 121 120 122 124 118 105 102 104 108 116 120 123 138 145 138

GFSNGP_con_3kmhel_147.txt.gz
Helicity
74 66 58 36 45 52 94 70 105 85 74 77 42 65 16 39 67 73 132 131 147 168 213 290 311 259 253 258 246 199 175 213 197 224 183 165 138 128 129 136 112 100 94 131
98 70 61 66 50 72 72 40 47 35 5 41 -9 8 28 14 110 96 93 91 128 121 185 195 225 275 217 219 229 290 304 329 281 231 219 134 118 141 155 129 121 114 120 147
124 77 79 74 63 56 49 36 85 107 56 52 39 -10 49 32 52 179 214 206 198 191 198 239 187 247 270 274 291 278 339 360 340 289 237 168 123 138 146 128 118 125 131 122
145 106 102 95 101 61 37 35 80 60 65 72 25 8 30 51 28 21 61 216 283 354 270 255 203 157 297 310 263 291 348 299 211 135 107 140 135 164 163 132 134 135 124 105
186 147 120 67 100 131 105 20 61 20 41 28 37 41 19 26 32 9 64 60 121 202 209 257 348 311 354 323 300 355 262 222 147 114 137 161 168 167 137 122 144 159 121 111
145 132 117 98 119 153 157 84 61 28 45 21 37 39 46 44 37 55 22 7 38 145 229 233 292 322 421 459 441 283 195 232 181 174 190 192 181 169 142 144 150 124 124 109
152 151 190 205 223 215 137 103 85 70 27 28 42 56 36 12 14 29 15 -2 10 121 201 249 350 420 510 548 425 335 280 236 181 177 188 198 186 167 150 141 126 114 118 111
64 179 297 124 235 179 154 82 74 44 36 16 11 46 62 22 2 8 35 64 80 197 269 290 322 382 461 427 447 379 330 211 217 204 215 184 189 161 146 141 121 108 118 115
60 60 52 110 112 105 89 73 41 12 -21 -19 2 40 45 47 55 50 36 32 55 99 167 209 242 278 346 408 440 417 314 228 213 216 202 190 183 161 144 96 94 99 103 111
52 53 24 52 75 56 60 40 4 -21 5 24 40 42 59 70 75 62 45 64 63 85 136 167 190 221 314 374 346 313 299 194 188 195 197 188 161 141 113 89 80 81 96 94
85 40 2 20 48 88 53 25 28 31 22 25 50 65 82 80 77 62 58 62 72 90 105 148 194 219 231 261 297 289 224 183 196 188 197 189 157 131 115 95 86 93 91 95
93 89 137 43 101 92 78 70 96 84 76 74 74 65 76 82 74 62 45 54 95 120 112 141 164 175 207 226 257 265 240 220 193 178 180 180 178 171 132 109 102 106 101 103
92 30 107 122 125 104 107 106 106 115 129 124 105 91 91 108 84 87 85 120 121 122 133 128 157 185 182 200 227 236 231 204 206 197 191 189 179 172 173 116 107 97 90 100
67 46 98 85 88 83 108 153 187 192 174 143 142 127 110 108 93 64 61 92 126 124 126 154 174 189 212 226 238 243 230 234 215 193 184 198 196 187 169 145 122 86 85 94
-2 25 64 96 100 132 162 173 190 186 160 145 149 101 62 59 55 54 65 85 121 122 124 152 178 188 203 236 257 243 230 225 225 216 200 204 223 229 173 126 101 98 121 90
58 54 70 69 80 94 121 130 137 124 124 155 153 113 38 58 68 76 77 102 113 91 102 136 158 173 204 223 224 224 211 210 210 221 233 238 204 179 157 121 82 78 79 104
99 86 96 86 85 80 65 78 89 125 140 124 99 57 35 57 77 82 88 109 121 127 129 135 143 176 204 214 214 209 205 195 215 226 193 181 182 150 126 83 61 68 77 88
135 141 100 85 61 68 107 94 102 102 90 100 97 77 52 54 67 79 90 95 103 104 94 110 150 189 207 211 202 196 191 183 165 163 168 156 133 116 83 62 63 73 85 87
79 100 77 67 79 92 77 91 94 100 106 107 93 71 60 54 62 72 76 79 78 82 92 125 150 155 148 155 155 152 140 131 121 117 127 139 128 82 62 56 66 71 81 94
107 98 99 109 118 90 98 93 110 123 112 102 90 59 42 34 45 60 61 67 57 56 85 111 134 124 113 112 111 104 103 100 109 117 118 105 85 72 60 62 64 76 82 88
114 119 128 147 141 116 102 89 109 94 55 39 50 51 53 46 48 51 52 48 39 59 85 117 121 127 110 104 103 100 102 111 117 113 99 83 77 77 87 77 72 83 82 84
104 124 125 118 130 132 106 83 53 46 54 65 75 77 76 63 55 58 42 41 45 56 76 95 110 131 132 145 115 125 131 130 129 125 112 99 90 88 82 81 90 84 85 93
119 115 116 102 106 111 108 90 71 64 69 50 61 68 66 59 55 60 56 49 56 55 67 80 112 155 166 133 122 127 137 125 127 133 133 113 110 109 99 103 94 90 93 102
123 124 124 98 73 93 109 82 88 88 72 66 67 63 71 68 57 50 59 63 65 69 70 89 109 134 139 133 132 135 120 107 127 153 153 132 119 120 118 102 96 97 103 114
90 86 69 66 85 75 74 74 89 83 80 77 71 59 52 44 38 52 63 66 80 77 84 99 121 134 127 132 133 135 135 135 139 131 123 114 107 107 110 104 100 112 116 111
71 57 49 52 54 57 60 56 62 53 56 68 64 56 55 52 65 75 75 81 78 82 89 94 106 121 136 148 152 152 144 135 129 117 108 97 94 98 103 111 109 108 107 110
62 62 63 67 63 59 56 55 54 41 37 50 64 46 47 52 58 68 75 77 78 81 84 85 94 109 130 142 145 145 141 132 120 114 111 113 110 106 107 109 106 107 116 122

GFSNGP_con_3kmhel_153.txt.gz
Helicity
106 85 98 86 85 106 119 83 115 89 60 56 67 40 41 57 76 82 80 87 66 59 47 56 125 138 139 161 227 227 262 436 554 601 522 481 340 276 263 216 230 196 175 164
93 64 78 100 73 77 110 106 88 70 86 54 25 32 41 58 56 99 94 113 117 -1 32 2 63 121 154 230 252 267 435 427 461 521 614 483 402 332 242 287 245 197 183 139
91 121 85 130 80 57 50 29 39 89 60 22 2 43 64 59 72 64 121 132 70 20 34 68 71 144 143 238 291 381 456 412 482 646 671 595 404 313 313 277 224 216 159 126
98 106 149 109 50 38 45 40 29 52 46 28 38 43 61 57 87 186 124 67 50 29 -22 56 62 108 213 269 385 462 484 627 665 595 515 453 346 329 327 321 296 242 156 129
163 119 106 58 59 50 42 58 36 36 22 15 21 56 71 180 187 103 68 45 38 31 -3 -3 132 259 269 461 562 618 679 476 358 387 393 290 254 230 264 249 216 161 138 141
136 134 131 44 32 -4 42 77 27 34 27 19 61 76 36 120 70 67 58 42 31 24 -13 52 190 366 508 544 665 651 450 418 385 289 293 307 254 236 185 166 137 139 182 165
91 105 81 -6 12 7 65 53 66 141 35 49 69 56 118 65 36 44 31 25 39 48 18 137 198 339 393 525 530 474 429 317 311 328 302 239 166 139 141 137 149 143 137 138
89 61 84 29 12 54 65 73 24 48 89 102 57 62 59 29 26 40 30 27 50 63 67 80 129 231 280 340 461 501 391 357 376 306 230 166 160 173 141 140 129 121 129 136
90 89 45 53 75 33 26 22 20 45 60 -4 59 50 36 24 30 33 23 31 63 72 82 78 112 167 205 292 420 408 415 430 312 227 170 156 146 125 137 132 121 118 124 136
61 41 16 30 71 79 47 62 7 21 18 62 47 19 -2 13 4 8 21 39 56 72 100 118 114 134 233 271 292 347 390 359 288 236 200 142 101 94 99 93 96 99 106 115
52 27 54 61 46 57 55 111 61 24 33 43 37 4 -9 -9 -8 11 22 31 47 47 64 125 164 149 167 254 314 336 311 294 223 171 148 120 91 89 87 85 87 94 105 116
40 23 26 29 49 44 28 92 93 46 40 23 51 36 16 35 51 60 65 79 88 76 54 80 114 137 142 188 215 203 196 191 201 180 128 125 147 203 249 214 232 212 183 147
-1 4 18 20 45 20 25 90 99 32 81 63 34 44 49 63 80 100 102 101 92 94 85 82 106 112 106 105 110 125 167 199 200 152 130 123 136 157 201 214 227 250 282 249
6 25 26 26 -2 41 60 52 32 54 62 71 96 78 71 71 80 76 100 111 114 104 107 99 83 81 103 120 126 152 199 188 161 140 119 146 152 162 180 201 227 229 216 198
68 40 17 8 18 216 61 24 45 22 62 68 80 80 75 70 83 103 112 90 91 109 97 83 85 91 93 105 129 154 176 150 147 147 156 171 187 199 184 189 190 191 211 202
70 32 7 40 57 81 58 30 26 34 84 75 71 78 111 116 103 103 105 82 79 85 71 66 74 82 105 133 168 165 151 161 172 173 183 182 206 214 197 176 179 172 163 164
45 79 64 55 39 15 12 20 30 50 118 89 122 96 90 98 73 81 93 89 85 85 81 69 85 93 113 132 137 149 164 172 169 186 189 206 204 183 168 168 171 148 148 144
46 29 8 5 13 17 37 62 69 105 106 121 132 126 121 78 72 66 87 93 87 83 80 86 82 88 95 109 135 156 145 156 163 161 172 165 166 170 160 164 153 135 169 165
7 11 25 9 33 68 85 73 89 139 144 125 120 92 64 70 69 64 67 63 59 61 70 74 84 80 94 128 127 122 126 137 144 150 150 161 162 178 168 142 133 113 140 149
8 14 41 93 89 81 91 118 122 132 117 115 88 68 48 42 45 52 48 73 72 67 73 87 76 85 98 104 86 97 100 109 118 124 139 146 149 135 115 110 107 90 100 110
90 122 174 145 136 139 101 100 112 119 107 88 57 30 48 49 48 49 39 42 44 53 65 62 59 66 68 76 65 82 83 84 91 96 98 96 97 87 93 91 84 84 96 93
61 93 112 128 138 136 105 106 116 112 95 58 55 56 56 54 59 56 54 60 58 60 68 58 62 66 71 62 81 82 78 75 76 79 73 76 74 74 80 87 82 72 74 66
51 72 102 115 112 116 113 112 100 74 52 49 61 58 44 47 40 44 51 58 63 62 69 83 111 117 114 68 92 86 86 84 86 82 82 83 84 83 89 89 82 84 85 83
51 96 111 111 93 88 98 93 85 73 63 76 80 75 56 63 60 62 88 91 93 59 76 89 106 124 111 116 108 110 104 100 106 108 109 106 95 92 86 89 89 90 86 95
61 86 97 84 84 91 93 68 66 71 66 79 75 66 55 63 46 65 59 70 64 61 71 89 109 122 125 122 119 116 113 121 127 126 123 109 110 100 91 84 73 81 96 99
56 61 65 67 73 57 43 29 39 54 61 64 65 68 69 58 72 61 54 56 60 70 72 85 98 112 126 133 133 133 132 139 123 106 96 92 86 80 80 81 76 73 70 71
55 60 47 41 37 38 20 24 45 50 57 51 57 56 58 54 52 54 56 57 63 75 78 90 95 102 115 118 117 119 115 100 97 88 82 79 71 69 68 66 69 67 74 83